[[{"header":{"parameterUnit":"m.s-1","parameterCategory":1,"la1":30.6,"la2":29.2853,"lo1":-89.7004,"lo2":-87.6739,"dy":0.0162,"dx":0.0183,"nx":112,"ny":82,"refTime":"2023-05-08T00:00:00:Z","depth":0,"parameterNumber":2,"parameterNumberName":"U-component_of_WINDS"},"data":[0.0,0.0,0.0,0.0,0.0,0.0,0.0,0.0,0.0,0.0,0.0,0.0,0.0,0.0,0.0,0.0,0.0,0.0,0.0,0.0,0.0,0.0,0.0,0.0,0.0,0.0,0.0,0.0,0.0,0.0,0.0,0.0,0.0,0.0,0.0,0.0,0.0,0.0,0.0,0.0,0.0,0.0,0.0,0.0,0.0,0.0,0.0,0.0,0.0,0.0,0.0,0.0,0.0,0.0,0.0,0.0,0.0,0.0,0.0,0.0,0.0,0.0,0.0,0.0,0.0,0.0,0.0,0.0,0.0,0.0,0.0,0.0,0.0,0.0,0.0,0.0,0.0,0.0,0.0,0.0,0.0,0.0,0.0,0.0,0.0,0.0,0.0,0.0,0.0,0.0,0.0,-3.1364,-3.4935,-3.6079,-3.3771,-3.116,-2.8484,-2.576,0.0,0.0,0.0,0.0,0.0,0.0,0.0,0.0,0.0,0.0,0.0,0.0,0.0,0.0,0.0,0.0,0.0,0.0,0.0,0.0,0.0,0.0,0.0,0.0,0.0,0.0,0.0,0.0,0.0,0.0,0.0,0.0,0.0,0.0,0.0,0.0,0.0,0.0,0.0,0.0,0.0,0.0,0.0,0.0,0.0,0.0,0.0,0.0,0.0,0.0,0.0,0.0,0.0,0.0,0.0,0.0,0.0,0.0,0.0,0.0,0.0,0.0,0.0,0.0,0.0,0.0,0.0,0.0,0.0,0.0,0.0,0.0,0.0,0.0,0.0,0.0,0.0,0.0,0.0,0.0,0.0,0.0,0.0,0.0,0.0,0.0,0.0,0.0,0.0,0.0,0.0,0.0,0.0,0.0,0.0,0.0,0.0,0.0,0.0,0.0,0.0,0.0,0.0,0.0,-2.8691,-3.3288,-3.516,-3.5405,-3.3658,-2.9607,-2.6943,-2.6447,0.0,0.0,0.0,0.0,0.0,0.0,0.0,0.0,0.0,0.0,0.0,0.0,0.0,0.0,0.0,0.0,0.0,0.0,0.0,0.0,0.0,0.0,0.0,0.0,0.0,0.0,0.0,0.0,0.0,0.0,0.0,0.0,0.0,0.0,0.0,0.0,0.0,0.0,0.0,0.0,0.0,0.0,0.0,0.0,0.0,0.0,0.0,0.0,0.0,0.0,0.0,0.0,0.0,0.0,0.0,0.0,0.0,0.0,0.0,0.0,0.0,0.0,0.0,0.0,0.0,0.0,0.0,0.0,0.0,0.0,0.0,0.0,0.0,0.0,0.0,0.0,0.0,0.0,0.0,0.0,0.0,0.0,0.0,0.0,0.0,0.0,0.0,0.0,0.0,0.0,0.0,0.0,0.0,0.0,0.0,0.0,0.0,0.0,0.0,0.0,0.0,0.0,0.0,-2.843,-3.0911,-3.4525,-3.511,-3.4603,-3.2986,-2.8611,-2.5962,-2.5962,-2.4383,0.0,0.0,0.0,0.0,0.0,0.0,0.0,0.0,0.0,0.0,0.0,0.0,0.0,0.0,0.0,0.0,0.0,0.0,0.0,0.0,0.0,0.0,0.0,0.0,0.0,0.0,0.0,0.0,0.0,0.0,0.0,0.0,0.0,0.0,0.0,0.0,0.0,0.0,0.0,0.0,0.0,0.0,0.0,0.0,0.0,0.0,0.0,0.0,0.0,0.0,0.0,0.0,0.0,0.0,0.0,0.0,0.0,0.0,0.0,0.0,0.0,0.0,0.0,0.0,0.0,0.0,0.0,0.0,0.0,0.0,0.0,0.0,0.0,0.0,0.0,0.0,0.0,0.0,0.0,0.0,0.0,0.0,0.0,0.0,0.0,0.0,0.0,0.0,0.0,0.0,0.0,0.0,0.0,0.0,0.0,0.0,0.0,0.0,0.0,0.0,0.0,0.0,-2.9754,-3.1686,-3.457,-3.4262,-3.3242,-3.1832,-2.7661,-2.5191,-2.5393,-2.3134,0.0,0.0,0.0,0.0,0.0,0.0,0.0,0.0,0.0,0.0,0.0,0.0,0.0,0.0,0.0,0.0,0.0,0.0,0.0,0.0,0.0,0.0,0.0,0.0,0.0,0.0,0.0,0.0,0.0,0.0,0.0,0.0,0.0,0.0,0.0,0.0,0.0,0.0,0.0,0.0,0.0,0.0,0.0,0.0,0.0,0.0,0.0,0.0,0.0,0.0,0.0,0.0,0.0,0.0,0.0,0.0,0.0,0.0,0.0,0.0,0.0,0.0,0.0,0.0,0.0,0.0,0.0,0.0,0.0,0.0,0.0,0.0,0.0,0.0,0.0,0.0,0.0,0.0,0.0,0.0,0.0,0.0,0.0,0.0,0.0,0.0,0.0,0.0,0.0,0.0,0.0,0.0,0.0,0.0,0.0,0.0,0.0,0.0,0.0,0.0,0.0,0.0,-2.8307,-2.9404,-3.2737,-3.1995,-3.09,-3.0047,-2.647,-2.4603,-2.5338,-2.3134,0.0,0.0,0.0,0.0,0.0,0.0,0.0,0.0,0.0,0.0,0.0,0.0,0.0,0.0,0.0,0.0,0.0,0.0,0.0,0.0,0.0,0.0,0.0,0.0,0.0,0.0,0.0,0.0,0.0,0.0,0.0,0.0,0.0,0.0,0.0,0.0,0.0,0.0,0.0,0.0,0.0,0.0,0.0,0.0,0.0,0.0,0.0,0.0,0.0,0.0,0.0,0.0,0.0,0.0,0.0,0.0,0.0,0.0,0.0,0.0,0.0,0.0,0.0,0.0,0.0,0.0,0.0,0.0,0.0,0.0,0.0,0.0,0.0,0.0,0.0,0.0,0.0,0.0,0.0,0.0,0.0,0.0,0.0,0.0,0.0,0.0,0.0,0.0,0.0,0.0,0.0,0.0,0.0,0.0,0.0,0.0,0.0,0.0,0.0,0.0,0.0,0.0,-2.8275,-2.955,0.0,-3.1013,-2.9698,-2.8369,-2.4849,-2.3061,-2.3859,0.0,0.0,0.0,0.0,0.0,0.0,0.0,0.0,0.0,0.0,0.0,0.0,0.0,0.0,0.0,0.0,0.0,0.0,0.0,0.0,0.0,0.0,0.0,0.0,0.0,0.0,0.0,0.0,0.0,0.0,0.0,0.0,0.0,0.0,0.0,0.0,0.0,0.0,0.0,0.0,0.0,0.0,0.0,0.0,0.0,0.0,0.0,0.0,0.0,0.0,0.0,0.0,0.0,0.0,0.0,0.0,0.0,0.0,0.0,0.0,0.0,0.0,0.0,0.0,0.0,0.0,0.0,0.0,0.0,0.0,0.0,0.0,0.0,0.0,0.0,0.0,0.0,0.0,0.0,0.0,0.0,0.0,0.0,0.0,0.0,0.0,0.0,0.0,0.0,0.0,0.0,0.0,0.0,0.0,0.0,0.0,0.0,0.0,0.0,0.0,0.0,0.0,-2.6639,-2.7255,-2.828,0.0,-2.9344,-2.8023,-2.6627,-2.3619,-2.2143,-2.2951,0.0,0.0,0.0,0.0,0.0,0.0,0.0,0.0,0.0,0.0,0.0,0.0,0.0,0.0,0.0,0.0,0.0,0.0,0.0,0.0,0.0,0.0,0.0,0.0,0.0,0.0,0.0,0.0,0.0,0.0,0.0,0.0,0.0,0.0,0.0,0.0,0.0,0.0,0.0,0.0,0.0,0.0,0.0,0.0,0.0,0.0,0.0,0.0,0.0,0.0,0.0,0.0,0.0,0.0,0.0,0.0,0.0,0.0,0.0,0.0,0.0,0.0,0.0,0.0,0.0,0.0,0.0,0.0,0.0,0.0,0.0,0.0,0.0,0.0,0.0,0.0,0.0,0.0,0.0,0.0,0.0,0.0,0.0,0.0,0.0,0.0,0.0,0.0,0.0,0.0,0.0,0.0,0.0,0.0,0.0,0.0,0.0,0.0,0.0,0.0,0.0,0.0,-2.5665,-2.4887,-2.5067,-2.7601,-2.6732,-2.5668,-2.4847,-2.2925,-2.2125,0.0,0.0,0.0,0.0,0.0,0.0,0.0,0.0,0.0,0.0,0.0,0.0,0.0,0.0,0.0,0.0,0.0,0.0,0.0,0.0,0.0,0.0,0.0,0.0,0.0,0.0,0.0,0.0,0.0,0.0,0.0,0.0,0.0,0.0,0.0,0.0,0.0,0.0,0.0,0.0,0.0,0.0,0.0,0.0,0.0,0.0,0.0,0.0,0.0,0.0,0.0,0.0,0.0,0.0,0.0,0.0,0.0,0.0,0.0,0.0,0.0,0.0,0.0,0.0,0.0,0.0,0.0,0.0,0.0,0.0,0.0,0.0,0.0,0.0,0.0,0.0,0.0,0.0,0.0,0.0,0.0,0.0,0.0,0.0,0.0,0.0,0.0,0.0,0.0,0.0,0.0,0.0,0.0,0.0,0.0,0.0,0.0,0.0,0.0,0.0,0.0,0.0,0.0,-2.491,-2.4543,-2.4783,-2.6578,-2.5804,-2.4771,-2.381,-2.1464,-2.0637,-2.2069,0.0,0.0,0.0,0.0,0.0,0.0,0.0,0.0,0.0,0.0,0.0,0.0,0.0,0.0,0.0,0.0,0.0,0.0,0.0,0.0,0.0,0.0,0.0,0.0,0.0,0.0,0.0,0.0,0.0,0.0,0.0,0.0,0.0,0.0,0.0,0.0,0.0,0.0,0.0,0.0,0.0,0.0,0.0,0.0,0.0,0.0,0.0,0.0,0.0,0.0,0.0,0.0,0.0,0.0,0.0,0.0,0.0,0.0,0.0,0.0,0.0,0.0,0.0,0.0,0.0,0.0,0.0,0.0,0.0,0.0,0.0,0.0,0.0,0.0,0.0,0.0,0.0,0.0,0.0,0.0,0.0,0.0,0.0,0.0,0.0,0.0,0.0,0.0,0.0,0.0,0.0,0.0,0.0,0.0,0.0,0.0,0.0,0.0,0.0,0.0,0.0,0.0,-2.4589,-2.3774,-2.3636,-2.5149,-2.4126,-2.3052,-2.2353,-2.0463,-1.9866,-2.1198,0.0,0.0,0.0,0.0,0.0,0.0,0.0,0.0,0.0,0.0,0.0,0.0,0.0,0.0,0.0,0.0,0.0,0.0,0.0,0.0,0.0,0.0,0.0,0.0,0.0,0.0,0.0,0.0,0.0,0.0,0.0,0.0,0.0,0.0,0.0,0.0,0.0,0.0,0.0,0.0,0.0,0.0,0.0,0.0,0.0,0.0,0.0,0.0,0.0,0.0,0.0,0.0,0.0,0.0,0.0,0.0,0.0,0.0,0.0,0.0,0.0,0.0,0.0,0.0,0.0,0.0,0.0,0.0,0.0,0.0,0.0,0.0,0.0,0.0,0.0,0.0,0.0,0.0,0.0,0.0,0.0,0.0,0.0,0.0,0.0,0.0,0.0,0.0,0.0,0.0,0.0,0.0,0.0,0.0,0.0,0.0,0.0,0.0,0.0,0.0,0.0,0.0,-2.4676,-2.2958,-2.2144,-2.361,-2.221,-2.1073,-2.0798,-1.986,-1.9638,-2.0456,0.0,0.0,0.0,0.0,0.0,0.0,0.0,0.0,0.0,0.0,0.0,0.0,0.0,0.0,0.0,0.0,0.0,0.0,0.0,0.0,0.0,0.0,0.0,0.0,0.0,0.0,0.0,0.0,0.0,0.0,0.0,0.0,0.0,0.0,0.0,0.0,0.0,0.0,0.0,0.0,0.0,0.0,0.0,0.0,0.0,0.0,0.0,0.0,0.0,0.0,0.0,0.0,0.0,0.0,0.0,0.0,0.0,0.0,0.0,0.0,-2.6906,0.0,0.0,0.0,0.0,0.0,0.0,0.0,0.0,0.0,0.0,0.0,0.0,0.0,0.0,0.0,0.0,0.0,0.0,0.0,0.0,0.0,0.0,0.0,0.0,0.0,0.0,0.0,0.0,0.0,0.0,0.0,0.0,0.0,0.0,0.0,0.0,0.0,0.0,0.0,0.0,0.0,-2.5423,-2.363,-2.2508,-2.3461,-2.2515,-2.1473,-2.0626,-1.9798,-1.9638,-2.0456,0.0,0.0,0.0,0.0,0.0,0.0,0.0,0.0,0.0,0.0,0.0,0.0,0.0,0.0,0.0,0.0,0.0,0.0,0.0,0.0,0.0,0.0,0.0,0.0,0.0,0.0,0.0,0.0,0.0,0.0,0.0,0.0,0.0,0.0,0.0,0.0,0.0,0.0,0.0,0.0,0.0,0.0,0.0,0.0,0.0,0.0,0.0,0.0,0.0,0.0,0.0,0.0,0.0,0.0,0.0,0.0,0.0,0.0,0.0,0.0,0.0,-2.8431,0.0,0.0,0.0,0.0,0.0,0.0,0.0,0.0,0.0,0.0,0.0,0.0,0.0,0.0,0.0,0.0,0.0,0.0,0.0,0.0,0.0,0.0,0.0,0.0,0.0,0.0,0.0,0.0,0.0,0.0,0.0,0.0,0.0,0.0,0.0,0.0,0.0,0.0,0.0,0.0,-2.5573,-2.3072,-2.1538,-2.2663,-2.162,-2.0593,-1.9984,-1.9528,-1.9481,-1.9895,-2.0291,0.0,0.0,0.0,0.0,0.0,0.0,0.0,0.0,0.0,0.0,0.0,0.0,0.0,0.0,0.0,0.0,0.0,0.0,0.0,0.0,0.0,0.0,0.0,0.0,0.0,0.0,0.0,0.0,0.0,0.0,0.0,0.0,0.0,0.0,0.0,0.0,0.0,0.0,0.0,0.0,0.0,0.0,0.0,0.0,0.0,0.0,0.0,0.0,0.0,0.0,0.0,0.0,0.0,-3.4464,-3.4949,-3.55,-3.55,-3.4788,-3.3519,-3.2627,-3.0841,-2.8673,0.0,0.0,0.0,0.0,0.0,0.0,0.0,0.0,0.0,0.0,0.0,0.0,0.0,0.0,0.0,0.0,0.0,0.0,0.0,0.0,0.0,0.0,0.0,0.0,0.0,-2.7499,-2.6725,0.0,0.0,0.0,0.0,0.0,0.0,0.0,0.0,0.0,0.0,0.0,0.0,-2.5102,-2.2144,-2.0401,-2.1659,-2.0562,-1.9626,-1.9331,-1.9297,-1.9297,-1.9297,-1.9932,-2.0346,0.0,0.0,0.0,0.0,0.0,0.0,0.0,0.0,0.0,0.0,0.0,0.0,0.0,0.0,0.0,0.0,0.0,0.0,0.0,0.0,0.0,0.0,0.0,0.0,0.0,0.0,0.0,0.0,0.0,0.0,0.0,0.0,-2.7268,-2.6732,0.0,0.0,0.0,0.0,0.0,0.0,0.0,0.0,0.0,0.0,0.0,0.0,0.0,-3.3473,-3.4227,-3.5411,-3.576,-3.528,-3.6012,-3.6058,-3.55,-3.55,-3.575,-3.6192,-3.6056,0.0,-3.1121,-2.9892,0.0,0.0,0.0,0.0,0.0,0.0,0.0,0.0,0.0,0.0,0.0,0.0,0.0,0.0,0.0,0.0,0.0,0.0,0.0,0.0,0.0,0.0,-2.8555,-2.797,-2.775,-2.7434,0.0,-2.6447,-2.6447,-2.6447,-2.4841,0.0,0.0,0.0,0.0,0.0,0.0,0.0,-2.3566,-2.1737,-2.0551,-2.0928,-2.0611,-2.0084,-1.9352,-1.9297,-1.9297,-1.9297,-1.9407,-1.9767,-2.0474,-2.0621,0.0,0.0,0.0,0.0,0.0,0.0,0.0,0.0,0.0,0.0,0.0,0.0,0.0,0.0,0.0,0.0,0.0,0.0,0.0,0.0,0.0,0.0,0.0,0.0,0.0,0.0,0.0,0.0,0.0,-2.9209,-2.9736,-2.7596,-2.9706,-3.0652,0.0,0.0,0.0,0.0,0.0,0.0,0.0,0.0,0.0,-3.2564,-3.4913,-3.5898,-3.5335,-3.7202,-3.7988,-3.7642,-3.7988,-3.8219,-3.8315,-3.8315,-3.8507,-3.8834,-3.8834,-3.7757,-3.5795,-3.3603,-3.2564,-3.2276,0.0,0.0,0.0,0.0,-3.1309,-3.1938,-3.2262,-3.2624,0.0,0.0,0.0,0.0,0.0,0.0,0.0,0.0,0.0,0.0,0.0,0.0,0.0,-2.9347,-2.9494,-2.9744,-2.9365,-2.8227,-2.7016,0.0,-2.5805,-2.5786,-2.6025,0.0,0.0,0.0,0.0,0.0,-2.3121,-2.1588,-2.0533,-2.0625,-2.016,-1.9675,-1.9334,-1.9297,-1.9297,-1.9297,-1.9297,-1.9462,-1.9803,-2.0254,-2.0616,0.0,0.0,0.0,0.0,0.0,0.0,0.0,0.0,0.0,0.0,0.0,0.0,0.0,0.0,0.0,0.0,0.0,0.0,0.0,0.0,0.0,0.0,0.0,0.0,0.0,0.0,0.0,0.0,-3.0248,-3.1083,-2.7948,-3.0725,-3.2058,0.0,0.0,0.0,0.0,0.0,0.0,-3.3916,-3.4617,-3.4925,-3.4883,-3.7314,-3.8142,-3.7115,-3.8988,-3.9931,-3.9931,-4.0162,-4.0477,-4.0835,-4.0835,-4.0835,-4.0823,-4.0593,-4.0169,-3.9419,-3.6873,-3.5038,-3.3814,-3.315,-3.2909,-3.2921,-3.298,-3.317,-3.3549,-3.4412,-3.4936,-3.5128,-3.4467,0.0,-3.4016,-3.1672,0.0,0.0,0.0,0.0,-3.087,-3.1072,-3.1568,-3.1916,-3.1531,-3.1733,-3.1966,-3.1751,-3.0301,-2.8484,0.0,-2.6623,-2.6814,-2.6631,0.0,0.0,0.0,0.0,-2.3153,-2.2758,-2.141,-2.0503,-2.0503,-1.9785,-1.9297,-1.9297,-1.9297,-1.9297,-1.9297,-1.9297,-1.9297,-1.9297,-1.9877,-2.0291,-2.0511,0.0,0.0,0.0,0.0,0.0,0.0,0.0,0.0,0.0,0.0,0.0,0.0,0.0,0.0,0.0,0.0,0.0,0.0,0.0,0.0,0.0,0.0,0.0,0.0,0.0,0.0,0.0,0.0,0.0,-2.6967,-3.084,0.0,0.0,0.0,0.0,-3.2569,-3.3955,-3.5001,-3.5369,-3.6916,-3.7788,-3.7781,-3.9469,-4.0719,-4.1481,-4.1615,-4.1673,-4.1673,-4.2508,-4.2508,-4.1731,-4.1731,-4.1731,-4.17,-4.0854,-4.0477,-4.0246,-3.77,-3.6596,-3.6325,-3.4383,-3.4141,-3.4716,-3.3454,-3.411,-3.5473,-3.4257,-3.4161,-3.4883,-3.6976,-3.7476,-3.7024,-3.5615,-3.4239,0.0,0.0,-3.2472,-3.2656,-3.3421,-3.3642,-3.3862,-3.4601,-3.4197,-3.3476,-3.2693,-3.2436,-3.1665,0.0,-2.6429,-2.485,-2.6327,0.0,-2.5081,-2.4373,-2.419,-2.3584,-2.2051,-2.107,-2.0503,-2.0503,-1.9785,-1.9297,-1.9297,-1.9297,-1.9297,-1.9297,-1.9297,-1.9297,-1.9297,-1.9334,-1.9711,-2.0493,-2.0503,0.0,0.0,0.0,0.0,0.0,0.0,0.0,0.0,0.0,0.0,0.0,0.0,0.0,0.0,0.0,0.0,0.0,0.0,0.0,0.0,0.0,0.0,0.0,0.0,0.0,0.0,0.0,0.0,-3.3077,-3.5112,0.0,-3.4047,-3.4423,-3.5143,-3.6005,-3.7156,-3.8312,-3.95,-4.0115,-4.07,-4.1258,-4.1316,-4.1489,-4.1788,-4.2354,-4.2354,-4.1808,-4.2681,-4.2931,-4.2624,-4.2066,-4.1788,-4.175,-4.0873,-4.0496,-4.0439,-3.9515,-3.8834,-3.825,-3.6976,-3.6559,-3.6642,-3.6473,-3.6728,-3.7138,-3.7007,-3.7071,-3.717,-3.6948,-3.6211,-3.5307,-3.4631,-3.4208,-3.3997,-3.4105,-3.4142,-3.4215,-3.4509,-3.4564,-3.4509,-3.427,-3.4009,-3.3715,-3.344,-3.2981,-3.2179,-3.0815,-2.8356,-2.6704,-2.7273,-2.5419,-2.4116,-2.486,-2.408,-2.3033,-2.1941,-2.1537,-2.1125,-2.0566,-1.9785,-1.9297,-1.9297,-1.9297,-1.9297,-1.9297,-1.9297,-1.9297,-1.9297,-1.9297,-1.9426,-1.9711,-1.973,-2.0262,0.0,0.0,0.0,0.0,0.0,0.0,0.0,0.0,0.0,0.0,0.0,0.0,0.0,0.0,0.0,0.0,0.0,0.0,0.0,0.0,0.0,0.0,0.0,0.0,0.0,0.0,-3.6103,-3.6635,-3.8238,-3.8834,-3.77,-3.7615,-3.8096,-3.92,-4.0085,-4.1066,-4.2181,-4.2239,-4.2374,-4.2643,-4.2251,-4.2098,-4.2231,-4.2961,-4.3096,-4.2662,-4.3403,-4.3491,-4.2916,-4.223,-4.1753,-4.1456,-4.0576,-4.0193,-4.0193,-4.0193,-3.9951,-3.9512,-3.8814,-3.8422,-3.8296,-3.8394,-3.8316,-3.8211,-3.8578,-3.8707,-3.8539,-3.7565,-3.6639,-3.5876,-3.5671,-3.5539,-3.5616,-3.6108,-3.605,-3.5903,-3.6178,-3.5848,-3.5298,-3.478,-3.4211,-3.3807,-3.3807,-3.3183,-3.2362,-3.1549,-2.9891,-2.8429,-2.7879,-2.6025,-2.4979,-2.6054,-2.4832,-2.3712,-2.3437,-2.2712,-2.1987,-2.141,-2.0372,-1.9693,-1.9693,-1.9976,-1.9903,-1.9334,-1.9829,-1.9885,-1.9315,-1.9565,-1.9693,-1.9693,-1.9693,-2.0244,-2.1363,0.0,0.0,0.0,0.0,0.0,0.0,0.0,0.0,0.0,0.0,0.0,0.0,0.0,0.0,0.0,0.0,0.0,0.0,0.0,0.0,0.0,0.0,0.0,-3.2949,-3.6642,-3.8681,-3.7115,-3.9846,-4.1219,-3.9611,-4.0912,-4.1885,-4.1885,-4.2701,-4.3181,-4.3181,-4.3143,-4.275,-4.1934,-4.2307,-4.2718,-4.3099,-4.3569,-4.3961,-4.4271,-4.4812,-4.4219,-4.2609,-4.2252,-4.1668,-4.0842,-3.9969,-3.9599,-3.9599,-3.9599,-3.9786,-4.0042,-3.9731,-3.9611,-3.9541,-3.8946,-3.8707,-3.8707,-3.8707,-3.8707,-3.8732,-3.9013,-3.9099,-3.9099,-3.9099,-3.854,-3.8045,-3.8556,-3.8138,-3.7713,-3.8469,-3.7496,-3.6285,-3.6266,-3.5018,-3.3825,-3.3807,-3.322,-3.2417,-3.1599,-3.0815,-2.9751,-2.8117,-2.7824,-2.7798,-2.7798,-2.6421,0.0,-2.6465,-2.4474,-2.3024,-2.3061,-2.1593,-2.0621,-2.0576,-2.1345,-2.1115,-1.9407,-2.0821,-2.0986,-1.937,-2.0052,-2.0456,-2.0456,-2.0493,-2.0503,-2.0503,0.0,0.0,0.0,0.0,0.0,0.0,0.0,0.0,0.0,0.0,0.0,0.0,0.0,0.0,0.0,0.0,0.0,0.0,0.0,0.0,0.0,0.0,-3.7065,-3.6661,-3.7603,-3.9315,-4.1893,-4.2527,-4.2797,-4.2912,-4.3335,-4.3605,-4.3605,-4.4412,-4.4921,-4.4921,-4.4316,-4.4045,-4.42,-4.3369,-4.3034,-4.3236,-4.3599,-4.3713,-4.3589,-4.4359,-4.4164,-4.3078,-4.2421,-4.1668,-4.0842,-3.9969,-3.9599,-3.9599,-3.9599,-3.9645,-3.9731,-3.9634,-3.9754,-3.988,-3.9236,-3.8869,-3.8707,-3.8707,-3.8707,-3.8704,-3.8788,-3.8933,-3.9058,-3.8869,-3.8799,-3.877,-3.8703,-3.8542,-3.8285,-3.7918,-3.7055,-3.6138,-3.55,-3.5004,-3.4509,-3.3935,-3.4069,-3.394,-3.2528,-3.2087,-3.1243,-2.9042,-2.8191,-2.7798,-2.7798,-2.6421,0.0,-2.5705,-2.4135,-2.3456,-2.4622,-2.3804,-2.296,-2.2364,-2.2529,-2.1712,-1.9444,-1.9738,-1.9774,-1.9315,-1.9517,-1.962,-1.962,-2.0199,-2.0503,0.0,0.0,0.0,0.0,0.0,0.0,0.0,0.0,0.0,0.0,0.0,0.0,0.0,0.0,0.0,0.0,0.0,0.0,0.0,0.0,0.0,0.0,-3.7957,-4.0131,-4.1046,-4.0873,-4.1546,-4.4008,-4.4528,-4.4739,-4.4836,-4.547,-4.5605,-4.4893,-4.5643,-4.599,-4.5614,-4.4759,-4.4527,-4.5047,-4.3981,-4.3524,-4.3805,-4.4018,-4.4049,-4.385,-4.4189,-4.3914,-4.3064,-4.2473,-4.1736,0.0,-4.0074,-3.972,-3.9701,-3.9346,-3.9288,0.0,0.0,0.0,0.0,0.0,-3.8829,-3.8707,-3.8707,-3.8707,-3.8707,-3.8707,-3.8803,-3.8909,-3.875,-3.8818,-3.8894,-3.8732,-3.8707,-3.8597,-3.812,-3.7147,-3.6174,-3.5679,-3.5004,-3.4362,-3.3899,-3.4174,-3.4124,-3.2839,-3.2601,0.0,-3.032,-2.9347,-2.8815,-2.8815,-2.7449,-2.6531,-2.6851,-2.5217,-2.4355,-2.5301,-2.4373,-2.3511,-2.3043,-2.3299,0.0,0.0,0.0,-2.0537,-1.9822,-2.016,0.0,0.0,0.0,-2.1051,-2.1051,0.0,0.0,0.0,-2.2786,-2.3171,0.0,0.0,0.0,0.0,0.0,0.0,0.0,0.0,0.0,0.0,0.0,0.0,0.0,0.0,0.0,0.0,-4.0419,-4.2209,-4.5441,-4.5143,-4.4566,-4.4451,-4.5893,-4.6567,-4.5691,-4.6951,-4.724,-4.5845,-4.6471,-4.6567,-4.5787,0.0,0.0,0.0,0.0,-4.4372,-4.4791,-4.4755,-4.4717,-4.4659,-4.4188,-4.3527,-4.2728,-4.2431,-4.1864,-4.1058,-4.0359,-3.9974,-3.9827,-3.9129,-3.8918,-3.9063,-3.9085,-3.9085,-3.9022,-3.8788,-3.8707,-3.8707,-3.8707,0.0,0.0,-3.8707,-3.8707,-3.8707,-3.8707,-3.8707,-3.8707,-3.8707,-3.8707,-3.8707,-3.8707,-3.7569,-3.6431,-3.6431,-3.522,-3.4045,-3.3954,-3.3935,-3.3697,-3.2894,-3.2729,-3.2485,-3.1659,-3.087,-3.0301,-3.021,-2.8906,-2.8154,-2.8785,-2.6924,-2.5576,-2.565,0.0,0.0,-2.3281,-2.3914,-2.3272,-2.0804,-2.2034,-2.2199,-2.0713,-2.1382,-2.1794,-2.1794,-2.1794,-2.1794,-2.1794,-2.1794,-2.2208,-2.3006,-2.3006,-2.3428,0.0,0.0,0.0,0.0,0.0,0.0,0.0,0.0,0.0,0.0,0.0,0.0,0.0,0.0,0.0,-4.0827,-4.3162,-4.5325,-4.7336,-4.6913,-4.6144,-4.5441,-4.6278,-4.6567,-4.5691,-4.5902,-4.624,-4.6624,-4.6797,-4.6836,-4.6663,-4.649,0.0,-4.6061,-4.6214,-4.6396,-4.6601,-4.5908,-4.5439,-4.5156,0.0,0.0,-4.24,-4.232,-4.1864,-4.1095,-4.093,-4.0506,-3.9882,-3.9717,-3.9323,-3.8803,-3.9027,-3.8975,-3.8777,-3.8719,-3.8707,-3.8707,-3.8707,-3.8707,-3.8707,-3.8707,-3.8707,-3.8707,-3.8707,-3.8707,0.0,-3.8707,-3.8707,-3.8707,-3.8707,-3.7991,-3.7272,-3.7272,-3.6505,-3.5624,-3.4912,-3.4766,-3.4527,-3.3733,-3.3568,-3.3311,-3.2522,-3.1696,-3.0944,-3.0301,-2.9372,-2.8583,-2.8099,-2.7053,-2.6612,-2.7265,-2.7053,-2.6347,-2.5044,-2.5081,-2.4126,-2.1702,-2.1849,-2.1886,-2.1555,-2.1702,-2.1794,-2.1794,-2.1794,-2.1794,-2.1794,-2.1794,-2.2208,-2.3006,-2.3006,-2.3428,0.0,0.0,0.0,0.0,0.0,0.0,0.0,0.0,0.0,0.0,0.0,-3.4462,0.0,0.0,-4.0893,-4.3865,-4.5759,-4.7144,-4.799,-4.8125,-4.7682,-4.6394,-4.6624,-4.674,-4.6297,-4.7009,-4.749,-4.7509,-4.7894,-4.7971,-4.7528,-4.7509,-4.752,-4.7549,-4.7116,-4.7157,-4.771,-4.6442,-4.5627,-4.5292,-4.4491,-4.3681,-4.2892,-4.2892,-4.2671,-4.2286,-4.1882,-4.1479,-4.1038,-4.023,-3.9423,-3.8704,-3.8859,-3.8833,-3.8707,-3.8707,-3.8707,-3.8707,-3.8707,-3.8707,-3.8707,-3.8707,-3.8707,-3.8707,-3.8707,-3.8707,-3.8707,-3.8707,-3.8707,-3.8707,-3.8707,-3.8102,-3.7492,-3.7492,-3.6905,-3.6064,-3.5188,-3.5004,-3.4766,-3.3972,-3.3807,-3.3678,-3.3275,-3.2871,-3.2045,-3.0448,-2.9849,-2.9299,-2.8503,-2.7695,-2.7346,-2.775,-2.7082,-2.6274,-2.5466,-2.4658,-2.3676,-2.2483,-2.2391,-2.2208,-2.1812,-2.2198,-2.2391,-2.2391,-2.2391,-2.2593,-2.3006,-2.3006,-2.3199,-2.3602,-2.3602,-2.3823,0.0,0.0,0.0,0.0,0.0,0.0,0.0,0.0,-3.3051,-3.4071,-3.5726,-3.7538,-3.9431,-4.1162,-4.3297,-4.6404,-4.7451,-4.799,-4.8317,-4.8682,-4.8355,-4.6836,-4.6797,-4.6827,-4.6663,-4.8029,-4.8682,-4.8144,-4.8913,-4.9086,-4.8394,-4.8355,-4.8518,-4.8896,-4.7914,-4.7822,-4.875,-4.7199,-4.6228,-4.5862,-4.516,-4.4429,-4.3718,-4.357,-4.3515,-4.346,-4.2488,-4.2066,-4.1937,-4.0322,-3.9276,-3.8707,-3.8707,-3.8799,-3.8909,-3.8762,-3.8707,-3.8707,-3.8707,-3.8707,-3.8707,-3.8707,-3.8707,-3.8707,-3.8707,-3.8707,-3.8707,-3.8707,-3.8707,-3.8707,-3.8707,-3.8212,-3.7731,-3.7731,-3.7125,-3.634,-3.5628,-3.5224,-3.4821,-3.4174,-3.3917,-3.3807,-3.3807,-3.3807,-3.3091,-3.098,-3.054,-3.0136,-2.9335,-2.8539,-2.797,-2.7824,-2.6641,-2.5742,-2.5429,-2.4061,-2.3226,-2.3226,-2.3226,-2.2942,-2.229,-2.2887,-2.3226,-2.3226,-2.3226,-2.3547,-2.419,-2.419,-2.4281,-2.4428,-2.4428,-2.4428,-2.786,-2.8562,-3.0056,-3.2401,-3.1939,-3.2486,0.0,0.0,-3.7299,-3.9805,-4.1337,-4.2104,-4.1604,-4.2893,-4.4643,-4.6586,-4.6981,-4.7548,-4.9048,-4.8067,-4.6817,-4.5864,-4.6432,-4.6605,-4.5825,-4.6624,-4.7451,-4.8048,-4.8913,-4.9356,-4.926,-4.924,-4.9288,-4.9336,-4.9183,-4.9548,-5.0411,-4.9167,-4.8365,-4.7947,-4.612,-4.5006,-4.4544,-4.3828,-4.3515,-4.3423,-4.1901,-4.1224,-4.1113,-3.9496,-3.8781,-3.8707,-3.8707,-3.9148,-3.968,-3.8964,-3.8707,-3.8707,-3.8707,-3.8707,-3.8707,-3.8707,-3.8707,-3.8707,-3.8707,-3.8707,-3.8707,-3.8707,-3.8707,-3.8707,-3.8707,-3.8634,-3.8579,-3.8579,-3.7936,-3.7345,-3.7235,-3.6064,-3.4968,-3.4876,-3.4302,-3.3807,-3.3807,-3.3807,-3.3476,-3.2472,-3.1715,-3.098,-3.0173,-2.9354,-2.8583,-2.789,-2.7651,-2.6953,-2.5521,-2.4585,-2.4061,-2.4061,-2.4061,-2.4025,-2.3933,-2.4025,-2.4061,-2.4061,-2.4061,-2.4116,-2.419,-2.419,-2.4566,-2.5264,-2.5264,-2.5264,-3.0289,-3.1327,-3.2504,0.0,-3.5154,-3.6342,-3.892,-3.9545,-3.9915,-4.1062,-4.2631,-4.3682,-4.3316,-4.4662,-4.6201,0.0,-4.8029,-4.8413,-4.8625,-4.7644,-4.6394,-4.5009,-4.4759,-4.4932,-4.5537,-4.6394,-4.7451,-4.8759,-4.9183,-4.9625,-5.0125,-5.0173,-5.0173,-5.0173,-4.9663,-4.9817,-5.0693,-4.9241,-4.8548,-4.8631,-4.7093,-4.6144,-4.5694,-4.4665,-4.3938,-4.346,-4.2782,-4.2231,-4.1754,-4.1075,-4.0524,-4.0086,-4.0086,-4.0304,-4.0451,-3.9166,-3.9001,-3.9331,-3.8854,-3.8707,-3.8707,-3.8707,-3.8707,-3.8707,-3.8707,-3.8707,-3.8707,-3.8707,-3.8707,-3.8707,-3.8707,-3.8707,-3.8707,-3.8707,-3.8432,-3.8065,-3.7603,-3.6578,-3.5771,-3.5771,-3.4706,-3.3954,-3.4417,-3.4119,-3.3697,-3.3348,-3.2614,-3.1641,-3.0356,-2.9916,-2.9219,-2.7945,-2.7798,-2.7155,-2.554,-2.5081,-2.4695,-2.4226,-2.419,-2.419,-2.419,-2.419,-2.442,-2.4897,-2.4897,-2.5136,-2.5603,-2.5603,-2.5768,-2.6098,-2.6098,-2.6337,-3.1788,0.0,0.0,-3.5782,-3.7939,-3.9732,-3.9627,-4.0961,-4.2235,-4.2328,-4.3398,-4.428,-4.4208,-4.5198,-4.6311,-4.7146,-4.7991,-4.8356,-4.7846,-4.7067,-4.5876,-4.4045,-4.3398,-4.3445,-4.4333,-4.5704,-4.724,-4.8913,-4.926,-4.9779,-5.0654,-5.0712,-5.0712,-5.0712,-5.0087,-5.0048,-5.0693,-4.9506,-4.8954,-4.9055,-4.794,-4.7155,-4.6628,-4.5529,-4.4599,-4.3809,-4.3606,-4.3039,-4.2286,-4.2066,-4.1627,-4.1095,-4.1095,-4.1242,-4.126,-3.9866,-3.9735,-4.012,-3.9313,-3.9038,-3.9001,-3.8781,-3.8707,-3.8707,-3.8707,-3.8707,-3.8707,-3.8707,-3.8707,-3.8707,-3.8707,-3.8707,-3.8707,-3.8707,-3.8707,-3.8542,-3.797,-3.7199,-3.6615,-3.6615,-3.5275,-3.4307,-3.4912,-3.4325,-3.3807,-3.3807,-3.3311,-3.2417,-3.1035,-3.0467,-2.9751,-2.8576,-2.8062,-2.7339,-2.6164,-2.5852,-2.5485,-2.4905,-2.4649,-2.463,-2.485,-2.4649,-2.4915,-2.5723,-2.5723,-2.6007,-2.6602,-2.6602,-2.6722,-2.6924,-2.6924,-2.7365,-3.1415,0.0,-3.5826,-3.7422,-3.9635,-4.1735,-4.288,-4.3844,-4.4581,-4.4927,-4.4624,-4.4217,-4.396,-4.3897,-4.4192,-4.5044,-4.5884,-4.6513,-4.6896,-4.6182,-4.4899,-4.2879,-4.2917,-4.2654,0.0,-4.3981,-4.6317,-4.8009,-4.8913,-4.9779,-5.0654,-5.0712,-5.0712,-5.0712,-5.0673,-5.0673,-5.0712,-5.0654,-5.0233,-4.948,-4.8655,-4.7841,-4.704,-4.6232,-4.5424,-4.4618,-4.3828,-4.3039,-4.2249,-4.1462,-4.1113,-4.1095,-4.1095,-4.1572,-4.2158,-4.1334,-4.104,-4.0948,-4.0139,-3.9845,-3.9717,-3.8946,-3.8707,-3.8707,-3.8707,-3.8707,-3.8707,-3.8707,-3.8707,-3.8707,-3.8707,-3.8707,-3.8707,-3.8707,-3.8707,-3.8689,-3.867,-3.8028,-3.7456,-3.7456,-3.6119,-3.4968,-3.5004,-3.4325,-3.3807,-3.3807,-3.377,-3.3458,-3.2619,-3.1182,-3.0173,-3.0136,-2.8723,-2.778,-2.7725,-2.7016,-2.6547,-2.6528,-2.5797,-2.5705,-2.6492,-2.5778,-2.5742,-2.6557,-2.6547,-2.6594,-2.6602,-2.6602,-2.6998,-2.775,-2.775,-2.8191,-3.377,0.0,-3.8132,-4.0287,-4.2228,-4.38,-4.4408,-4.4547,-4.4474,-4.4276,-4.3388,-4.2618,-4.253,-4.2485,-4.2926,-4.4335,-4.5774,-4.6935,-4.7587,-4.7432,-4.6386,-4.4008,-4.3831,0.0,0.0,0.0,0.0,-4.6734,-4.7225,-4.825,-5.0199,-5.0554,-5.0712,-5.0712,-5.0712,-5.0712,-5.0712,-5.0451,-5.0171,-4.9898,-4.907,-4.8142,-4.7094,-4.6819,-4.6269,-4.5461,-4.4654,-4.414,-4.3828,-4.302,-4.269,-4.269,-4.269,-4.2855,-4.3057,-4.2782,-4.269,-4.2415,-4.0543,-3.99,-3.9772,-3.8964,-3.8707,-3.8707,-3.8707,-3.8707,-3.8707,-3.8707,-3.8707,-3.8707,-3.8707,-3.8707,-3.8707,-3.8707,-3.8707,-3.8707,-3.8707,-3.8065,-3.7658,-3.8193,-3.6982,-3.6028,-3.656,-3.5991,-3.5459,-3.5459,-3.4064,-3.2913,-3.2619,-3.1201,-3.021,-3.021,-2.9237,-2.8374,-2.7842,-2.7548,-2.7163,-2.662,-2.6355,-2.6319,-2.6583,-2.6337,-2.6576,-2.7383,-2.7402,-2.7658,-2.8198,-2.8198,-2.8326,-2.8601,-2.8601,-2.873,-3.5973,-3.834,-4.0139,-4.2561,-4.4361,-4.5421,-4.4896,-4.4847,-4.4455,-4.2789,-4.1552,-4.0547,-3.9809,-3.9687,-4.0251,-4.1953,-4.3723,-4.5448,-4.7,-4.7201,-4.6674,-4.5208,-4.4888,0.0,0.0,0.0,0.0,-4.6352,-4.7101,-4.8165,-4.9759,-5.0381,-5.0712,-5.0712,-5.0712,-5.0712,-5.0712,-5.0294,-4.9962,-4.9659,-4.8994,-4.8291,-4.7516,-4.7516,-4.7076,-4.6305,-4.5773,-4.5223,-4.4672,-4.414,-4.3754,-4.3515,-4.3515,-4.3515,-4.3515,-4.3515,-4.3515,-4.3203,-4.1075,-4.0322,-4.0157,-3.9056,-3.8707,-3.8707,-3.8707,-3.8707,-3.8707,-3.8707,-3.8707,-3.8707,-3.8707,-3.8707,-3.8707,-3.8707,-3.8707,-3.8707,-3.8707,-3.8285,-3.8065,-3.8597,-3.7624,-3.6905,-3.7419,-3.6831,-3.6303,-3.6303,-3.4945,-3.3812,-3.35,-3.2051,-3.1072,-3.1072,-3.0338,-2.9531,-2.8723,-2.865,-2.8319,-2.7501,-2.72,-2.7163,-2.7446,-2.7181,-2.742,-2.8209,-2.8503,-2.8906,-2.9427,-2.9427,-2.9427,-2.9427,-2.9133,-2.9152,-3.7991,-4.0086,-4.1902,-4.4232,-4.5975,-4.6562,-4.453,-4.478,-4.4378,-4.0674,-3.9233,-3.8032,0.0,0.0,-3.6478,-3.8234,-4.0169,-4.2431,-4.5328,-4.5768,-4.5975,0.0,0.0,0.0,0.0,0.0,0.0,-4.6952,0.0,-4.9356,-4.9471,-5.025,-5.0731,-5.077,-5.0731,-5.0683,-5.0673,-5.0249,-4.9659,-4.8897,-4.8495,-4.8306,-4.8306,-4.8306,-4.7865,-4.7168,-4.7113,-4.6232,-4.4837,-4.4764,-4.4287,-4.3552,-4.3552,-4.3551,-4.3515,-4.3515,-4.3515,-4.3277,-4.1717,-4.1132,-4.0838,-3.9276,-3.8726,-3.8707,-3.8707,-3.8707,-3.8707,-3.8707,-3.8707,-3.8707,-3.8707,-3.8707,-3.8707,-3.8707,-3.8707,-3.8707,-3.8707,-3.8707,-3.8707,-3.8707,-3.8065,-3.7566,-3.7566,-3.6942,-3.6413,-3.6413,-3.6376,-3.6028,-3.5133,-3.3628,-3.2656,-3.2601,-3.188,-3.1091,-3.0338,-3.0228,-2.9886,-2.917,-2.8338,-2.8227,-2.9023,-2.8338,-2.8282,-2.9042,-2.9861,-3.0265,-3.0265,-3.0265,-3.0265,-3.0246,-2.9482,-2.9537,-4.0506,-4.2983,-4.4966,-4.6177,-4.6801,-4.6709,-4.5231,-4.3222,-4.1143,-3.9263,-3.6747,-3.4718,0.0,0.0,0.0,-3.849,-4.1293,0.0,-4.7059,-4.8009,0.0,0.0,0.0,-4.8856,-4.7473,-4.851,0.0,0.0,-4.8363,-4.8816,-5.0358,-5.0618,-5.0971,-5.1587,-5.101,-5.0554,-5.026,-4.9561,-4.9108,-4.8897,-4.8495,-4.8306,-4.8306,-4.8306,-4.8196,-4.7957,-4.7351,-4.6874,-4.6434,-4.5847,-4.5131,-4.4397,-4.4397,-4.403,-4.3515,-4.3515,-4.3515,-4.3368,-4.2341,-4.159,-4.093,-3.9918,-3.9184,-3.8707,-3.8707,-3.8707,-3.8707,-3.8707,-3.8707,-3.8707,-3.8707,-3.8707,-3.8707,-3.8707,-3.8707,-3.8707,-3.8707,-3.8707,-3.8707,-3.8707,-3.8524,-3.8395,-3.8395,-3.823,-3.8083,-3.8083,-3.7569,-3.6652,-3.5188,-3.4124,-3.3256,-3.2656,-3.188,-3.1323,-3.1121,-3.054,-3.0375,-3.076,-2.9475,-2.9042,-2.9849,-2.9696,-2.9677,-2.9886,-3.0687,-3.1091,-3.1091,-3.1091,-3.1091,-3.1091,-3.087,-3.0889,-4.3002,-4.5131,-4.6636,-4.7424,-4.7094,-4.6047,-4.4061,-4.1266,-3.8295,-3.5595,-3.3441,0.0,0.0,0.0,0.0,0.0,0.0,0.0,-4.6472,-4.7759,-4.8663,0.0,-5.0625,0.0,-5.0394,-5.106,-5.1255,0.0,-4.9923,-4.9805,-5.0418,-5.1145,-5.156,-5.1636,-5.1032,-5.0336,-4.9575,-4.9123,-4.8795,-4.8621,-4.8402,-4.8306,-4.8306,-4.8306,-4.8306,-4.8269,0.0,-4.7424,-4.7039,-4.6232,-4.5424,-4.4654,-4.4305,-4.3901,-4.3515,-4.3515,-4.3515,-4.3441,-4.2983,-4.2304,-4.1442,-4.0286,-3.9588,-3.9166,-3.8817,-3.8707,-3.8707,-3.8707,-3.8707,-3.8707,-3.8707,-3.8707,-3.8707,-3.8707,-3.8707,-3.8707,-3.8707,-3.8707,-3.8707,-3.8707,-3.8707,-3.8707,-3.8707,-3.8707,-3.8707,-3.8707,-3.8322,-3.7551,-3.6266,-3.5073,-3.4142,-3.3702,-3.2926,-3.2302,-3.1953,-3.1513,-3.1311,-3.1397,-3.0558,-3.0265,-3.0705,-3.0723,-3.0723,-3.0723,-3.1513,-3.1935,-3.1935,-3.1935,-3.1935,-3.1916,-3.1549,-3.1586,-4.5424,-4.6819,-4.7571,-4.8159,-4.7021,-4.4962,-4.205,-3.9118,-3.5774,-3.1379,0.0,-2.9304,-2.7886,0.0,-3.1761,-3.447,0.0,-3.9797,-4.4984,-4.6348,-4.8087,-5.15,-5.2,-5.2404,-5.3299,-5.2992,-5.2618,-5.2269,-5.2144,-5.158,-5.0405,-5.1718,-5.2106,-5.1262,-5.0738,-4.9962,-4.8913,-4.8846,-4.8639,-4.8306,-4.8306,-4.8306,-4.8306,-4.8306,-4.8306,-4.8306,0.0,0.0,-4.7204,-4.6507,-4.5681,-4.48,-4.4085,-4.3698,-4.3515,-4.3515,-4.3515,-4.3515,-4.3515,-4.3039,-4.2194,-4.0579,-4.0065,-3.9882,-3.8982,-3.8781,-3.8836,-3.8726,-3.8707,-3.8707,-3.8707,-3.8707,-3.8707,-3.8707,-3.8707,-3.8707,-3.8707,-3.8707,-3.8707,-3.8707,-3.8707,-3.8707,-3.8707,-3.8707,-3.8707,-3.8707,-3.8707,-3.845,-3.7749,-3.6211,-3.5133,-3.5023,-3.427,-3.3532,-3.2821,-3.2656,-3.2357,-3.1764,-3.1525,-3.1452,-3.1562,-3.1549,-3.1549,-3.1549,-3.2357,-3.2748,-3.2748,-3.2748,-3.2748,-3.2729,-3.2045,-3.2082,-4.7553,-4.8508,-4.9022,-4.8453,-4.6599,-4.4084,-4.0914,-3.7202,0.0,0.0,0.0,-2.7259,-2.7343,-2.9,0.0,-3.491,0.0,0.0,0.0,0.0,-4.7841,0.0,0.0,0.0,0.0,0.0,0.0,0.0,0.0,-5.273,-5.2175,-5.2074,-5.1639,-5.0822,-4.9765,-4.911,-4.8897,-4.8568,-4.8364,-4.8306,-4.8306,-4.8306,-4.8306,-4.8306,-4.8306,-4.8306,-4.8306,0.0,-4.8067,-4.7939,-4.7021,-4.5681,-4.5535,-4.4672,-4.3515,-4.3515,-4.3515,-4.3515,-4.3515,-4.3423,-4.302,-4.1423,-4.0875,-4.0618,-3.9148,-3.9166,-3.9551,-3.8891,-3.8707,-3.8707,-3.8707,-3.8707,-3.8707,-3.8707,-3.8707,-3.8707,-3.8707,-3.8707,-3.8707,-3.8707,-3.8707,-3.8707,-3.8707,-3.8707,-3.8707,-3.8707,-3.8707,-3.8652,-3.8505,-3.7074,-3.5807,-3.5078,-3.427,-3.3733,-3.3605,-3.2968,-3.2821,-3.3348,-3.2137,-3.1696,-3.2362,-3.2381,-3.2381,-3.2381,-3.3183,-3.3587,-3.3587,-3.3587,-3.3587,-3.3587,-3.344,-3.3458,-4.8508,-4.9591,-4.9903,-4.8618,-4.6177,-4.3002,-3.8946,0.0,0.0,0.0,-2.6043,-2.5356,-2.5721,0.0,0.0,0.0,0.0,0.0,0.0,0.0,0.0,0.0,0.0,0.0,0.0,0.0,0.0,0.0,0.0,-5.3014,-5.2567,-5.2333,-5.1753,-5.0781,-4.9942,-4.9223,-4.8586,-4.8402,-4.8306,-4.8306,-4.8306,-4.8306,-4.8306,-4.8306,-4.8306,-4.8306,-4.8306,0.0,-4.8269,-4.7846,-4.7204,-4.6489,-4.6067,-4.5168,-4.4121,-4.4121,-4.3864,-4.3515,-4.3515,-4.3515,-4.3313,-4.2121,-4.1425,-4.0875,-3.9698,-3.9294,-3.9276,-3.9313,-3.9019,-3.8799,-3.9221,-3.9019,-3.8707,-3.8707,-3.8707,-3.8707,-3.8707,-3.8707,-3.8707,-3.8707,-3.8707,-3.8707,-3.8707,-3.8707,-3.8707,-3.8707,-3.8707,-3.8707,-3.8707,-3.7661,-3.6597,-3.5771,-3.4931,-3.4252,-3.3844,-3.3458,-3.3385,-3.377,-3.3073,-3.2816,-3.322,-3.322,-3.322,-3.322,-3.3605,-3.3807,-3.3807,-3.3807,-3.3807,-3.3807,-3.3807,-3.3807,-4.8947,-5.005,-5.0178,-4.8691,-4.5626,-4.1754,-3.7,-3.2407,0.0,0.0,-2.4054,-2.3937,-2.4257,0.0,0.0,0.0,0.0,0.0,0.0,0.0,0.0,0.0,0.0,0.0,0.0,0.0,0.0,0.0,0.0,0.0,-5.266,-5.2494,-5.1989,-5.1098,-5.0527,-4.9788,-4.8838,-4.8838,-4.8746,-4.8581,-4.8581,-4.8489,-4.8306,-4.8306,-4.8306,-4.8306,-4.8306,0.0,0.0,-4.7608,-4.7259,-4.7039,-4.6416,-4.5681,-4.4947,-4.4746,-4.4305,-4.3718,-4.357,-4.3515,-4.3387,-4.2763,-4.2139,-4.1442,-4.0451,-3.9845,-3.957,-4.0029,-3.9601,-3.9168,-3.9756,-3.9326,-3.8747,-3.8713,-3.8707,-3.8707,-3.8707,-3.8707,-3.8707,-3.8707,-3.8707,-3.8707,-3.8707,-3.8707,-3.8707,-3.8707,-3.8707,-3.8707,-3.8707,-3.8138,-3.7456,-3.6633,-3.5775,-3.4949,-3.4137,-3.4229,-3.4174,-3.3825,-3.3972,-3.3972,-3.3807,-3.3807,-3.3807,-3.3807,-3.3807,-3.3807,-3.3807,-3.3807,-3.3807,-3.3807,-3.3807,-3.3807,-4.9017,-4.9647,-4.9482,-4.8545,-4.4764,-4.0185,-3.5754,0.0,0.0,-2.466,-2.3628,-2.3434,-2.3942,-2.4705,-2.6276,0.0,0.0,-3.3559,0.0,0.0,0.0,0.0,0.0,0.0,0.0,0.0,0.0,0.0,0.0,0.0,-5.3141,-5.2445,-5.2002,-5.1885,-5.1136,-5.0677,-5.0582,-5.0582,-5.0196,-4.9482,-4.9482,-4.9058,-4.8306,-4.8306,-4.8306,-4.8306,-4.8306,0.0,0.0,-4.8233,-4.7755,-4.7094,-4.7021,-4.6507,-4.57,-4.4984,-4.4636,-4.4488,-4.3754,-4.3515,-4.3496,-4.3423,-4.3332,-4.2983,-4.146,-4.146,-4.1827,-4.1168,-4.0538,-4.0039,-3.9916,-3.9445,-3.8917,-3.8727,-3.8707,-3.8707,-3.8707,-3.8707,-3.8707,-3.8707,-3.8707,-3.8707,-3.8707,-3.8707,-3.8707,-3.8707,-3.8707,-3.8707,-3.8707,-3.8634,-3.8285,-3.7474,-3.6666,-3.5826,-3.4968,-3.5624,-3.5422,-3.3899,-3.4491,-3.4564,-3.3825,-3.3807,-3.3807,-3.3807,-3.3807,-3.3807,-3.3807,-3.3807,-3.3807,-3.3807,-3.3807,-3.3807,-4.6819,-4.8972,-4.9884,-4.803,-4.4306,-3.982,-3.4978,0.0,-2.668,-2.3807,-2.2916,-2.2773,-2.3141,-2.397,-2.541,-2.7857,-2.8815,0.0,0.0,0.0,0.0,0.0,0.0,0.0,0.0,0.0,0.0,0.0,0.0,0.0,-5.3185,-5.2913,-5.2509,-5.2013,-5.1683,-5.1279,-5.0802,-5.0802,-5.0398,-4.961,-4.961,-4.9132,-4.8306,-4.8306,-4.8306,-4.8306,-4.8306,0.0,0.0,-4.8306,-4.8122,-4.781,-4.781,-4.7314,-4.6526,-4.5718,-4.5131,-4.458,-4.3773,-4.3515,-4.3515,-4.3515,-4.3515,-4.3277,-4.2158,-4.1717,-4.1625,-4.1791,-4.0961,-4.0045,-4.0122,-3.9242,-3.8416,-3.8786,-3.8796,-3.8707,-3.8707,-3.8449,-3.8316,-3.8643,-3.8449,-3.8316,-3.8643,-3.8707,-3.8707,-3.8707,-3.8707,-3.8707,-3.8707,-3.8707,-3.8579,-3.8267,-3.7511,-3.6703,-3.5862,-3.6101,-3.5789,-3.4601,-3.4821,-3.4637,-3.3825,-3.4284,-3.4289,-3.3807,-3.427,-3.427,-3.3807,-3.355,-3.3451,-3.3451,-3.3451,-3.3451,-4.3464,-4.6291,-4.786,-4.65,-4.2667,-3.8142,0.0,0.0,-2.5592,-2.3093,-2.244,-2.2363,-2.255,-2.3583,-2.4943,-2.6652,-2.7885,-3.0194,0.0,0.0,0.0,0.0,0.0,0.0,0.0,0.0,0.0,0.0,0.0,0.0,0.0,-5.3185,-5.2949,-5.2362,-5.2344,-5.2087,-5.1518,-5.1279,-5.0747,-4.9939,-4.9721,-4.9132,-4.8306,-4.8306,-4.8306,-4.8306,0.0,0.0,0.0,-4.8306,-4.8306,-4.8306,-4.8306,-4.7957,-4.7333,-4.6287,-4.5535,-4.4911,-4.3846,-4.3515,-4.3515,-4.3515,-4.3515,-4.3404,-4.2818,-4.2268,-4.1882,-4.2213,-4.1177,-3.9991,-4.004,-3.9192,-3.842,-3.8725,-3.8669,-3.8527,-3.8289,-3.7964,-3.7808,-3.8185,-3.8065,-3.8013,-3.8399,-3.8465,-3.8465,-3.8465,-3.8465,-3.8465,-3.8465,-3.8611,-3.8707,-3.8707,-3.8193,-3.7529,-3.6721,-3.6872,-3.6541,-3.5445,-3.561,-3.5371,-3.4578,-3.5078,-3.504,-3.4323,-3.4765,-3.458,-3.3749,-3.3382,-3.3139,-3.2999,-3.3139,-3.3258,-3.9082,-4.0958,-4.2391,-4.3626,-3.9406,-3.4389,0.0,0.0,-2.4576,-2.2683,-2.231,-2.2296,-2.231,-2.345,-2.4759,-2.5837,-2.8584,0.0,0.0,0.0,0.0,0.0,0.0,0.0,0.0,0.0,0.0,0.0,0.0,0.0,0.0,-5.3185,-5.3185,-5.3206,-5.3206,-5.3167,-5.3167,-5.238,-5.1573,-5.0784,-4.9996,-4.9132,-4.8306,-4.8306,-4.8306,0.0,0.0,0.0,0.0,-4.8306,-4.8306,-4.8306,-4.8306,-4.8306,-4.8104,-4.6489,-4.5883,-4.5663,-4.4048,-4.3515,-4.3515,-4.3515,-4.3515,-4.3515,-4.3496,-4.3478,-4.3296,-4.2525,-4.1285,-4.0074,-3.9552,-3.9393,-3.9199,-3.8477,-3.832,-3.8109,-3.7369,-3.7209,-3.7209,-3.721,-3.7578,-3.7893,-3.7911,-3.7893,-3.7893,-3.7893,-3.7893,-3.7893,-3.7893,-3.8366,-3.8707,-3.8707,-3.8689,-3.8358,-3.7566,-3.8212,-3.7991,-3.6376,-3.7033,-3.7107,-3.6303,-3.6266,-3.6021,-3.5495,-3.517,-3.454,-3.3598,-3.3326,-3.2968,-3.2517,-3.2983,-3.3404,-3.3741,-3.5954,-3.7381,-3.7236,-3.4534,-3.138,-2.9357,0.0,-2.4004,-2.2823,-2.256,-2.256,-2.256,-2.3305,-2.4681,-2.7059,-2.9059,0.0,0.0,0.0,0.0,0.0,0.0,0.0,0.0,0.0,0.0,0.0,0.0,0.0,0.0,-5.3185,-5.3185,-5.3185,-5.3185,-5.2949,-5.238,-5.2123,-5.1316,-4.9996,-4.9721,-4.9132,-4.8306,-4.8306,0.0,0.0,0.0,0.0,0.0,-4.8306,-4.8306,-4.8306,-4.8306,-4.8306,-4.8122,-4.6489,-4.5902,-4.5663,-4.4048,-4.3515,-4.3515,-4.3515,-4.325,-4.3014,-4.3392,-4.3515,-4.3262,-4.2032,-4.083,-3.9876,-3.9656,-3.9229,-3.8798,-3.8554,-3.8392,-3.8107,-3.735,-3.6921,-3.6901,-3.7784,-3.7371,-3.714,-3.8033,-3.7753,-3.7415,-3.7415,-3.7415,-3.7415,-3.7415,-3.7843,-3.8148,-3.8148,-3.8481,-3.8597,-3.834,-3.856,-3.8089,-3.6662,-3.681,-3.6427,-3.5251,-3.5717,-3.5684,-3.4976,-3.5381,-3.5188,-3.4359,-3.3987,-3.3492,-3.2824,-3.2441,-3.2483,0.0,-3.1236,-3.2912,-3.2869,-3.0953,0.0,0.0,0.0,-2.3709,-2.2881,-2.281,-2.2898,-2.2898,-2.3584,-2.4883,-2.7139,-2.91,0.0,0.0,0.0,0.0,0.0,0.0,0.0,0.0,0.0,0.0,0.0,0.0,0.0,0.0,-5.2747,-5.2619,-5.2307,-5.2601,-5.2362,-5.1555,-5.1263,-5.0602,-4.961,-4.928,-4.882,-4.8306,-4.8306,0.0,0.0,0.0,0.0,0.0,-4.8306,-4.8306,-4.8306,-4.8306,-4.8306,-4.8122,-4.6489,-4.5902,-4.5663,-4.4048,-4.3515,-4.3515,-4.3515,-4.3142,-4.2713,-4.2828,-4.2777,-4.2432,-4.1082,-4.0249,-3.9749,-3.9703,-3.9445,-3.9026,-3.8482,-3.8437,-3.8303,-3.7283,-3.7007,-3.7197,-3.7992,-3.7658,-3.7401,-3.7907,-3.7619,-3.7218,-3.6937,-3.6902,-3.6902,-3.6902,-3.7341,-3.7632,-3.7632,-3.7929,-3.8135,-3.8135,-3.8302,-3.7967,-3.6951,-3.6897,-3.6506,-3.5667,-3.6127,-3.6052,-3.5351,-3.5697,-3.5481,-3.461,-3.4088,-3.3687,-3.3398,-3.2896,-3.2772,0.0,-2.6742,0.0,0.0,0.0,0.0,0.0,0.0,0.0,-2.2877,-2.2984,-2.3236,-2.3378,-2.4239,-2.5372,-2.6686,-2.9063,0.0,0.0,0.0,0.0,0.0,0.0,0.0,0.0,0.0,0.0,0.0,0.0,0.0,0.0,-5.1995,-5.161,-5.0747,-5.1444,-5.1463,-5.0729,-4.9958,-4.9574,-4.95,-4.8691,-4.8306,-4.8306,-4.8306,0.0,0.0,0.0,0.0,0.0,-4.8306,-4.8306,-4.8306,-4.8306,-4.8306,-4.8122,-4.6562,-4.5993,-4.5755,-4.414,-4.3589,-4.3571,-4.3463,-4.3105,-4.2559,-4.1866,-4.1533,-4.1112,-3.9926,-3.966,-3.9721,-3.9721,-3.9911,-3.974,-3.8328,-3.8497,-3.8599,-3.7202,-3.7415,-3.7922,-3.7973,-3.8282,-3.8333,-3.7733,-3.7525,-3.7249,-3.6609,-3.6402,-3.635,-3.6419,-3.6858,-3.7135,-3.7135,-3.719,-3.7173,-3.7152,-3.7578,-3.7649,-3.7173,-3.7135,-3.7133,-3.7078,-3.7078,-3.6845,-3.6354,-3.6048,-3.5449,-3.4573,-3.3846,-3.3707,-3.4133,-3.4064,-3.3881,-2.0179,0.0,-2.2945,-2.263,-2.2937,-2.3168,0.0,0.0,0.0,0.0,0.0,0.0,0.0,-2.5328,-2.6502,-3.0241,-3.1572,0.0,0.0,0.0,0.0,0.0,0.0,0.0,0.0,0.0,0.0,0.0,0.0,0.0,0.0,-5.1995,-5.1334,-4.9941,-5.0069,-5.0069,-4.9886,-4.9702,-4.928,-4.86,-4.8398,-4.8306,-4.8306,-4.8306,0.0,0.0,0.0,0.0,-4.8306,-4.8306,-4.8306,-4.8306,-4.8306,-4.8306,-4.8196,-4.7168,-4.6819,-4.6581,-4.4984,-4.4415,-4.4234,-4.3213,-4.2807,-4.2392,-4.0762,-4.063,-4.0958,-4.0667,-4.0283,-4.0007,-4.0007,-4.006,-3.9876,-3.8954,-3.887,-3.8751,-3.7838,-3.7787,-3.8075,-3.8633,-3.8381,-3.8204,-3.8578,-3.771,-3.7104,-3.7506,-3.6531,-3.6009,-3.6644,-3.6628,-3.66,-3.66,-3.696,-3.702,-3.6623,-3.7058,-3.7135,-3.6623,-3.66,-3.6416,-3.5989,-3.5968,-3.592,-3.5805,-3.571,-3.556,-3.5329,-3.4607,-3.4299,-3.4393,-3.3832,-3.3519,-1.8403,-2.001,-2.1637,-2.1357,-2.2054,-2.2756,-2.2521,0.0,0.0,0.0,0.0,0.0,0.0,0.0,0.0,0.0,0.0,0.0,0.0,0.0,0.0,0.0,0.0,0.0,0.0,0.0,0.0,0.0,0.0,0.0,0.0,-5.0914,-5.0326,-4.904,-4.9003,-4.9003,-4.9003,-4.9003,-4.8765,-4.8306,-4.8306,-4.8306,-4.8306,-4.8306,-4.8306,0.0,0.0,0.0,-4.8306,-4.8306,-4.8306,-4.8306,-4.8306,-4.8306,-4.8214,-4.7388,-4.7094,-4.6874,-4.526,-4.447,-4.3942,-4.2685,-4.2282,-4.1991,-4.0406,-4.022,-4.046,-4.0117,-4.0063,-4.0096,-4.0096,-4.0096,-3.991,-3.9174,-3.9242,-3.9292,-3.8565,-3.8667,-3.9022,-3.9436,-3.9174,-3.892,-3.8988,-3.8328,-3.7821,-3.7889,-3.7172,-3.68,-3.7246,-3.6877,-3.6581,-3.6581,-3.6498,-3.6336,-3.6054,-3.6522,-3.6603,-3.6075,-3.6032,-3.5898,-3.5622,-3.56,-3.56,-3.56,-3.56,-3.56,-3.56,-3.5194,-3.5013,-3.5013,-3.4607,-3.4235,-1.807,-2.0335,-2.2578,-2.2348,-2.2959,-2.3682,-2.3854,0.0,0.0,0.0,0.0,0.0,0.0,0.0,0.0,0.0,0.0,0.0,0.0,0.0,0.0,0.0,0.0,0.0,0.0,0.0,0.0,0.0,0.0,0.0,0.0,-4.961,-4.9187,-4.8343,-4.8306,-4.8306,-4.8306,-4.8306,-4.8306,-4.8306,-4.8306,-4.8306,-4.8306,-4.8306,-4.8306,0.0,0.0,0.0,-4.8306,-4.8306,-4.8306,-4.8306,-4.8306,-4.8306,-4.8233,-4.7516,-4.7278,-4.7039,-4.5425,-4.436,-4.3486,-4.232,-4.1874,-4.1617,-4.0546,-4.0154,-3.9977,-3.9326,-3.9622,-4.0096,-4.0096,-4.0096,-3.9943,-3.9334,-3.9656,-3.9943,-3.9292,-3.9673,-4.0096,-4.0096,-4.0096,-3.991,-3.9276,-3.9056,-3.8819,-3.8311,-3.8041,-3.7939,-3.8058,-3.7313,-3.6795,-3.6795,-3.6079,-3.56,-3.56,-3.6097,-3.6203,-3.5761,-3.5717,-3.5689,-3.56,-3.56,-3.56,-3.56,-3.56,-3.56,-3.56,-3.56,-3.56,-3.56,-3.56,-3.5261,-1.9309,-2.187,-2.3478,-2.0627,-2.2353,-2.4514,-2.3612,-2.3796,0.0,0.0,0.0,0.0,0.0,0.0,0.0,0.0,0.0,0.0,0.0,0.0,0.0,0.0,0.0,0.0,0.0,0.0,0.0,0.0,0.0,0.0,0.0,0.0,-4.9187,-4.8343,-4.8306,-4.8306,-4.8306,-4.8306,-4.8306,-4.8306,-4.8306,-4.8306,-4.8306,-4.8306,-4.8306,0.0,0.0,-4.8306,-4.8306,-4.8306,-4.8306,-4.8306,-4.8306,-4.8306,-4.8306,-4.8159,-4.8122,-4.7902,-4.6269,-4.5186,-4.4308,-4.2987,-4.2221,-4.1664,-4.099,-4.0449,-4.0079,-3.996,-4.0011,-4.0096,-4.0096,-4.0096,-4.0079,-3.996,-4.0028,-4.0079,-3.996,-4.0028,-4.0096,-4.0096,-4.0096,-4.0062,-3.996,-3.9394,-3.9157,-3.969,-3.87,-3.8125,-3.8751,-3.7642,-3.6795,-3.6795,-3.6079,-3.56,-3.56,-3.6097,-3.6354,-3.6287,-3.6287,-3.6075,-3.5622,-3.56,-3.56,-3.56,-3.56,-3.56,-3.56,-3.56,-3.56,-3.56,-3.56,-3.5532,-1.8628,-2.1011,-2.2986,-2.1572,-2.4386,-2.7243,-2.632,-2.6267,0.0,0.0,0.0,0.0,0.0,0.0,0.0,0.0,0.0,0.0,0.0,0.0,0.0,0.0,0.0,0.0,0.0,0.0,0.0,0.0,0.0,0.0,0.0,0.0,-4.871,-4.8324,-4.8306,-4.8306,-4.8306,-4.8306,-4.8306,-4.8306,-4.8306,-4.8306,-4.8306,-4.8306,-4.8306,-4.8306,0.0,-4.8306,-4.8306,-4.8306,-4.8306,-4.8306,-4.8306,-4.8306,-4.8306,-4.8306,-4.7755,-4.6893,-4.6159,-4.5094,-4.3851,-4.2609,-4.2038,-4.1621,-4.0744,-4.0286,-4.0096,-4.0096,-4.0096,-4.0096,-4.0096,-4.0096,-4.0096,-4.0096,-4.0096,-4.0096,-4.0096,-4.0096,-4.0096,-4.0096,-4.0096,-4.0096,-4.0096,-3.9825,-3.9723,-4.0045,-3.9512,-3.9208,-3.9554,-3.8657,-3.7821,-3.7432,-3.6705,-3.6079,-3.5633,-3.6097,-3.6395,-3.6395,-3.6395,-3.6161,-3.5622,-3.56,-3.56,-3.56,-3.56,-3.56,-3.56,-3.56,-3.56,-3.56,-3.56,-3.56,-1.8222,-2.045,-2.2743,-2.3002,-2.5808,-2.8582,-2.88,-2.8506,-2.8457,0.0,0.0,0.0,0.0,0.0,0.0,0.0,0.0,0.0,0.0,0.0,0.0,0.0,0.0,0.0,0.0,0.0,0.0,0.0,0.0,0.0,0.0,0.0,-4.8306,-4.8306,-4.8306,-4.8306,-4.8306,-4.8306,-4.8306,-4.8306,-4.8306,-4.8306,-4.8306,-4.8306,-4.8306,-4.8306,-4.8104,-4.8012,-4.8012,-4.7829,-4.7865,-4.8012,-4.8012,-4.8141,-4.8288,-4.8104,-4.7276,-4.6211,-4.5827,-4.493,-4.3665,-4.2307,-4.1877,-4.1678,-4.0683,-4.0248,-4.0146,-4.0316,-4.0231,-4.0096,-4.0096,-4.0096,-4.0096,-4.0096,-4.0096,-4.0096,-4.0096,-4.0096,-4.0096,-4.0096,-4.0096,-4.0096,-4.0096,-4.0096,-4.0096,-4.0096,-4.0096,-4.0096,-4.0096,-3.9469,-3.8768,-3.8227,-3.7483,-3.6791,-3.6106,-3.6264,-3.6395,-3.6395,-3.6395,-3.6161,-3.5622,-3.56,-3.56,-3.56,-3.56,-3.56,-3.56,-3.56,-3.56,-3.56,-3.56,-3.56,-1.9461,-2.1772,-2.3815,-2.3892,-2.4629,-2.6115,-2.9187,-2.9151,-2.9295,-3.2166,0.0,0.0,0.0,0.0,0.0,0.0,0.0,0.0,0.0,0.0,0.0,0.0,0.0,0.0,0.0,0.0,0.0,0.0,0.0,0.0,0.0,0.0,0.0,-4.8306,-4.8306,-4.8306,-4.8306,-4.8306,-4.8306,-4.8306,-4.8306,-4.8306,-4.8306,-4.8306,-4.8306,-4.8269,-4.7498,-4.7186,-4.7131,-4.6379,-4.6526,-4.7186,-4.7186,-4.7626,-4.8214,-4.7461,-4.7244,-4.709,-4.5646,-4.5111,-4.4744,-4.2724,-4.207,-4.195,-4.1308,-4.0629,-4.0248,-4.0933,-4.0629,-4.0096,-4.0096,-4.0096,-4.0096,-4.0096,-4.0096,-4.0096,-4.0096,-4.0096,-4.0096,-4.0096,-4.0096,-4.0096,-4.0096,-4.0096,-4.0096,-4.0096,-4.0096,-4.0096,-4.0096,-3.9469,-3.8971,-3.892,-3.8261,-3.7693,-3.7396,-3.6772,-3.6395,-3.6395,-3.6395,-3.6161,-3.5622,-3.56,-3.56,-3.56,-3.56,-3.56,-3.56,-3.56,-3.56,-3.56,-3.56,-3.56,-1.8476,-2.0726,-2.303,-2.3502,-2.506,-2.7143,-2.9583,-3.1598,-3.3291,-3.4362,-3.6185,0.0,0.0,0.0,0.0,0.0,0.0,0.0,0.0,0.0,0.0,0.0,0.0,0.0,0.0,0.0,0.0,0.0,0.0,0.0,0.0,0.0,0.0,-4.6819,-4.6819,-4.6819,-4.6819,-4.6819,-4.6819,-4.6819,-4.7296,-4.7297,-4.6819,-4.6819,-4.6819,-4.6764,-4.6132,-4.5868,-4.5812,-4.5109,-4.5021,-4.5309,-4.5309,-4.604,-4.7042,-4.6273,-4.5996,-4.5864,-4.4856,-4.4463,-4.4195,-4.2612,-4.2109,-4.2075,-4.1937,-4.1356,-4.0933,-4.1677,-4.1677,-4.1339,-4.0899,-4.0426,-4.0096,-4.0096,-4.0096,-4.0096,-4.0096,-4.0096,-4.0096,-4.0096,-4.0096,-4.0096,-4.0096,-4.0096,-4.0096,-4.0096,-4.0096,-4.0096,-4.0096,-3.9859,-3.9634,-3.9506,-3.8425,-3.7327,-3.6398,-3.6051,-3.5898,-3.5898,-3.6224,-3.6161,-3.5622,-3.56,-3.56,-3.56,-3.56,-3.56,-3.56,-3.56,-3.56,-3.56,-3.56,-3.56,-1.78,-1.9729,-2.1939,-2.2829,-2.5217,-2.7902,-3.0033,-3.3029,-3.5675,-3.6791,-3.8769,-4.0029,0.0,0.0,0.0,0.0,0.0,0.0,0.0,0.0,0.0,0.0,0.0,0.0,0.0,0.0,0.0,0.0,0.0,0.0,0.0,0.0,0.0,0.0,-4.5902,-4.5902,-4.5902,-4.5902,-4.5773,-4.5535,-4.5919,-4.6029,-4.5902,-4.5902,-4.5902,-4.5865,-4.5064,-4.472,-4.4662,-4.3797,-4.3594,-4.3806,-4.3806,-4.4741,-4.5935,-4.4954,-4.4723,-4.4853,-4.4097,-4.3828,-4.3663,-4.2777,-4.2515,-4.2542,-4.2622,-4.2134,-4.1694,-4.2439,-4.2472,-4.2236,-4.1982,-4.1339,-4.0807,-4.0807,-4.062,-4.0468,-4.0468,-4.0265,-4.0096,-4.0096,-4.0096,-4.0096,-4.0096,-4.0096,-4.0096,-4.0096,-4.0096,-4.0096,-4.0096,-3.991,-3.96,-3.925,-3.8097,-3.698,-3.6073,-3.5735,-3.56,-3.56,-3.5941,-3.5968,-3.5622,-3.56,-3.56,-3.56,-3.56,-3.56,-3.56,-3.56,-3.56,-3.56,-3.56,-3.56,-1.7817,-1.9138,-2.0816,-2.2038,0.0,0.0,-3.0609,-3.3002,-3.569,-3.9535,-4.0737,-4.0857,-4.0065,0.0,0.0,0.0,0.0,0.0,0.0,0.0,0.0,0.0,0.0,0.0,0.0,0.0,0.0,0.0,0.0,0.0,0.0,0.0,0.0,0.0,-4.5883,-4.5883,-4.5883,-4.5883,-4.548,-4.4673,-4.4138,-4.4575,-4.5883,-4.5865,-4.5847,-4.5792,-4.4445,-4.3868,-4.3774,-4.2362,-4.2253,-4.2987,-4.2987,-4.3926,-4.5073,-4.3554,-4.357,-4.4254,-4.3534,-4.3331,-4.3392,-4.3375,-4.3375,-4.3392,-4.3392,-4.2912,-4.2455,-4.3217,-4.2895,-4.2489,-4.3206,-4.2878,-4.2303,-4.2286,-4.1745,-4.1221,-4.1204,-4.0612,-4.0113,-4.0096,-4.0096,-4.0096,-4.0096,-4.0096,-4.0096,-4.0096,-4.0096,-4.0096,-4.0096,-3.9453,-3.87,-3.7973,-3.7252,-3.6795,-3.6795,-3.6062,-3.56,-3.56,-3.56,-3.56,-3.56,-3.56,-3.56,-3.56,-3.56,-3.56,-3.56,-3.56,-3.56,-3.56,-3.56,-3.56,-1.8572,-2.0269,0.0,-2.4194,0.0,0.0,0.0,-3.4709,0.0,0.0,-4.1502,-4.1187,0.0,0.0,0.0,0.0,0.0,0.0,0.0,0.0,0.0,0.0,0.0,0.0,0.0,0.0,0.0,0.0,0.0,0.0,0.0,0.0,0.0,0.0,-4.4195,-4.4195,-4.4195,-4.4195,-4.4085,-4.3846,-4.3303,-4.3277,-4.3647,-4.3204,-4.3025,-4.2967,-4.2149,-4.1802,-4.1718,-4.0924,-4.104,-4.1675,-4.115,-4.1871,-4.3074,-4.2087,-4.2236,-4.2833,-4.2083,-4.2522,-4.3308,-4.2794,-4.298,-4.3521,-4.4062,-4.3707,-4.325,-4.4012,-4.4107,-4.3988,-4.4181,-4.4062,-4.365,-4.2557,-4.2117,-4.183,-4.1322,-4.1035,-4.0713,-4.0197,-4.0096,-4.0096,-4.0096,-4.0096,-4.0096,-4.0096,-4.0096,-3.991,-3.9402,-3.9029,-3.8351,-3.7265,-3.7273,-3.6962,-3.6034,-3.5735,-3.56,-3.56,-3.56,-3.56,-3.56,-3.56,-3.56,-3.56,-3.56,-3.56,-3.56,-3.56,-3.56,-3.56,-3.56,-3.56,-1.8826,-2.0683,0.0,-2.5437,-2.8647,-3.1824,-3.4218,0.0,0.0,0.0,0.0,0.0,0.0,0.0,0.0,0.0,0.0,0.0,0.0,0.0,0.0,0.0,0.0,0.0,0.0,0.0,0.0,0.0,0.0,0.0,0.0,0.0,0.0,0.0,-4.2708,-4.269,-4.302,-4.302,-4.2898,-4.2649,-4.215,-4.192,-4.1979,-4.1853,-4.181,-4.1768,-4.1155,-4.078,-4.0552,-4.0229,-4.0367,-4.0713,-4.0282,-4.0823,-4.1762,-4.1018,-4.1221,-4.1796,-4.1356,-4.1982,-4.2946,-4.2794,-4.325,-4.3961,-4.4462,-4.4248,-4.3978,-4.4479,-4.4615,-4.4615,-4.4615,-4.4615,-4.4293,-4.3031,-4.2743,-4.2455,-4.1424,-4.1204,-4.0984,-4.0248,-4.0096,-4.0096,-4.0096,-4.0096,-4.0096,-4.0096,-3.9859,-3.93,-3.8268,-3.8025,-3.7535,-3.6446,-3.6625,-3.6485,-3.5678,-3.56,-3.56,-3.56,-3.56,-3.56,-3.56,-3.56,-3.56,-3.56,-3.56,-3.56,-3.56,-3.56,-3.56,-3.56,-3.56,-3.56,-1.8792,0.0,0.0,-2.6149,-2.9262,0.0,-3.5076,0.0,0.0,0.0,0.0,0.0,0.0,0.0,0.0,0.0,0.0,0.0,0.0,0.0,0.0,0.0,0.0,0.0,0.0,0.0,0.0,0.0,0.0,0.0,0.0,0.0,0.0,-4.2176,-4.148,-4.1444,-4.2176,-4.2194,-4.1882,0.0,-4.0822,-4.0637,-4.0718,-4.1284,-4.159,-4.1599,-4.1064,-4.0552,-4.0096,-4.0096,-4.0096,-4.0096,-4.0096,-4.0493,-4.1018,-4.0367,-4.051,-4.1119,-4.1187,-4.1677,-4.2422,-4.3139,-4.3893,-4.4513,-4.4581,-4.4564,-4.4513,-4.4581,-4.4564,-4.4513,-4.4581,-4.4564,-4.4282,-4.3504,-4.3341,-4.3003,-4.161,-4.1255,-4.0984,-4.0248,-4.0096,-4.0096,-4.0096,-4.0096,-4.0079,-4.0011,-3.9385,-3.8379,-3.6981,-3.6745,-3.64,-3.5667,-3.56,-3.56,-3.56,-3.56,-3.56,-3.56,-3.56,-3.56,-3.56,-3.56,-3.56,-3.56,-3.56,-3.56,-3.56,-3.56,-3.56,-3.56,-3.56,-3.56,-1.9558,-2.1165,0.0,0.0,-3.1596,-3.4996,0.0,0.0,0.0,0.0,0.0,0.0,0.0,0.0,0.0,0.0,0.0,0.0,0.0,0.0,0.0,0.0,0.0,0.0,0.0,0.0,0.0,0.0,0.0,0.0,0.0,0.0,0.0,-4.1352,-4.1187,-4.1168,-4.1352,-4.1352,-4.1096,0.0,-4.0018,-3.9543,-3.9175,-3.9467,-3.9918,-4.0466,-4.0336,-4.0204,-4.0096,-4.0096,-4.0096,-4.0096,-4.0096,-4.0197,-4.0333,-4.0163,-4.0197,-4.0434,-4.1001,-4.1677,-4.2422,-4.3139,-4.3511,-4.3792,-4.4429,-4.4147,-4.3792,-4.4429,-4.4147,-4.3809,-4.4445,-4.413,-4.347,-4.2726,-4.298,-4.3139,-4.2252,-4.161,-4.0984,-4.0248,-4.0096,-4.0096,-4.0096,-4.0096,-3.991,-3.9309,-3.8616,-3.7804,-3.6931,-3.6248,-3.5785,-3.5616,-3.56,-3.56,-3.56,-3.56,-3.56,-3.56,-3.56,-3.56,-3.56,-3.56,-3.56,-3.56,-3.56,-3.56,-3.56,-3.56,-3.56,-3.56,-3.56,-3.56,-1.9372,0.0,0.0,-2.8436,0.0,0.0,0.0,0.0,0.0,0.0,0.0,0.0,0.0,0.0,0.0,0.0,0.0,0.0,0.0,0.0,0.0,0.0,0.0,0.0,0.0,0.0,0.0,0.0,0.0,0.0,0.0,-3.9939,-4.0139,-4.0506,-4.0141,-4.0139,-4.0524,-4.0273,-3.9876,-3.9349,-3.8826,-3.8307,-3.7802,-3.8632,-3.9191,-3.9605,-3.996,-3.991,-3.9605,-3.996,-3.9893,-3.9622,-3.996,-4.0096,-4.0096,-4.0096,-4.0096,-4.0214,-4.0933,-4.1677,-4.2422,-4.3139,-4.3673,-4.3978,-4.4012,-4.3995,-4.3978,-4.4012,-4.3724,-4.3494,-4.3927,-4.3453,-4.2777,-4.2388,-4.2861,-4.2987,-4.1542,-4.1221,-4.0984,-4.0248,-4.0096,-4.0096,-4.0096,-3.9808,-3.9309,-3.8582,-3.7838,-3.7094,-3.6315,-3.5853,-3.56,-3.56,-3.56,-3.56,-3.56,-3.56,-3.56,-3.56,-3.56,-3.56,-3.56,-3.56,-3.56,-3.56,-3.56,-3.56,-3.56,-3.56,-3.56,-3.56,-3.56,-3.56,-1.9249,0.0,-2.4729,-2.8703,-3.1749,0.0,0.0,0.0,0.0,0.0,0.0,0.0,0.0,0.0,0.0,0.0,0.0,0.0,0.0,0.0,0.0,0.0,0.0,0.0,0.0,0.0,0.0,0.0,0.0,0.0,-3.8707,-3.8707,-3.9019,-3.9662,-3.8959,-3.8923,-3.968,-3.9077,-3.8544,-3.8107,-3.7523,-3.7019,-3.6643,-3.799,-3.8751,-3.9022,-3.952,-3.9537,-3.9249,-3.9723,-3.9639,-3.9242,-3.9859,-4.0096,-4.0096,-4.0096,-4.0096,-4.0214,-4.0933,-4.1593,-4.2219,-4.298,-4.3572,-4.3893,-4.3386,-4.3589,-4.3893,-4.3369,-4.3105,-4.3037,-4.32,-4.2658,-4.21,-4.21,-4.2591,-4.2523,-4.0705,-4.0663,-4.0832,-4.0231,-4.0096,-4.0096,-4.0096,-3.9503,-3.8751,-3.8024,-3.7263,-3.6524,-3.5701,-3.56,-3.56,-3.56,-3.56,-3.56,-3.56,-3.56,-3.56,-3.56,-3.56,-3.56,-3.56,-3.56,-3.56,-3.56,-3.56,-3.56,-3.56,-3.56,-3.56,-3.56,-3.56,-3.56,0.0,0.0,-2.5761,0.0,-2.9413,0.0,0.0,0.0,0.0,0.0,0.0,0.0,0.0,0.0,0.0,0.0,0.0,0.0,0.0,0.0,0.0,0.0,0.0,0.0,0.0,0.0,0.0,0.0,0.0,0.0,-3.8707,-3.8707,-3.8762,-3.8854,-3.8305,-3.8271,-3.8854,-3.7917,-3.7408,-3.7332,-3.6341,-3.5825,-3.5785,-3.6688,-3.7794,-3.8954,-3.843,-3.8853,-3.991,-3.9385,-3.9486,-3.996,-4.0062,-4.0096,-4.0096,-4.0096,-4.0096,-4.0214,-4.0933,-4.1271,-4.1474,-4.2202,-4.2083,-4.1745,-4.2286,-4.2083,-4.1762,-4.2286,-4.1982,-4.1644,-4.2269,-4.1897,-4.1356,-4.1356,-4.1424,-4.1407,-4.1119,-4.0629,-4.0231,-4.013,-4.0096,-4.0096,-4.0096,-3.9503,-3.8751,-3.8024,-3.7263,-3.6524,-3.5701,-3.56,-3.56,-3.56,-3.56,-3.56,-3.56,-3.56,-3.56,-3.56,-3.56,-3.56,-3.56,-3.56,-3.56,-3.56,-3.56,-3.56,-3.56,-3.56,-3.56,-3.56,-3.56,-3.56,-2.1106,-2.2446,-2.4003,0.0,0.0,0.0,0.0,0.0,0.0,0.0,0.0,0.0,0.0,0.0,0.0,0.0,0.0,0.0,0.0,0.0,0.0,0.0,0.0,0.0,0.0,0.0,0.0,0.0,0.0,-3.8251,-3.8251,-3.8546,-3.8707,-3.8707,-3.8183,-3.8013,-3.8251,-3.7248,-3.6603,-3.6312,-3.5832,-3.56,-3.5616,-3.5977,-3.6721,-3.7753,-3.7855,-3.8278,-3.887,-3.8954,-3.9174,-3.9512,-3.9943,-4.0096,-4.0096,-4.0096,-4.0096,-4.0214,-4.0933,-4.1204,-4.1322,-4.2049,-4.2066,-4.1796,-4.1711,-4.1745,-4.1796,-4.1711,-4.1457,-4.1271,-4.1593,-4.1136,-4.0578,-4.0578,-4.0578,-4.0578,-4.0578,-4.0333,-4.0096,-4.0096,-4.0096,-4.0096,-4.0096,-3.914,-3.8413,-3.8497,-3.7144,-3.6163,-3.6265,-3.5893,-3.56,-3.56,-3.56,-3.56,-3.56,-3.56,-3.56,-3.56,-3.56,-3.56,-3.56,-3.56,-3.56,-3.56,-3.56,-3.56,-3.56,-3.56,-3.56,-3.56,-3.56,-3.56,0.0,0.0,-2.2395,0.0,0.0,0.0,0.0,0.0,0.0,0.0,0.0,0.0,0.0,0.0,0.0,0.0,0.0,0.0,0.0,0.0,0.0,0.0,0.0,0.0,0.0,0.0,0.0,0.0,0.0,-3.7268,-3.7587,-3.7858,-3.8148,-3.8496,-3.786,-3.7578,-3.772,-3.6845,-3.6139,-3.56,-3.56,-3.56,-3.56,-3.56,-3.5943,-3.6518,-3.7077,-3.755,-3.7939,-3.8294,-3.8548,-3.8785,-3.9537,-3.9825,-3.9842,-4.0028,-4.0096,-4.018,-4.073,-4.0916,-4.1001,-4.1542,-4.1728,-4.1653,-4.1085,-4.1288,-4.1627,-4.1068,-4.0916,-4.0916,-4.0916,-4.0493,-4.0096,-4.0096,-4.0096,-4.0096,-4.0096,-4.0096,-4.0096,-4.0096,-4.0096,-4.0096,-4.0096,-3.9022,-3.8362,-3.8903,-3.7229,-3.6129,-3.6728,-3.6096,-3.56,-3.56,-3.56,-3.56,-3.56,-3.56,-3.56,-3.56,-3.56,-3.56,-3.56,-3.56,-3.56,-3.56,-3.56,-3.56,-3.56,-3.56,-3.56,-3.56,-3.56,-3.56,0.0,-2.1735,0.0,0.0,0.0,0.0,0.0,0.0,0.0,0.0,0.0,0.0,0.0,0.0,0.0,0.0,0.0,0.0,0.0,0.0,0.0,0.0,0.0,0.0,0.0,0.0,0.0,0.0,0.0,-3.5577,-3.679,-3.6416,-3.6684,-3.7892,-3.7001,-3.6724,-3.7229,-3.6684,-3.6139,-3.56,-3.56,-3.56,-3.56,-3.56,-3.5616,-3.565,-3.5701,-3.6546,-3.7855,-3.7202,-3.7313,-3.8041,-3.8768,-3.9056,-3.914,-3.9842,-4.0096,-4.0113,-4.0146,-4.0163,-4.0163,-4.0197,-4.0214,-4.0214,-4.018,-4.018,-4.0214,-4.018,-4.0163,-4.0163,-4.0163,-4.013,-4.0096,-4.0096,-4.0096,-4.0096,-4.0096,-4.0096,-4.0096,-4.0096,-4.0096,-4.0096,-4.0096,-3.9469,-3.8954,-3.8988,-3.7726,-3.6761,-3.6795,-3.6096,-3.56,-3.56,-3.56,-3.56,-3.56,-3.56,-3.56,-3.56,-3.56,-3.56,-3.56,-3.56,-3.56,-3.56,-3.56,-3.56,-3.56,-3.56,-3.56,-3.56,-3.56,-3.56,0.0,0.0,0.0,0.0,0.0,0.0,0.0,0.0,0.0,0.0,0.0,0.0,0.0,0.0,0.0,0.0,0.0,0.0,0.0,0.0,0.0,0.0,0.0,0.0,0.0,0.0,0.0,0.0,0.0,0.0,-3.5098,-3.5685,-3.6202,-3.6684,-3.6503,-3.6333,-3.6165,-3.5968,-3.5805,-3.56,-3.56,-3.56,-3.56,-3.56,-3.56,-3.56,-3.56,-3.6214,-3.7161,-3.6914,-3.7229,-3.7939,-3.8193,-3.8582,-3.9022,-3.9317,-3.9706,-4.0096,-4.0096,-4.0096,-4.0096,-4.0096,-4.0096,-4.0096,-4.0096,-4.0096,-4.0096,-4.0096,-4.0096,-4.0096,-4.0096,-4.0096,-4.0096,-4.0096,-4.0096,-4.0096,-4.0096,-4.0096,-4.0096,-4.0096,-4.0096,-4.0096,-4.0096,-3.9503,-3.9157,-3.9639,-3.8447,-3.7669,-3.8142,-3.755,-3.7094,-3.7094,-3.6654,-3.6366,-3.6366,-3.591,-3.56,-3.56,-3.56,-3.56,-3.56,-3.56,-3.56,-3.56,-3.56,-3.5836,-3.6366,-3.5836,-3.5876,-3.6366,-3.6366,-3.6366,-2.1701,0.0,0.0,0.0,0.0,0.0,0.0,0.0,0.0,0.0,0.0,0.0,0.0,0.0,0.0,0.0,0.0,0.0,0.0,0.0,0.0,0.0,0.0,0.0,0.0,0.0,0.0,0.0,0.0,0.0,-3.3823,-3.4409,-3.4974,-3.5481,-3.5676,-3.5707,-3.56,-3.5346,-3.5368,-3.56,-3.5346,-3.5346,-3.56,-3.56,-3.56,-3.56,-3.56,-3.591,-3.64,-3.64,-3.6688,-3.7138,-3.7432,-3.7973,-3.865,-3.8903,-3.9486,-4.0096,-4.0096,-4.0096,-4.0096,-4.0096,-4.0096,-4.0096,-4.0096,-4.0096,-4.0096,-4.0096,-4.0096,-4.0096,-4.0096,-4.0096,-4.0096,-4.0096,-4.0096,-4.0096,-4.0096,-4.0096,-4.0096,-4.0096,-4.0096,-4.0096,-4.0096,-3.9706,-3.9554,-4.0028,-3.9056,-3.8447,-3.8937,-3.8362,-3.7905,-3.7905,-3.7449,-3.7083,-3.6829,-3.6315,-3.5893,-3.5616,-3.56,-3.56,-3.56,-3.56,-3.56,-3.56,-3.5876,-3.6265,-3.6795,-3.6265,-3.64,-3.7185,-3.7185,-3.7185,0.0,0.0,0.0,0.0,0.0,0.0,0.0,0.0,0.0,0.0,0.0,0.0,0.0,0.0,0.0,0.0,0.0,0.0,0.0,0.0,0.0,0.0,0.0,0.0,0.0,0.0,0.0,0.0,0.0,-3.1715,-3.2971,-3.2579,-3.297,-3.4421,-3.4455,-3.481,-3.5532,-3.4827,-3.4827,-3.5532,-3.4827,-3.4878,-3.5566,-3.5583,-3.56,-3.56,-3.56,-3.56,-3.56,-3.56,-3.56,-3.5667,-3.6451,-3.7212,-3.7973,-3.87,-3.9411,-4.0079,-4.0096,-4.0096,-4.0096,-4.0096,-4.0096,-4.0096,-4.0096,-4.0096,-4.0096,-4.0096,-4.0096,-4.0096,-4.0096,-4.0096,-4.0096,-4.0096,-4.0096,-4.0096,-4.0096,-4.0096,-4.0096,-4.0096,-4.0096,-4.0096,-4.0096,-4.0096,-4.0096,-4.0096,-3.9503,-3.9022,-3.9022,-3.8413,-3.7973,-3.7973,-3.7956,-3.7635,-3.6931,-3.6829,-3.6451,-3.5667,-3.5633,-3.5633,-3.5633,-3.565,-3.5667,-3.5667,-3.6417,-3.6846,-3.6863,-3.6846,-3.7218,-3.7905,-3.7922,-3.7939,-2.3898,0.0,0.0,0.0,0.0,0.0,0.0,0.0,0.0,0.0,0.0,0.0,0.0,0.0,0.0,0.0,0.0,0.0,0.0,0.0,0.0,0.0,0.0,0.0,0.0,0.0,0.0,0.0,-3.0412,-3.0794,-3.1679,-3.2086,-3.2733,-3.3677,-3.3711,-3.3812,-3.4015,-3.3812,-3.3812,-3.4015,-3.4336,-3.4607,-3.4827,-3.5346,-3.56,-3.56,-3.56,-3.56,-3.56,-3.56,-3.56,-3.5616,-3.5859,-3.6417,-3.7178,-3.7922,-3.8667,-3.9377,-3.991,-4.0096,-4.0096,-4.0096,-4.0096,-4.0096,-4.0096,-4.0096,-4.0096,-4.0096,-4.0096,-4.0096,-4.0096,-4.0096,-4.0096,-4.0096,-4.0096,-4.0096,-4.0096,-4.0096,-4.0096,-4.0096,-4.0096,-4.0096,-4.0096,-4.0096,-4.0096,-4.0096,-3.9943,-3.9808,-3.9808,-3.9622,-3.9503,-3.9503,-3.9005,-3.8599,-3.8396,-3.7422,-3.6711,-3.6468,-3.6451,-3.6451,-3.6451,-3.6992,-3.7256,-3.7256,-3.7483,-3.7855,-3.8379,-3.7855,-3.7702,-3.7922,-3.8447,-3.8971,0.0,0.0,0.0,0.0,0.0,0.0,0.0,-2.0839,0.0,0.0,0.0,0.0,0.0,0.0,0.0,0.0,0.0,0.0,0.0,0.0,0.0,0.0,0.0,0.0,0.0,0.0,0.0,-2.9583,-2.9634,-2.9956,-3.07,-3.114,-3.185,-3.2899,-3.2933,-3.3085,-3.3406,-3.3085,-3.3254,-3.3863,-3.3981,-3.4353,-3.4979,-3.5397,-3.56,-3.56,-3.56,-3.56,-3.56,-3.56,-3.56,-3.56,-3.56,-3.6299,-3.7313,-3.7736,-3.8565,-3.9537,-3.996,-4.0096,-4.0096,-4.0096,-4.0096,-4.0096,-4.0096,-4.0096,-4.0096,-4.0096,-4.0096,-4.0096,-4.0096,-4.0096,-4.0096,-4.0096,-4.0096,-4.0096,-4.0096,-4.0096,-4.0096,-4.0096,-4.0096,-4.0096,-4.0096,-4.0096,-4.0096,-4.0096,-4.0096,-4.0096,-4.0096,-4.0096,-4.0096,-4.0096,-3.9723,-3.9326,-3.9022,-3.8217,-3.7608,-3.7263,-3.7246,-3.7246,-3.7246,-3.7669,-3.7905,-3.7905,-3.821,-3.8717,-3.9469,-3.8717,-3.8514,-3.8819,-3.9242,-3.9706,0.0,0.0,0.0,0.0,0.0,0.0,-2.1766,-2.1444,-2.141,0.0,0.0,0.0,0.0,0.0,0.0,0.0,0.0,0.0,0.0,0.0,0.0,0.0,0.0,0.0,0.0,-2.7114,-2.7892,-2.8688,-2.8908,-2.9297,-2.9939,-2.9989,-3.0615,-3.2005,-3.2056,-3.2408,-3.3152,-3.2513,-3.2835,-3.4117,-3.3541,-3.4015,-3.5363,-3.543,-3.5515,-3.56,-3.56,-3.56,-3.56,-3.56,-3.56,-3.56,-3.56,-3.6479,-3.7787,-3.7872,-3.8768,-3.9994,-4.0079,-4.0096,-4.0096,-4.0096,-4.0096,-4.0096,-4.0096,-4.0096,-4.0096,-4.0096,-4.0096,-4.0096,-4.0096,-4.0096,-4.0096,-4.0096,-4.0096,-4.0096,-4.0096,-4.0096,-4.0096,-4.0096,-4.0096,-4.0096,-4.0096,-4.0096,-4.0096,-4.0096,-4.0096,-4.0096,-4.0096,-4.0096,-4.0096,-4.0096,-4.0096,-3.9842,-3.9174,-3.9039,-3.8717,-3.8075,-3.8024,-3.8024,-3.8024,-3.8108,-3.8142,-3.8142,-3.8785,-3.9453,-4.0096,-3.9343,-3.9377,-4.0096,-4.0096,-4.0096,0.0,0.0,0.0,0.0,0.0,0.0,-2.3171,-2.297,-2.2801,0.0,0.0,0.0,0.0,0.0,0.0,0.0,0.0,0.0,0.0,0.0,0.0,0.0,0.0,0.0,0.0,-2.5592,-2.6353,-2.7097,-2.8299,-2.9061,-2.9213,-2.9213,-2.9617,-3.0497,-3.0531,-3.0886,-3.1613,-3.1478,-3.1546,-3.185,-3.231,-3.2966,-3.3863,-3.4438,-3.5047,-3.56,-3.56,-3.56,-3.56,-3.56,-3.56,-3.56,-3.56,-3.618,-3.71,-3.7686,-3.8464,-3.9317,-3.9893,-4.0096,-4.0096,-4.0096,-4.0096,-4.0096,-4.0096,-4.0096,-4.0096,-4.0096,-4.0096,-4.0096,-4.0096,-4.0096,-4.0096,-4.0096,-4.0096,-4.0096,-4.0096,-4.0096,-4.0096,-4.0096,-4.0096,-4.0096,-4.0096,-4.0096,-4.0096,-4.0096,-4.0096,-4.0096,-4.0096,-4.0096,-4.0096,-4.0096,-4.0096,-4.0045,-3.991,-3.9326,-3.8937,-3.8785,-3.8785,-3.8785,-3.8785,-3.9368,-3.9673,-3.9673,-3.9808,-3.996,-4.0096,-3.9343,-3.9377,-4.0096,-4.0096,-4.0096,0.0,0.0,0.0,-2.5693,0.0,0.0,0.0,-2.3661,-2.3393,0.0,0.0,0.0,0.0,0.0,0.0,0.0,0.0,0.0,0.0,0.0,0.0,0.0,0.0,0.0,0.0,-2.4949,-2.5913,-2.664,-2.7419,-2.8011,-2.8383,-2.8399,-2.8755,-2.9533,-2.9922,-3.0294,-3.0649,-3.1021,-3.1376,-3.1769,-3.2513,-3.322,-3.3964,-3.4709,-3.5245,-3.56,-3.56,-3.56,-3.56,-3.56,-3.56,-3.56,-3.56,-3.6096,-3.6846,-3.7235,-3.7821,-3.8565,-3.9317,-3.9554,-3.9622,-3.9977,-4.0096,-4.0096,-4.0096,-4.0096,-4.0096,-4.0096,-4.0096,-4.0096,-4.0096,-4.0096,-4.0096,-4.0096,-4.0096,-4.0096,-4.0096,-4.0096,-4.0096,-4.0096,-4.0096,-4.0096,-4.0096,-4.0096,-4.0096,-4.0096,-4.0096,-4.0096,-4.0096,-4.0096,-4.0096,-4.0096,-4.0096,-4.0096,-4.0096,-3.9774,-3.9554,-3.9554,-3.9554,-3.9554,-3.9554,-3.991,-4.0096,-4.0096,-4.0096,-4.0096,-4.0096,-3.974,-3.974,-4.0096,-4.0096,-4.0096,0.0,0.0,0.0,0.0,0.0,-2.5625,0.0,0.0,0.0,-2.4406,0.0,0.0,0.0,0.0,0.0,0.0,0.0,0.0,0.0,0.0,0.0,0.0,0.0,0.0,0.0,-2.4729,-2.5913,-2.664,-2.6691,-2.6962,-2.7553,-2.7587,-2.7942,-2.8756,-2.9499,-2.9973,-3.0108,-3.0835,-3.1582,-3.231,-3.2899,-3.3643,-3.4506,-3.5131,-3.5464,-3.56,-3.56,-3.56,-3.56,-3.56,-3.56,-3.56,-3.56,-3.6096,-3.6795,-3.6795,-3.7263,-3.8024,-3.8734,-3.8988,-3.9106,-3.9859,-4.0096,-4.0096,-4.0096,-4.0096,-4.0096,-4.0096,-4.0096,-4.0096,-4.0096,-4.0096,-4.0096,-4.0096,-4.0096,-4.0096,-4.0096,-4.0096,-4.0096,-4.0096,-4.0096,-4.0096,-4.0096,-4.0096,-4.0096,-4.0096,-4.0096,-4.0096,-4.0096,-4.0096,-4.0096,-4.0096,-4.0096,-4.0096,-4.0096,-4.0096,-4.0096,-4.0096,-4.0096,-4.0096,-4.0096,-4.0096,-4.0096,-4.0096,-4.0096,-4.0096,-4.0096,-4.0096,-4.0096,-4.0096,-4.0096,-4.0096,0.0,0.0,0.0,0.0,-2.7063,0.0,0.0,0.0,-2.5186,-2.4626,0.0,0.0,0.0,0.0,0.0,0.0,0.0,0.0,0.0,0.0,0.0,0.0,0.0,0.0,0.0,0.0,-2.5913,-2.664,-2.6691,-2.6725,-2.6826,-2.6826,-2.7165,-2.7908,-2.8704,-2.9431,-3.0089,-3.0835,-3.1582,-3.2293,-3.2378,-3.3156,-3.4489,-3.459,-3.4979,-3.56,-3.56,-3.56,-3.56,-3.56,-3.56,-3.56,-3.56,-3.6096,-3.6795,-3.6795,-3.7263,-3.8024,-3.8734,-3.8988,-3.9106,-3.9859,-4.0096,-4.0096,-4.0096,-4.0096,-4.0096,-4.0096,-4.0096,-4.0096,-4.0096,-4.0096,-4.0096,-4.0096,-4.0096,-4.0096,-4.0096,-4.0096,-4.0096,-4.0096,-4.0096,-4.0096,-4.0096,-4.0096,-4.0096,-4.0096,-4.0096,-4.0096,-4.0096,-4.0096,-4.0096,-4.0096,-4.0096,-4.0096,-4.0096,-4.0096,-4.0096,-4.0096,-4.0096,-4.0096,-4.0096,-4.0096,-4.0096,-4.0096,-4.0096,-4.0096,-4.0096,-4.0096,-4.0096,-4.0096,-4.0096,-4.0096,0.0,0.0,0.0,0.0,0.0,0.0,0.0,0.0,-2.5561,0.0,0.0,0.0,0.0,0.0,0.0,0.0,0.0,0.0,0.0,0.0,0.0,0.0,0.0,0.0,0.0,0.0,0.0,0.0,0.0,-2.6251,-2.6674,-2.6691,-2.6843,-2.7165,-2.7909,-2.8687,-2.9448,-3.0192,-3.092,-3.1684,-3.2527,-3.3254,-3.3897,-3.4759,-3.5318,-3.56,-3.56,-3.56,-3.56,-3.56,-3.56,-3.56,-3.56,-3.5825,-3.6096,-3.6096,-3.6315,-3.6688,-3.7449,-3.799,-3.8548,-3.9723,-4.0096,-4.0096,-4.0096,-4.0096,-4.0096,-4.0096,-4.0096,-4.0096,-4.0096,-4.0096,-4.0096,-4.0096,-4.0096,-4.0096,-4.0096,-4.0096,-4.0096,-4.0096,-4.0096,-4.0096,-4.0096,-4.0096,-4.0096,-4.0096,-4.0096,-4.0096,-4.0096,-4.0096,-4.0096,-4.0096,-4.0096,-4.0096,-4.0096,-4.0096,-4.0096,-4.0096,-4.0096,-4.0096,-4.0096,-4.0096,-3.9876,-3.9394,-3.9876,-3.9876,-3.9394,-3.9859,-4.0096,-4.0096,-4.0096,-4.0096,-3.026,0.0,0.0,0.0,0.0,0.0,0.0,0.0,0.0,0.0,0.0,0.0,0.0,0.0,0.0,0.0,0.0,0.0,0.0,0.0,0.0,0.0,0.0,0.0,0.0,0.0,0.0,-2.522,-2.549,-2.5845,-2.637,-2.659,-2.6691,-2.6691,-2.7418,-2.8197,-2.8993,-2.9736,-3.0581,-3.1495,-3.2594,-3.3305,-3.3744,-3.4827,-3.5397,-3.56,-3.56,-3.56,-3.56,-3.56,-3.56,-3.56,-3.56,-3.56,-3.56,-3.56,-3.5735,-3.6045,-3.6823,-3.7719,-3.8684,-3.9757,-4.0096,-4.0096,-4.0096,-4.0096,-4.0096,-4.0096,-4.0096,-4.0096,-4.0096,-4.0096,-4.0096,-4.0096,-4.0096,-4.0096,-4.0096,-4.0096,-4.0096,-4.0096,-4.0096,-4.0096,-4.0096,-4.0096,-4.0096,-4.0096,-4.0096,-4.0096,-4.0096,-4.0096,-4.0096,-4.0096,-4.0096,-4.0096,-4.0096,-4.0096,-4.0096,-4.0096,-4.0096,-4.0096,-4.0096,-4.0096,-3.9731,-3.8908,-3.9463,-3.9385,-3.8608,-3.9385,-3.9782,-3.9782,-3.9995,-3.9978,0.0,0.0,0.0,-3.0055,0.0,0.0,0.0,0.0,-2.7663,0.0,0.0,0.0,0.0,0.0,0.0,-2.2306,0.0,0.0,0.0,0.0,0.0,0.0,0.0,0.0,0.0,0.0,0.0,-2.4525,-2.5203,-2.5609,-2.5626,-2.6302,-2.6691,-2.6691,-2.7418,-2.8197,-2.8993,-2.9736,-3.0835,-3.2276,-3.231,-3.3089,-3.4455,-3.4506,-3.4928,-3.56,-3.56,-3.56,-3.56,-3.56,-3.56,-3.56,-3.56,-3.56,-3.56,-3.56,-3.6096,-3.688,-3.7618,-3.8802,-4.0045,-4.0079,-4.0096,-4.0096,-4.0096,-4.0096,-4.0096,-4.0096,-4.0096,-4.0096,-4.0096,-4.0096,-4.0096,-4.0096,-4.0096,-4.0096,-4.0096,-4.0096,-4.0096,-4.0096,-4.0096,-4.0096,-4.0096,-4.0096,-4.0096,-4.0096,-4.0096,-4.0096,-4.0096,-4.0096,-4.0096,-4.0096,-4.0096,-4.0096,-4.0096,-4.0096,-4.0096,-4.0096,-4.0096,-4.0096,-4.0096,-4.0096,-3.9731,-3.8908,-3.8935,-3.858,-3.7835,-3.858,-3.8935,-3.8962,-3.9756,-3.9688,0.0,0.0,-3.0835,-3.0835,0.0,0.0,0.0,0.0,0.0,0.0,0.0,0.0,0.0,0.0,0.0,-2.2895,0.0,0.0,0.0,0.0,0.0,0.0,0.0,0.0,0.0,0.0,0.0,-2.3746,-2.4474,-2.5084,-2.5575,-2.6302,-2.6691,-2.6691,-2.6945,-2.7689,-2.8993,-2.9264,-3.0127,-3.1562,-3.2073,-3.2835,-3.3795,-3.4269,-3.4912,-3.56,-3.56,-3.56,-3.56,-3.56,-3.56,-3.56,-3.56,-3.56,-3.56,-3.56,-3.5769,-3.6129,-3.6891,-3.7821,-3.8717,-3.9208,-3.9706,-4.0096,-4.0096,-4.0096,-4.0096,-4.0096,-4.0096,-4.0096,-4.0096,-4.0096,-4.0096,-4.0096,-4.0096,-4.0096,-4.0096,-4.0096,-4.0096,-4.0096,-3.9662,-3.9463,-4.002,-3.9662,-3.9489,-4.002,-4.0096,-4.0096,-4.0096,-4.0096,-4.0096,-4.0096,-4.0096,-4.0096,-4.0096,-4.0096,-4.0096,-4.0096,-4.0096,-4.0096,-4.0096,-3.9584,-3.8951,-3.8206,-3.8177,-3.779,-3.701,-3.779,-3.8177,-3.8206,-3.8951,-3.9166,-3.119,-3.119,0.0,-3.0918,-3.0681,0.0,-2.8756,0.0,0.0,0.0,0.0,0.0,0.0,0.0,0.0,0.0,0.0,0.0,0.0,-2.2876,0.0,0.0,0.0,0.0,0.0,0.0,-2.2615,-2.3342,-2.4085,-2.4829,0.0,0.0,-2.6691,-2.6691,-2.6945,-2.7706,-2.8993,-2.9264,-2.9989,-3.1207,-3.1684,-3.2425,-3.3423,-3.3897,-3.4658,-3.56,-3.56,-3.56,-3.56,-3.56,-3.56,-3.5577,-3.5339,-3.5385,-3.56,-3.56,-3.5769,-3.6146,-3.6907,-3.7669,-3.8379,-3.8853,-3.9503,-4.0096,-4.0096,-4.0096,-4.0096,-4.0096,-4.0096,-4.0096,-4.0096,-4.0096,-4.0096,-4.0096,-4.0096,-4.0096,-4.0096,-4.0096,-4.0096,-4.0096,-3.9463,-3.9059,-3.9568,-3.9246,-3.9166,-3.9978,-4.0096,-4.0096,-4.0096,-4.0096,-4.0096,-4.0096,-4.0096,-4.0096,-4.0096,-4.0096,-4.0096,-4.0096,-4.0096,-4.0096,-4.0096,-3.961,-3.909,-3.8512,-3.8033,-3.7501,-3.6885,-3.7214,-3.7368,-3.7397,-3.8425,-3.8772]},{"header":{"parameterUnit":"m.s-1","parameterCategory":1,"la1":30.6,"la2":29.2853,"lo1":-89.7004,"lo2":-87.6739,"dy":0.0162,"dx":0.0183,"nx":112,"ny":82,"refTime":"2023-05-08T00:00:00:Z","depth":0,"parameterNumber":3,"parameterNumberName":"V-component_of_WINDS"},"data":[0.0,0.0,0.0,0.0,0.0,0.0,0.0,0.0,0.0,0.0,0.0,0.0,0.0,0.0,0.0,0.0,0.0,0.0,0.0,0.0,0.0,0.0,0.0,0.0,0.0,0.0,0.0,0.0,0.0,0.0,0.0,0.0,0.0,0.0,0.0,0.0,0.0,0.0,0.0,0.0,0.0,0.0,0.0,0.0,0.0,0.0,0.0,0.0,0.0,0.0,0.0,0.0,0.0,0.0,0.0,0.0,0.0,0.0,0.0,0.0,0.0,0.0,0.0,0.0,0.0,0.0,0.0,0.0,0.0,0.0,0.0,0.0,0.0,0.0,0.0,0.0,0.0,0.0,0.0,0.0,0.0,0.0,0.0,0.0,0.0,0.0,0.0,0.0,0.0,0.0,0.0,0.631,0.8347,0.9331,0.8498,0.99,1.0367,0.9344,0.0,0.0,0.0,0.0,0.0,0.0,0.0,0.0,0.0,0.0,0.0,0.0,0.0,0.0,0.0,0.0,0.0,0.0,0.0,0.0,0.0,0.0,0.0,0.0,0.0,0.0,0.0,0.0,0.0,0.0,0.0,0.0,0.0,0.0,0.0,0.0,0.0,0.0,0.0,0.0,0.0,0.0,0.0,0.0,0.0,0.0,0.0,0.0,0.0,0.0,0.0,0.0,0.0,0.0,0.0,0.0,0.0,0.0,0.0,0.0,0.0,0.0,0.0,0.0,0.0,0.0,0.0,0.0,0.0,0.0,0.0,0.0,0.0,0.0,0.0,0.0,0.0,0.0,0.0,0.0,0.0,0.0,0.0,0.0,0.0,0.0,0.0,0.0,0.0,0.0,0.0,0.0,0.0,0.0,0.0,0.0,0.0,0.0,0.0,0.0,0.0,0.0,0.0,0.0,0.6657,0.6132,0.8158,0.928,0.8626,0.9371,0.9806,0.9626,0.0,0.0,0.0,0.0,0.0,0.0,0.0,0.0,0.0,0.0,0.0,0.0,0.0,0.0,0.0,0.0,0.0,0.0,0.0,0.0,0.0,0.0,0.0,0.0,0.0,0.0,0.0,0.0,0.0,0.0,0.0,0.0,0.0,0.0,0.0,0.0,0.0,0.0,0.0,0.0,0.0,0.0,0.0,0.0,0.0,0.0,0.0,0.0,0.0,0.0,0.0,0.0,0.0,0.0,0.0,0.0,0.0,0.0,0.0,0.0,0.0,0.0,0.0,0.0,0.0,0.0,0.0,0.0,0.0,0.0,0.0,0.0,0.0,0.0,0.0,0.0,0.0,0.0,0.0,0.0,0.0,0.0,0.0,0.0,0.0,0.0,0.0,0.0,0.0,0.0,0.0,0.0,0.0,0.0,0.0,0.0,0.0,0.0,0.0,0.0,0.0,0.0,0.0,0.6826,0.657,0.6204,0.8025,0.903,0.8416,0.9021,0.9417,0.9417,0.8845,0.0,0.0,0.0,0.0,0.0,0.0,0.0,0.0,0.0,0.0,0.0,0.0,0.0,0.0,0.0,0.0,0.0,0.0,0.0,0.0,0.0,0.0,0.0,0.0,0.0,0.0,0.0,0.0,0.0,0.0,0.0,0.0,0.0,0.0,0.0,0.0,0.0,0.0,0.0,0.0,0.0,0.0,0.0,0.0,0.0,0.0,0.0,0.0,0.0,0.0,0.0,0.0,0.0,0.0,0.0,0.0,0.0,0.0,0.0,0.0,0.0,0.0,0.0,0.0,0.0,0.0,0.0,0.0,0.0,0.0,0.0,0.0,0.0,0.0,0.0,0.0,0.0,0.0,0.0,0.0,0.0,0.0,0.0,0.0,0.0,0.0,0.0,0.0,0.0,0.0,0.0,0.0,0.0,0.0,0.0,0.0,0.0,0.0,0.0,0.0,0.0,0.0,0.6562,0.6087,0.6173,0.7792,0.8674,0.8121,0.8722,0.9138,0.9211,0.8392,0.0,0.0,0.0,0.0,0.0,0.0,0.0,0.0,0.0,0.0,0.0,0.0,0.0,0.0,0.0,0.0,0.0,0.0,0.0,0.0,0.0,0.0,0.0,0.0,0.0,0.0,0.0,0.0,0.0,0.0,0.0,0.0,0.0,0.0,0.0,0.0,0.0,0.0,0.0,0.0,0.0,0.0,0.0,0.0,0.0,0.0,0.0,0.0,0.0,0.0,0.0,0.0,0.0,0.0,0.0,0.0,0.0,0.0,0.0,0.0,0.0,0.0,0.0,0.0,0.0,0.0,0.0,0.0,0.0,0.0,0.0,0.0,0.0,0.0,0.0,0.0,0.0,0.0,0.0,0.0,0.0,0.0,0.0,0.0,0.0,0.0,0.0,0.0,0.0,0.0,0.0,0.0,0.0,0.0,0.0,0.0,0.0,0.0,0.0,0.0,0.0,0.0,0.5952,0.5218,0.5772,0.7277,0.8135,0.7771,0.8409,0.8924,0.9191,0.8392,0.0,0.0,0.0,0.0,0.0,0.0,0.0,0.0,0.0,0.0,0.0,0.0,0.0,0.0,0.0,0.0,0.0,0.0,0.0,0.0,0.0,0.0,0.0,0.0,0.0,0.0,0.0,0.0,0.0,0.0,0.0,0.0,0.0,0.0,0.0,0.0,0.0,0.0,0.0,0.0,0.0,0.0,0.0,0.0,0.0,0.0,0.0,0.0,0.0,0.0,0.0,0.0,0.0,0.0,0.0,0.0,0.0,0.0,0.0,0.0,0.0,0.0,0.0,0.0,0.0,0.0,0.0,0.0,0.0,0.0,0.0,0.0,0.0,0.0,0.0,0.0,0.0,0.0,0.0,0.0,0.0,0.0,0.0,0.0,0.0,0.0,0.0,0.0,0.0,0.0,0.0,0.0,0.0,0.0,0.0,0.0,0.0,0.0,0.0,0.0,0.0,0.0,0.5913,0.5177,0.0,0.7017,0.7715,0.7238,0.7835,0.8365,0.8684,0.0,0.0,0.0,0.0,0.0,0.0,0.0,0.0,0.0,0.0,0.0,0.0,0.0,0.0,0.0,0.0,0.0,0.0,0.0,0.0,0.0,0.0,0.0,0.0,0.0,0.0,0.0,0.0,0.0,0.0,0.0,0.0,0.0,0.0,0.0,0.0,0.0,0.0,0.0,0.0,0.0,0.0,0.0,0.0,0.0,0.0,0.0,0.0,0.0,0.0,0.0,0.0,0.0,0.0,0.0,0.0,0.0,0.0,0.0,0.0,0.0,0.0,0.0,0.0,0.0,0.0,0.0,0.0,0.0,0.0,0.0,0.0,0.0,0.0,0.0,0.0,0.0,0.0,0.0,0.0,0.0,0.0,0.0,0.0,0.0,0.0,0.0,0.0,0.0,0.0,0.0,0.0,0.0,0.0,0.0,0.0,0.0,0.0,0.0,0.0,0.0,0.0,0.6982,0.5731,0.4955,0.0,0.6606,0.7247,0.6793,0.7447,0.8032,0.8382,0.0,0.0,0.0,0.0,0.0,0.0,0.0,0.0,0.0,0.0,0.0,0.0,0.0,0.0,0.0,0.0,0.0,0.0,0.0,0.0,0.0,0.0,0.0,0.0,0.0,0.0,0.0,0.0,0.0,0.0,0.0,0.0,0.0,0.0,0.0,0.0,0.0,0.0,0.0,0.0,0.0,0.0,0.0,0.0,0.0,0.0,0.0,0.0,0.0,0.0,0.0,0.0,0.0,0.0,0.0,0.0,0.0,0.0,0.0,0.0,0.0,0.0,0.0,0.0,0.0,0.0,0.0,0.0,0.0,0.0,0.0,0.0,0.0,0.0,0.0,0.0,0.0,0.0,0.0,0.0,0.0,0.0,0.0,0.0,0.0,0.0,0.0,0.0,0.0,0.0,0.0,0.0,0.0,0.0,0.0,0.0,0.0,0.0,0.0,0.0,0.0,0.0,0.6847,0.5318,0.4392,0.4867,0.611,0.6758,0.6426,0.7311,0.8025,0.0,0.0,0.0,0.0,0.0,0.0,0.0,0.0,0.0,0.0,0.0,0.0,0.0,0.0,0.0,0.0,0.0,0.0,0.0,0.0,0.0,0.0,0.0,0.0,0.0,0.0,0.0,0.0,0.0,0.0,0.0,0.0,0.0,0.0,0.0,0.0,0.0,0.0,0.0,0.0,0.0,0.0,0.0,0.0,0.0,0.0,0.0,0.0,0.0,0.0,0.0,0.0,0.0,0.0,0.0,0.0,0.0,0.0,0.0,0.0,0.0,0.0,0.0,0.0,0.0,0.0,0.0,0.0,0.0,0.0,0.0,0.0,0.0,0.0,0.0,0.0,0.0,0.0,0.0,0.0,0.0,0.0,0.0,0.0,0.0,0.0,0.0,0.0,0.0,0.0,0.0,0.0,0.0,0.0,0.0,0.0,0.0,0.0,0.0,0.0,0.0,0.0,0.0,0.6645,0.5245,0.4537,0.5438,0.6135,0.6637,0.6884,0.713,0.7486,0.8005,0.0,0.0,0.0,0.0,0.0,0.0,0.0,0.0,0.0,0.0,0.0,0.0,0.0,0.0,0.0,0.0,0.0,0.0,0.0,0.0,0.0,0.0,0.0,0.0,0.0,0.0,0.0,0.0,0.0,0.0,0.0,0.0,0.0,0.0,0.0,0.0,0.0,0.0,0.0,0.0,0.0,0.0,0.0,0.0,0.0,0.0,0.0,0.0,0.0,0.0,0.0,0.0,0.0,0.0,0.0,0.0,0.0,0.0,0.0,0.0,0.0,0.0,0.0,0.0,0.0,0.0,0.0,0.0,0.0,0.0,0.0,0.0,0.0,0.0,0.0,0.0,0.0,0.0,0.0,0.0,0.0,0.0,0.0,0.0,0.0,0.0,0.0,0.0,0.0,0.0,0.0,0.0,0.0,0.0,0.0,0.0,0.0,0.0,0.0,0.0,0.0,0.0,0.656,0.5108,0.4407,0.5403,0.5848,0.6258,0.6781,0.6921,0.7206,0.7715,0.0,0.0,0.0,0.0,0.0,0.0,0.0,0.0,0.0,0.0,0.0,0.0,0.0,0.0,0.0,0.0,0.0,0.0,0.0,0.0,0.0,0.0,0.0,0.0,0.0,0.0,0.0,0.0,0.0,0.0,0.0,0.0,0.0,0.0,0.0,0.0,0.0,0.0,0.0,0.0,0.0,0.0,0.0,0.0,0.0,0.0,0.0,0.0,0.0,0.0,0.0,0.0,0.0,0.0,0.0,0.0,0.0,0.0,0.0,0.0,0.0,0.0,0.0,0.0,0.0,0.0,0.0,0.0,0.0,0.0,0.0,0.0,0.0,0.0,0.0,0.0,0.0,0.0,0.0,0.0,0.0,0.0,0.0,0.0,0.0,0.0,0.0,0.0,0.0,0.0,0.0,0.0,0.0,0.0,0.0,0.0,0.0,0.0,0.0,0.0,0.0,0.0,0.6612,0.509,0.4304,0.5126,0.546,0.5869,0.6458,0.6814,0.7148,0.7471,0.0,0.0,0.0,0.0,0.0,0.0,0.0,0.0,0.0,0.0,0.0,0.0,0.0,0.0,0.0,0.0,0.0,0.0,0.0,0.0,0.0,0.0,0.0,0.0,0.0,0.0,0.0,0.0,0.0,0.0,0.0,0.0,0.0,0.0,0.0,0.0,0.0,0.0,0.0,0.0,0.0,0.0,0.0,0.0,0.0,0.0,0.0,0.0,0.0,0.0,0.0,0.0,0.0,0.0,0.0,0.0,0.0,0.0,0.0,0.0,0.7272,0.0,0.0,0.0,0.0,0.0,0.0,0.0,0.0,0.0,0.0,0.0,0.0,0.0,0.0,0.0,0.0,0.0,0.0,0.0,0.0,0.0,0.0,0.0,0.0,0.0,0.0,0.0,0.0,0.0,0.0,0.0,0.0,0.0,0.0,0.0,0.0,0.0,0.0,0.0,0.0,0.0,0.6991,0.6139,0.5638,0.5931,0.6297,0.6719,0.7228,0.7108,0.7148,0.7471,0.0,0.0,0.0,0.0,0.0,0.0,0.0,0.0,0.0,0.0,0.0,0.0,0.0,0.0,0.0,0.0,0.0,0.0,0.0,0.0,0.0,0.0,0.0,0.0,0.0,0.0,0.0,0.0,0.0,0.0,0.0,0.0,0.0,0.0,0.0,0.0,0.0,0.0,0.0,0.0,0.0,0.0,0.0,0.0,0.0,0.0,0.0,0.0,0.0,0.0,0.0,0.0,0.0,0.0,0.0,0.0,0.0,0.0,0.0,0.0,0.0,0.6303,0.0,0.0,0.0,0.0,0.0,0.0,0.0,0.0,0.0,0.0,0.0,0.0,0.0,0.0,0.0,0.0,0.0,0.0,0.0,0.0,0.0,0.0,0.0,0.0,0.0,0.0,0.0,0.0,0.0,0.0,0.0,0.0,0.0,0.0,0.0,0.0,0.0,0.0,0.0,0.0,0.7605,0.648,0.5872,0.6418,0.6507,0.6716,0.7224,0.7108,0.7066,0.7241,0.741,0.0,0.0,0.0,0.0,0.0,0.0,0.0,0.0,0.0,0.0,0.0,0.0,0.0,0.0,0.0,0.0,0.0,0.0,0.0,0.0,0.0,0.0,0.0,0.0,0.0,0.0,0.0,0.0,0.0,0.0,0.0,0.0,0.0,0.0,0.0,0.0,0.0,0.0,0.0,0.0,0.0,0.0,0.0,0.0,0.0,0.0,0.0,0.0,0.0,0.0,0.0,0.0,0.0,0.6427,0.6162,0.63,0.63,0.6173,0.5948,0.6564,0.6135,0.5088,0.0,0.0,0.0,0.0,0.0,0.0,0.0,0.0,0.0,0.0,0.0,0.0,0.0,0.0,0.0,0.0,0.0,0.0,0.0,0.0,0.0,0.0,0.0,0.0,0.0,0.9035,0.9072,0.0,0.0,0.0,0.0,0.0,0.0,0.0,0.0,0.0,0.0,0.0,0.0,0.8005,0.6665,0.5946,0.6648,0.6557,0.6591,0.6964,0.7,0.7,0.7,0.7255,0.743,0.0,0.0,0.0,0.0,0.0,0.0,0.0,0.0,0.0,0.0,0.0,0.0,0.0,0.0,0.0,0.0,0.0,0.0,0.0,0.0,0.0,0.0,0.0,0.0,0.0,0.0,0.0,0.0,0.0,0.0,0.0,0.0,0.6045,0.5166,0.0,0.0,0.0,0.0,0.0,0.0,0.0,0.0,0.0,0.0,0.0,0.0,0.0,0.7382,0.7588,0.6883,0.6507,0.6419,0.6431,0.6399,0.63,0.63,0.6344,0.6422,0.652,0.0,0.5488,0.5372,0.0,0.0,0.0,0.0,0.0,0.0,0.0,0.0,0.0,0.0,0.0,0.0,0.0,0.0,0.0,0.0,0.0,0.0,0.0,0.0,0.0,0.0,1.0287,1.0008,0.9929,0.9884,0.0,0.9626,0.9626,0.9626,0.9072,0.0,0.0,0.0,0.0,0.0,0.0,0.0,0.7487,0.7299,0.7026,0.6498,0.6971,0.7236,0.702,0.7,0.7,0.7,0.704,0.7194,0.7477,0.7531,0.0,0.0,0.0,0.0,0.0,0.0,0.0,0.0,0.0,0.0,0.0,0.0,0.0,0.0,0.0,0.0,0.0,0.0,0.0,0.0,0.0,0.0,0.0,0.0,0.0,0.0,0.0,0.0,0.0,0.6309,0.5679,0.4897,0.6416,0.7359,0.0,0.0,0.0,0.0,0.0,0.0,0.0,0.0,0.0,0.7593,0.7183,0.6937,0.6868,0.6769,0.6698,0.6637,0.6698,0.6739,0.6756,0.6756,0.679,0.6848,0.6848,0.6658,0.6312,0.5925,0.5742,0.58,0.0,0.0,0.0,0.0,0.9947,1.0416,1.1464,1.0955,0.0,0.0,0.0,0.0,0.0,0.0,0.0,0.0,0.0,0.0,0.0,0.0,0.0,1.0681,1.0735,1.0789,1.0688,1.0274,0.9833,0.0,0.9392,0.9385,0.9472,0.0,0.0,0.0,0.0,0.0,0.7961,0.7671,0.7372,0.7051,0.7139,0.7161,0.7013,0.7,0.7,0.7,0.7,0.706,0.7208,0.7397,0.7657,0.0,0.0,0.0,0.0,0.0,0.0,0.0,0.0,0.0,0.0,0.0,0.0,0.0,0.0,0.0,0.0,0.0,0.0,0.0,0.0,0.0,0.0,0.0,0.0,0.0,0.0,0.0,0.0,0.5914,0.5481,0.4928,0.6216,0.6997,0.0,0.0,0.0,0.0,0.0,0.0,0.7986,0.7358,0.7026,0.7137,0.6916,0.6725,0.6586,0.6875,0.7041,0.7041,0.7082,0.7092,0.72,0.72,0.72,0.7152,0.7112,0.7038,0.6906,0.6502,0.6218,0.6076,0.6933,0.7749,0.8591,0.9965,1.0858,1.1511,1.2355,1.1859,1.0824,1.0909,0.0,0.9035,0.957,0.0,0.0,0.0,0.0,1.1236,1.1309,1.149,1.1617,1.1476,1.155,1.1595,1.1557,1.1029,1.0367,0.0,0.9657,0.976,0.9693,0.0,0.0,0.0,0.0,0.8456,0.8283,0.7819,0.7513,0.7513,0.7201,0.7,0.7,0.7,0.7,0.7,0.7,0.7,0.7,0.7235,0.741,0.7491,0.0,0.0,0.0,0.0,0.0,0.0,0.0,0.0,0.0,0.0,0.0,0.0,0.0,0.0,0.0,0.0,0.0,0.0,0.0,0.0,0.0,0.0,0.0,0.0,0.0,0.0,0.0,0.0,0.0,0.4755,0.6239,0.0,0.0,0.0,0.0,0.7034,0.7372,0.724,0.6475,0.6592,0.6706,0.6747,0.6959,0.718,0.7361,0.7385,0.7395,0.7395,0.7495,0.7495,0.7405,0.7405,0.7405,0.7353,0.7204,0.7092,0.7051,0.6647,0.6494,0.6569,0.7426,0.7882,0.8254,0.9949,1.0347,1.0214,1.1795,1.1223,1.0003,1.1393,1.0305,0.8761,1.0423,0.998,0.0,0.0,1.1859,1.1926,1.2164,1.2245,1.2325,1.2636,1.2489,1.2184,1.194,1.1846,1.1564,0.0,0.9619,0.9045,0.9615,0.0,0.9098,0.8871,0.8804,0.8584,0.7999,0.7669,0.7513,0.7513,0.7201,0.7,0.7,0.7,0.7,0.7,0.7,0.7,0.7,0.7013,0.7174,0.7484,0.7513,0.0,0.0,0.0,0.0,0.0,0.0,0.0,0.0,0.0,0.0,0.0,0.0,0.0,0.0,0.0,0.0,0.0,0.0,0.0,0.0,0.0,0.0,0.0,0.0,0.0,0.0,0.0,0.0,0.587,0.6468,0.0,0.6426,0.6847,0.703,0.6795,0.7012,0.7101,0.7009,0.7119,0.7177,0.7275,0.7285,0.7316,0.7415,0.7468,0.7468,0.7419,0.7526,0.757,0.7516,0.7417,0.7415,0.7409,0.7207,0.7095,0.7085,0.6923,0.6848,0.6788,0.702,0.7521,0.8333,0.9901,1.0792,1.1398,1.2924,1.3037,1.2572,1.2677,1.1417,1.0083,1.1419,1.095,1.0313,1.1993,1.2469,1.2496,1.2603,1.2623,1.2603,1.2516,1.2378,1.2271,1.2171,1.2004,1.1752,1.1216,1.0321,0.9719,0.9927,0.9252,0.8778,0.9018,0.8764,0.8383,0.7959,0.7812,0.7689,0.7511,0.7201,0.7,0.7,0.7,0.7,0.7,0.7,0.7,0.7,0.7,0.7046,0.7174,0.7181,0.7375,0.0,0.0,0.0,0.0,0.0,0.0,0.0,0.0,0.0,0.0,0.0,0.0,0.0,0.0,0.0,0.0,0.0,0.0,0.0,0.0,0.0,0.0,0.0,0.0,0.0,0.0,0.6366,0.6501,0.6742,0.6848,0.6647,0.6675,0.676,0.6912,0.7068,0.7241,0.7438,0.7448,0.7472,0.7519,0.7926,0.7897,0.7494,0.8059,0.8085,0.7522,0.8142,0.8306,0.8196,0.8544,0.8637,0.8529,0.8347,0.8269,0.8269,0.8269,0.7992,0.7591,0.7897,0.843,0.9238,1.1009,1.2081,1.2785,1.3756,1.4088,1.3979,1.3164,1.2126,1.1312,1.2065,1.1719,1.1358,1.2831,1.3166,1.3112,1.3213,1.3092,1.2891,1.2659,1.2452,1.2305,1.2305,1.2078,1.1819,1.1483,1.0843,1.0347,1.0147,0.9472,0.9092,0.9451,0.9038,0.8631,0.853,0.8238,0.8003,0.7819,0.7415,0.7168,0.7168,0.7246,0.7219,0.7013,0.7193,0.7213,0.7006,0.7121,0.7168,0.7168,0.7168,0.7368,0.7776,0.0,0.0,0.0,0.0,0.0,0.0,0.0,0.0,0.0,0.0,0.0,0.0,0.0,0.0,0.0,0.0,0.0,0.0,0.0,0.0,0.0,0.0,0.0,0.581,0.6461,0.682,0.6586,0.7071,0.7268,0.694,0.7214,0.7433,0.7433,0.7529,0.7614,0.7614,0.7607,0.7586,0.7488,0.8752,0.8885,0.7745,0.9112,0.9144,0.7956,0.9372,0.9803,0.9397,1.0731,1.1116,1.08,1.0663,1.0611,1.0611,1.0611,0.9966,0.9061,1.0183,1.0567,1.0826,1.3173,1.4088,1.4088,1.4088,1.4088,1.3906,1.2723,1.2328,1.2328,1.2328,1.2152,1.2224,1.3701,1.3881,1.368,1.4001,1.3647,1.3206,1.32,1.2746,1.2311,1.2305,1.2091,1.1839,1.1462,1.1216,1.0828,1.0234,1.0127,1.0083,1.0083,0.9584,0.0,0.9633,0.8938,0.8409,0.8422,0.7886,0.7531,0.754,0.7769,0.7659,0.704,0.7552,0.7612,0.7026,0.7323,0.7471,0.7471,0.7484,0.7513,0.7513,0.0,0.0,0.0,0.0,0.0,0.0,0.0,0.0,0.0,0.0,0.0,0.0,0.0,0.0,0.0,0.0,0.0,0.0,0.0,0.0,0.0,0.0,0.6536,0.6464,0.663,0.6932,0.7387,0.7499,0.7546,0.7567,0.7641,0.7689,0.7689,0.7831,0.787,0.787,0.7814,0.8213,0.9244,0.8528,0.8902,1.058,1.0066,1.0092,1.0616,1.1163,1.1216,1.089,1.1169,1.1116,1.08,1.0663,1.0611,1.0611,1.0611,1.0438,1.0183,1.0481,1.0096,0.9666,1.1949,1.3336,1.4088,1.4088,1.4088,1.4039,1.3688,1.3027,1.2456,1.3336,1.2935,1.2457,1.3753,1.4028,1.3935,1.3801,1.3487,1.3153,1.2965,1.2784,1.2603,1.2351,1.2442,1.2395,1.1879,1.1718,1.141,1.0606,1.0261,1.0083,1.0083,0.9584,0.0,0.9324,0.8784,0.8537,0.8931,0.8664,0.8357,0.8167,0.8228,0.7903,0.7053,0.716,0.7173,0.7006,0.708,0.7141,0.7141,0.7377,0.7513,0.0,0.0,0.0,0.0,0.0,0.0,0.0,0.0,0.0,0.0,0.0,0.0,0.0,0.0,0.0,0.0,0.0,0.0,0.0,0.0,0.0,0.0,0.665,0.7031,0.7238,0.7207,0.7326,0.776,0.7851,0.7889,0.7906,0.8018,0.8041,0.7916,0.8048,0.8109,0.7992,0.7892,0.8504,1.0038,0.9048,0.9599,1.1891,1.1077,1.1034,1.1801,1.241,1.2592,1.2297,1.2783,1.2859,0.0,1.2348,1.2238,1.2233,1.2123,1.1778,0.0,0.0,0.0,0.0,0.0,1.3512,1.4088,1.4088,1.4088,1.4088,1.4088,1.3646,1.316,1.3913,1.3603,1.3203,1.3906,1.4088,1.4048,1.3874,1.352,1.3166,1.2986,1.2784,1.2549,1.2338,1.2438,1.2462,1.1993,1.1906,0.0,1.1035,1.0681,1.0488,1.0488,0.9957,0.9624,0.9773,0.9178,0.8864,0.9178,0.8871,0.8557,0.8415,0.8509,0.0,0.0,0.0,0.7475,0.7214,0.7313,0.0,0.0,0.0,0.7662,0.7662,0.0,0.0,0.0,0.8322,0.8462,0.0,0.0,0.0,0.0,0.0,0.0,0.0,0.0,0.0,0.0,0.0,0.0,0.0,0.0,0.0,0.0,0.7082,0.7395,0.7961,0.796,0.7858,0.7838,0.8092,0.8211,0.8005,0.8279,0.833,0.8032,0.8194,0.8211,0.8022,0.0,0.0,0.0,0.0,1.0448,1.2211,1.2044,1.2034,1.2175,1.3457,1.3933,1.3677,1.4869,1.5237,1.4995,1.4689,1.4549,1.4496,1.4242,1.3496,1.2504,1.237,1.237,1.2632,1.3688,1.4088,1.4088,1.4088,0.0,0.0,1.4088,1.4088,1.4088,1.4088,1.4088,1.4088,1.4088,1.4088,1.4088,1.4088,1.3674,1.326,1.326,1.2819,1.2392,1.2358,1.2351,1.2265,1.2013,1.1953,1.1824,1.1523,1.1236,1.1029,1.0995,1.0521,1.0247,1.0512,0.98,0.9277,0.9304,0.0,0.0,0.8502,0.8704,0.847,0.7598,0.8047,0.8107,0.7564,0.7782,0.7905,0.7905,0.7905,0.7905,0.7905,0.7905,0.8083,0.8402,0.8402,0.8556,0.0,0.0,0.0,0.0,0.0,0.0,0.0,0.0,0.0,0.0,0.0,0.0,0.0,0.0,0.0,0.7245,0.7611,0.7941,0.8347,0.8272,0.8136,0.7961,0.816,0.8211,0.8005,0.8042,0.8153,0.8221,0.8252,0.8258,0.8228,0.8197,0.0,1.0159,0.914,0.9809,1.2323,1.2194,1.2655,1.3698,0.0,0.0,1.5015,1.5299,1.5237,1.5008,1.4948,1.4743,1.4516,1.4456,1.4167,1.3646,1.2681,1.2899,1.3779,1.3997,1.4088,1.4088,1.4088,1.4088,1.4088,1.4088,1.4088,1.4088,1.4088,1.4088,0.0,1.4088,1.4088,1.4088,1.4088,1.3828,1.352,1.352,1.3287,1.2966,1.275,1.2697,1.261,1.2278,1.2218,1.2124,1.1837,1.1536,1.1263,1.1029,1.0727,1.0439,1.0227,0.9846,0.9686,0.989,0.9846,0.9557,0.9084,0.9098,0.8751,0.7872,0.7925,0.7939,0.7819,0.7872,0.7905,0.7905,0.7905,0.7905,0.7905,0.7905,0.8083,0.8402,0.8402,0.8556,0.0,0.0,0.0,0.0,0.0,0.0,0.0,0.0,0.0,0.0,0.0,0.6543,0.0,0.0,0.721,0.7784,0.8069,0.8313,0.8462,0.8486,0.8408,0.818,0.8221,0.8241,0.8163,0.8289,0.8374,0.8377,0.8445,0.8459,0.8381,0.8377,0.9076,1.0487,0.9105,0.9701,1.2561,1.239,1.2922,1.4118,1.5428,1.5899,1.5611,1.5611,1.5531,1.5391,1.5244,1.5097,1.4937,1.4643,1.4349,1.4039,1.3428,1.3561,1.4088,1.4088,1.4088,1.4088,1.4088,1.4088,1.4088,1.4088,1.4088,1.4088,1.4088,1.4088,1.4088,1.4088,1.4088,1.4088,1.4088,1.3868,1.36,1.36,1.3387,1.3126,1.2851,1.2784,1.2697,1.2365,1.2305,1.2258,1.2111,1.1964,1.1663,1.1082,1.0901,1.07,1.0374,1.008,0.9953,1.01,0.9824,0.9531,0.9237,0.8944,0.8617,0.8183,0.815,0.8083,0.7912,0.8052,0.815,0.815,0.815,0.8223,0.8345,0.8345,0.8444,0.8591,0.8591,0.8671,0.0,0.0,0.0,0.0,0.0,0.0,0.0,0.0,0.6537,0.7203,0.6904,0.6661,0.6953,0.7258,0.7634,0.8234,0.8367,0.8462,0.852,0.8584,0.8526,0.8258,0.8252,0.831,0.8228,0.8469,0.8584,0.8489,0.8625,0.8655,0.8533,0.8526,0.9157,1.0449,0.9097,0.9567,1.2042,1.2042,1.2657,1.3858,1.522,1.5897,1.5912,1.5804,1.5784,1.5764,1.5464,1.5311,1.5264,1.4676,1.4295,1.4088,1.4088,1.4122,1.4162,1.4108,1.4088,1.4088,1.4088,1.4088,1.4088,1.4088,1.4088,1.4088,1.4088,1.4088,1.4088,1.4088,1.4088,1.4088,1.4088,1.3908,1.3686,1.3686,1.3467,1.3227,1.3012,1.2864,1.2717,1.2438,1.2345,1.2305,1.2305,1.2305,1.2044,1.1276,1.1116,1.0969,1.0713,1.0388,1.018,1.0127,0.9664,0.9337,0.9224,0.8758,0.8482,0.8482,0.8482,0.835,0.8085,0.833,0.8482,0.8482,0.8482,0.8571,0.8804,0.8804,0.8838,0.8891,0.8891,0.8891,1.014,0.9177,0.8265,0.8417,0.8409,0.8477,0.0,0.0,0.9041,0.887,0.8129,0.7424,0.7336,0.7563,0.7872,0.8214,0.8337,0.8384,0.8648,0.8476,0.8255,0.8035,0.8187,0.8218,0.8029,0.8221,0.8367,0.8472,0.8625,0.8703,0.8686,0.8682,0.8746,0.8921,0.8783,0.8848,0.9343,1.0395,1.1556,1.296,1.3881,1.5004,1.6213,1.5952,1.5784,1.5751,1.5251,1.5055,1.5015,1.4376,1.4115,1.4088,1.4088,1.4249,1.4442,1.4182,1.4088,1.4088,1.4088,1.4088,1.4088,1.4088,1.4088,1.4088,1.4088,1.4088,1.4088,1.4088,1.4088,1.4088,1.4088,1.4062,1.4041,1.4041,1.3808,1.3547,1.3507,1.3126,1.277,1.2737,1.2485,1.2305,1.2305,1.2305,1.2184,1.1859,1.1543,1.1276,1.0982,1.072,1.0439,1.0117,1.003,0.9777,0.9257,0.8918,0.8758,0.8758,0.8758,0.8744,0.8711,0.8744,0.8758,0.8758,0.8758,0.8778,0.8804,0.8804,0.8911,0.9164,0.9164,0.9164,1.1062,1.0825,1.0444,0.0,1.0538,1.0722,1.0201,0.9722,0.9353,0.9244,0.8432,0.7702,0.7638,0.7875,0.8147,0.0,0.8469,0.8537,0.8574,0.8401,0.818,0.7936,0.7892,0.7923,0.7978,0.818,0.8367,0.8598,0.8672,0.875,0.8838,0.879,0.879,0.879,0.8757,0.8784,0.8881,1.0973,1.188,1.1619,1.451,1.5664,1.5289,1.5817,1.5992,1.5764,1.5571,1.5371,1.5197,1.495,1.475,1.464,1.464,1.4669,1.4723,1.4255,1.4195,1.4315,1.4142,1.4088,1.4088,1.4088,1.4088,1.4088,1.4088,1.4088,1.4088,1.4088,1.4088,1.4088,1.4088,1.4088,1.4088,1.4088,1.3988,1.3854,1.364,1.3313,1.3019,1.3019,1.2632,1.2358,1.2569,1.2418,1.2265,1.2138,1.187,1.1516,1.1049,1.0889,1.0635,1.0137,1.0083,0.985,0.9264,0.9098,0.8958,0.8818,0.8804,0.8804,0.8804,0.8804,0.8858,0.9031,0.9031,0.9118,0.9319,0.9319,0.9379,0.9499,0.9499,0.9586,1.157,0.0,0.0,1.1669,1.2236,1.2527,1.1316,1.0498,0.9896,0.9578,0.8583,0.7907,0.8193,0.853,0.874,0.8844,0.9003,0.8962,0.849,0.8299,0.8192,0.8213,0.7848,0.7807,0.8267,0.8265,0.833,0.8625,0.8686,0.8777,0.8875,0.8885,0.8885,0.8885,0.8832,0.8825,0.8881,1.0862,1.1696,1.1438,1.4543,1.5721,1.5263,1.6067,1.6233,1.5945,1.5818,1.5665,1.5391,1.5311,1.5202,1.5008,1.5008,1.5062,1.5068,1.4559,1.4462,1.4603,1.4309,1.4208,1.4195,1.4115,1.4088,1.4088,1.4088,1.4088,1.4088,1.4088,1.4088,1.4088,1.4088,1.4088,1.4088,1.4088,1.4088,1.4028,1.3773,1.3493,1.3327,1.3327,1.2839,1.2529,1.275,1.2536,1.2305,1.2305,1.2124,1.1839,1.1296,1.1089,1.0828,1.0401,1.0214,0.9917,0.9491,0.9377,0.9244,0.9065,0.8971,0.8965,0.9045,0.8971,0.9038,0.9331,0.9331,0.9466,0.9715,0.9715,0.9726,0.98,0.98,0.996,1.1395,0.0,1.1339,1.1799,1.264,1.3059,1.1942,1.1748,1.1478,1.0217,0.8826,0.8145,0.9244,0.9631,0.9747,0.978,0.9962,0.9728,0.848,0.8143,0.8322,0.9163,0.8294,0.8002,0.0,0.8449,0.8167,0.8465,0.8625,0.8777,0.8875,0.8885,0.8885,0.8885,0.8878,0.8878,0.8885,0.8989,1.0449,1.32,1.3037,1.4399,1.7121,1.6827,1.6533,1.6295,1.5952,1.5665,1.5378,1.5142,1.5015,1.5008,1.5008,1.5182,1.5344,1.5095,1.4988,1.4955,1.4609,1.4502,1.4456,1.4175,1.4088,1.4088,1.4088,1.4088,1.4088,1.4088,1.4088,1.4088,1.4088,1.4088,1.4088,1.4088,1.4088,1.4082,1.4075,1.3841,1.3586,1.3586,1.3146,1.277,1.2784,1.2536,1.2305,1.2305,1.2291,1.2178,1.1913,1.1349,1.0982,1.0969,1.0454,1.0077,1.0057,0.9833,0.9695,0.9688,0.9357,0.9324,0.9675,0.9351,0.9337,0.9666,0.9695,0.9679,0.9715,0.9715,0.9826,1.01,1.01,1.0261,1.2291,0.0,1.3316,1.4019,1.4798,1.4975,1.3736,1.2721,1.1657,1.0171,0.863,0.7659,0.8027,0.8162,0.8247,0.8467,0.8742,0.8805,0.8498,0.8364,0.8336,0.8305,0.7975,0.0,0.0,0.0,0.0,0.9721,0.9662,0.9817,1.0327,0.9427,0.8885,0.8885,0.8885,0.8885,0.8885,0.9864,1.0836,1.1864,1.3666,1.5468,1.7199,1.7099,1.684,1.6547,1.6253,1.6066,1.5952,1.5658,1.5538,1.5538,1.5538,1.5598,1.5671,1.5571,1.5538,1.5438,1.4756,1.4522,1.4476,1.4182,1.4088,1.4088,1.4088,1.4088,1.4088,1.4088,1.4088,1.4088,1.4088,1.4088,1.4088,1.4088,1.4088,1.4088,1.4088,1.3854,1.366,1.3901,1.346,1.3113,1.3307,1.31,1.2906,1.2906,1.2398,1.202,1.1913,1.1356,1.0995,1.0995,1.0641,1.0327,1.0134,1.0027,0.9886,0.9722,0.9593,0.9579,0.9708,0.9586,0.9673,0.9967,0.9973,1.0067,1.0298,1.0298,1.0345,1.0445,1.0445,1.0492,1.3093,1.3955,1.4609,1.5491,1.6201,1.6196,1.4588,1.3231,1.1808,0.9928,0.8548,0.779,0.8099,0.821,0.8281,0.8535,0.8648,0.8577,0.834,0.8323,0.8387,0.8583,0.8168,0.0,0.0,0.0,0.0,0.9641,0.9583,0.9745,1.0237,0.9395,0.8885,0.8885,0.8885,0.8885,0.8885,1.0347,1.1592,1.267,1.5037,1.6569,1.7353,1.7353,1.7192,1.6854,1.6717,1.6516,1.6259,1.6066,1.5925,1.5784,1.5784,1.5784,1.5784,1.5784,1.5784,1.5671,1.495,1.4676,1.4616,1.4215,1.4088,1.4088,1.4088,1.4088,1.4088,1.4088,1.4088,1.4088,1.4088,1.4088,1.4088,1.4088,1.4088,1.4088,1.4088,1.3935,1.3854,1.4048,1.3694,1.3387,1.3573,1.336,1.3213,1.3213,1.2719,1.2348,1.2234,1.1705,1.1309,1.1309,1.1042,1.0748,1.0454,1.0428,1.0307,1.0043,0.99,0.9886,1.0023,0.9893,0.998,1.0267,1.0374,1.0521,1.0747,1.0747,1.0747,1.0747,1.064,1.0646,1.3828,1.464,1.5303,1.6154,1.679,1.666,1.4576,1.3318,1.1943,0.9624,0.8653,0.8475,0.0,0.0,0.9732,0.9888,0.9551,0.9019,0.8146,0.8019,0.8521,0.0,0.0,0.0,0.0,0.0,0.0,0.8385,0.0,0.8814,0.8946,0.8917,0.8888,0.8895,0.8888,0.8937,0.8992,1.0566,1.267,1.5417,1.6876,1.7582,1.7582,1.7582,1.7481,1.7226,1.7206,1.6884,1.6319,1.6348,1.6119,1.5852,1.5852,1.5798,1.5784,1.5784,1.5784,1.5752,1.5184,1.5022,1.4914,1.4295,1.4095,1.4088,1.4088,1.4088,1.4088,1.4088,1.4088,1.4088,1.4088,1.4088,1.4088,1.4088,1.4088,1.4088,1.4088,1.4088,1.4088,1.4088,1.3854,1.3626,1.3626,1.34,1.3253,1.3253,1.324,1.3113,1.2831,1.2281,1.1926,1.1906,1.1603,1.1316,1.1042,1.1002,1.0914,1.0653,1.0314,1.0274,1.06,1.0314,1.0294,1.0606,1.0868,1.1015,1.1015,1.1015,1.1015,1.1009,1.0767,1.0787,1.4743,1.5645,1.6366,1.6864,1.7092,1.6655,1.4696,1.3473,1.2187,1.02,0.9077,0.8576,0.0,0.0,0.0,0.8753,0.9107,0.0,0.8457,0.8465,0.0,0.0,0.0,0.8725,0.8799,0.8991,0.0,0.0,0.9346,1.0543,1.2206,1.0126,0.8988,0.9096,0.8994,0.9427,1.0511,1.3048,1.4663,1.5417,1.6876,1.7582,1.7582,1.7582,1.7542,1.7514,1.7293,1.7119,1.6958,1.6687,1.6426,1.6159,1.6159,1.6025,1.5784,1.5784,1.5784,1.5731,1.5411,1.5189,1.4948,1.4529,1.4262,1.4088,1.4088,1.4088,1.4088,1.4088,1.4088,1.4088,1.4088,1.4088,1.4088,1.4088,1.4088,1.4088,1.4088,1.4088,1.4088,1.4088,1.4021,1.3975,1.3975,1.3915,1.3861,1.3861,1.3674,1.334,1.2851,1.2462,1.2104,1.1926,1.1603,1.1362,1.1289,1.1116,1.1056,1.1196,1.0728,1.0606,1.0901,1.0808,1.0802,1.0914,1.1169,1.1316,1.1316,1.1316,1.1316,1.1316,1.1236,1.1243,1.5651,1.6426,1.6974,1.732,1.7199,1.6419,1.4316,1.3309,1.2212,0.9997,0.9431,0.0,0.0,0.0,0.0,0.0,0.0,0.0,0.8299,0.8421,0.8581,0.0,0.8927,0.0,0.8886,0.9694,1.0428,0.0,1.0214,1.0586,1.2454,1.1046,1.0197,1.0213,1.0731,1.1621,1.2994,1.4609,1.5737,1.6387,1.7199,1.7582,1.7582,1.7582,1.7582,1.7569,0.0,1.732,1.7179,1.6827,1.6533,1.6308,1.6126,1.5979,1.5784,1.5784,1.5784,1.5758,1.5645,1.5398,1.5084,1.4663,1.4409,1.4255,1.4128,1.4088,1.4088,1.4088,1.4088,1.4088,1.4088,1.4088,1.4088,1.4088,1.4088,1.4088,1.4088,1.4088,1.4088,1.4088,1.4088,1.4088,1.4088,1.4088,1.4088,1.4088,1.3948,1.3667,1.32,1.2766,1.2469,1.2308,1.1984,1.1757,1.163,1.147,1.1396,1.1389,1.1122,1.1015,1.1176,1.1182,1.1182,1.1182,1.147,1.1623,1.1623,1.1623,1.1623,1.1617,1.1483,1.1496,1.6533,1.7041,1.7373,1.7528,1.7114,1.6088,1.3866,1.3089,1.2187,0.9856,0.0,1.0162,1.0012,0.0,0.8696,0.9075,0.0,0.7556,0.8185,0.8433,0.8696,0.9139,0.9228,0.9299,0.9398,1.0902,1.2329,1.3578,1.1322,1.0494,1.1927,1.2059,1.203,1.1776,1.3181,1.4385,1.5364,1.5577,1.6333,1.7582,1.7582,1.7582,1.7582,1.7582,1.7582,1.7582,0.0,0.0,1.7239,1.6927,1.6627,1.6306,1.6046,1.5851,1.5784,1.5784,1.5784,1.5784,1.5784,1.5665,1.5357,1.477,1.4583,1.4516,1.4188,1.4115,1.4135,1.4095,1.4088,1.4088,1.4088,1.4088,1.4088,1.4088,1.4088,1.4088,1.4088,1.4088,1.4088,1.4088,1.4088,1.4088,1.4088,1.4088,1.4088,1.4088,1.4088,1.3995,1.3693,1.318,1.2831,1.279,1.2516,1.2204,1.1986,1.1926,1.1777,1.1522,1.1435,1.1409,1.1449,1.1483,1.1483,1.1483,1.1777,1.196,1.196,1.196,1.196,1.1953,1.1663,1.1677,1.7308,1.7655,1.7842,1.7635,1.6961,1.5991,1.4589,1.3311,0.0,0.0,0.0,1.0023,1.0736,1.0663,0.0,1.0465,0.0,0.0,0.0,0.0,0.957,0.0,0.0,0.0,0.0,0.0,0.0,0.0,0.0,1.4129,1.5517,1.438,1.3595,1.3321,1.4505,1.519,1.5417,1.6605,1.7364,1.7582,1.7582,1.7582,1.7582,1.7582,1.7582,1.7582,1.7582,0.0,1.7554,1.7448,1.7114,1.6627,1.6573,1.6259,1.5784,1.5784,1.5784,1.5784,1.5784,1.5751,1.5658,1.5077,1.4928,1.4834,1.4249,1.4255,1.4396,1.4155,1.4088,1.4088,1.4088,1.4088,1.4088,1.4088,1.4088,1.4088,1.4088,1.4088,1.4088,1.4088,1.4088,1.4088,1.4088,1.4088,1.4088,1.4088,1.4088,1.4068,1.4015,1.3494,1.3033,1.2811,1.2516,1.2278,1.2231,1.204,1.1986,1.2138,1.1697,1.1536,1.1819,1.1826,1.1826,1.1826,1.2078,1.2225,1.2225,1.2225,1.2225,1.2225,1.2171,1.2178,1.7655,1.805,1.8163,1.7695,1.6807,1.5651,1.4175,0.0,0.0,0.0,1.1324,1.1091,1.1184,0.0,0.0,0.0,0.0,0.0,0.0,0.0,0.0,0.0,0.0,0.0,0.0,0.0,0.0,0.0,0.0,1.6906,1.6637,1.5875,1.5699,1.6194,1.5867,1.5934,1.6552,1.7259,1.7582,1.7582,1.7582,1.7582,1.7582,1.7582,1.7582,1.7582,1.7582,0.0,1.7569,1.7474,1.7239,1.6921,1.6767,1.644,1.6059,1.6059,1.5965,1.5784,1.5784,1.5784,1.5711,1.5331,1.5129,1.4928,1.4449,1.4302,1.4295,1.4309,1.4202,1.4122,1.4275,1.4202,1.4088,1.4088,1.4088,1.4088,1.4088,1.4088,1.4088,1.4088,1.4088,1.4088,1.4088,1.4088,1.4088,1.4088,1.4088,1.4088,1.4088,1.3707,1.332,1.3019,1.2757,1.2509,1.2318,1.2178,1.2151,1.2291,1.2037,1.1944,1.2091,1.2091,1.2091,1.2091,1.2231,1.2305,1.2305,1.2305,1.2305,1.2305,1.2305,1.2305,1.7876,1.8217,1.8263,1.7722,1.6607,1.5197,1.3696,1.3011,0.0,0.0,1.1765,1.187,1.157,0.0,0.0,0.0,0.0,0.0,0.0,0.0,0.0,0.0,0.0,0.0,0.0,0.0,0.0,0.0,0.0,0.0,1.7365,1.7183,1.7585,1.8535,1.7213,1.6901,1.7776,1.7776,1.7742,1.7682,1.7682,1.7649,1.7582,1.7582,1.7582,1.7582,1.7582,0.0,0.0,1.7387,1.7259,1.7179,1.6894,1.6627,1.6359,1.6342,1.6126,1.5912,1.5804,1.5784,1.5792,1.5565,1.5337,1.5084,1.4723,1.4502,1.4402,1.4569,1.4659,1.4644,1.4519,1.4557,1.4487,1.4186,1.4088,1.4088,1.4088,1.4088,1.4088,1.4088,1.4088,1.4088,1.4088,1.4088,1.4088,1.4088,1.4088,1.4088,1.4088,1.3881,1.3586,1.3333,1.3065,1.2764,1.2425,1.2458,1.2438,1.2311,1.2365,1.2365,1.2305,1.2305,1.2305,1.2305,1.2305,1.2305,1.2305,1.2305,1.2305,1.2305,1.2305,1.2305,1.8083,1.8009,1.7949,1.7669,1.6348,1.4825,1.3949,0.0,0.0,1.2127,1.1524,1.1209,1.2035,1.1161,1.0616,0.0,0.0,1.0863,0.0,0.0,0.0,0.0,0.0,0.0,0.0,0.0,0.0,0.0,0.0,0.0,1.9145,1.883,1.8735,1.8885,1.8486,1.832,1.841,1.841,1.827,1.7949,1.7949,1.7856,1.7582,1.7582,1.7582,1.7582,1.7582,0.0,0.0,1.7555,1.744,1.7199,1.7172,1.6927,1.6633,1.6373,1.6301,1.6192,1.5925,1.5784,1.5778,1.5751,1.5772,1.5645,1.509,1.509,1.5224,1.5035,1.5713,1.6228,1.4874,1.529,1.5773,1.4431,1.4088,1.4088,1.4088,1.4088,1.4088,1.4088,1.4088,1.4088,1.4088,1.4088,1.4088,1.4088,1.4088,1.4088,1.4088,1.4062,1.3935,1.3593,1.33,1.3039,1.277,1.2966,1.2893,1.2338,1.2596,1.2623,1.2311,1.2305,1.2305,1.2305,1.2305,1.2305,1.2305,1.2305,1.2305,1.2305,1.2305,1.2305,1.8207,1.8371,1.8156,1.7541,1.6181,1.474,1.3734,0.0,1.1913,1.2,1.2025,1.2045,1.2014,1.1401,1.1016,1.1396,1.0989,0.0,0.0,0.0,0.0,0.0,0.0,0.0,0.0,0.0,0.0,0.0,0.0,0.0,1.9424,1.9259,1.9112,1.8931,1.8811,1.8664,1.849,1.849,1.8343,1.7995,1.7995,1.7883,1.7582,1.7582,1.7582,1.7582,1.7582,0.0,0.0,1.7582,1.7515,1.746,1.746,1.728,1.6934,1.664,1.6426,1.6226,1.5932,1.5784,1.5784,1.5784,1.5784,1.5752,1.5344,1.5184,1.515,1.5211,1.5315,1.5472,1.5704,1.5855,1.5863,1.5523,1.4747,1.4088,1.4088,1.4615,1.4852,1.4208,1.4615,1.4852,1.4208,1.4088,1.4088,1.4088,1.4088,1.4088,1.4088,1.4088,1.4041,1.3928,1.3606,1.3313,1.3053,1.314,1.3026,1.2636,1.2717,1.265,1.2311,1.2478,1.2522,1.2305,1.2516,1.2516,1.2305,1.2879,1.3135,1.3135,1.3135,1.3135,1.817,1.8585,1.8492,1.7675,1.6378,1.4976,0.0,0.0,1.231,1.215,1.2535,1.2749,1.2212,1.1662,1.1203,1.0937,1.0356,1.003,0.0,0.0,0.0,0.0,0.0,0.0,0.0,0.0,0.0,0.0,0.0,0.0,0.0,1.9424,1.9272,1.9058,1.9052,1.8958,1.8751,1.8664,1.847,1.8176,1.8035,1.7883,1.7582,1.7582,1.7582,1.7582,0.0,0.0,0.0,1.7582,1.7582,1.7582,1.7582,1.7455,1.7286,1.6847,1.6573,1.6346,1.5959,1.5784,1.5784,1.5784,1.5784,1.5744,1.5585,1.5384,1.5244,1.5364,1.5293,1.5502,1.6841,1.6889,1.6606,1.6738,1.6017,1.5225,1.5082,1.5628,1.5951,1.5186,1.5379,1.5455,1.4692,1.4573,1.4573,1.4573,1.4573,1.4573,1.4573,1.4292,1.4088,1.4088,1.3901,1.3613,1.332,1.342,1.33,1.2945,1.3005,1.2918,1.2585,1.2811,1.297,1.3047,1.2869,1.2972,1.3337,1.3572,1.3854,1.4135,1.3854,1.3564,1.7811,1.845,1.8929,1.8238,1.7032,1.5627,0.0,0.0,1.2896,1.2899,1.2881,1.2905,1.2881,1.2013,1.1088,1.0504,0.9912,0.0,0.0,0.0,0.0,0.0,0.0,0.0,0.0,0.0,0.0,0.0,0.0,0.0,0.0,1.9424,1.9424,1.9366,1.9366,1.9417,1.9417,1.9065,1.8771,1.8484,1.8135,1.7883,1.7582,1.7582,1.7582,0.0,0.0,0.0,0.0,1.7582,1.7582,1.7582,1.7582,1.7582,1.7508,1.6921,1.67,1.662,1.6032,1.5784,1.5784,1.5784,1.5784,1.5784,1.5778,1.5771,1.5758,1.5478,1.6055,1.7062,1.8286,1.8579,1.8487,1.8096,1.7971,1.7821,1.7376,1.7302,1.7302,1.7253,1.6437,1.5696,1.5703,1.5696,1.5696,1.5696,1.5696,1.5696,1.5696,1.4776,1.4088,1.4088,1.4082,1.3961,1.3626,1.3908,1.3828,1.324,1.3433,1.346,1.3213,1.32,1.3692,1.4748,1.3456,1.378,1.5756,1.4361,1.4207,1.5163,1.4171,1.32,1.6229,1.648,1.6351,1.595,1.5061,1.4177,1.3806,0.0,1.2429,1.2199,1.2153,1.2153,1.2153,1.1116,1.0636,1.173,1.1118,0.0,0.0,0.0,0.0,0.0,0.0,0.0,0.0,0.0,0.0,0.0,0.0,0.0,0.0,1.9424,1.9424,1.9424,1.9424,1.9272,1.9065,1.8971,1.8677,1.8135,1.8035,1.7883,1.7582,1.7582,0.0,0.0,0.0,0.0,0.0,1.7582,1.7582,1.7582,1.7582,1.7582,1.7515,1.6921,1.6707,1.662,1.6032,1.5784,1.5784,1.5784,1.6386,1.6943,1.6062,1.5784,1.5907,1.6451,1.8019,1.9557,2.0043,1.9935,1.9662,1.9539,1.8725,1.7871,1.7416,1.7908,1.8348,1.787,1.7875,1.7814,1.7333,1.7006,1.6805,1.6805,1.6805,1.6805,1.6805,1.5869,1.5171,1.5171,1.4531,1.4048,1.3955,1.4035,1.4241,1.4627,1.4732,1.4949,1.5373,1.5623,1.5794,1.5893,1.5707,1.5805,1.6205,1.6439,1.6562,1.6545,1.5954,1.519,0.0,1.5659,1.5654,1.524,1.4681,0.0,0.0,0.0,1.2277,1.1879,1.1591,1.1416,1.1416,1.0655,1.0307,1.1241,1.0844,0.0,0.0,0.0,0.0,0.0,0.0,0.0,0.0,0.0,0.0,0.0,0.0,0.0,0.0,1.9199,1.9152,1.9038,1.9145,1.9058,1.8764,1.8595,1.8355,1.7995,1.7876,1.7769,1.7582,1.7582,0.0,0.0,0.0,0.0,0.0,1.7582,1.7582,1.7582,1.7582,1.7582,1.7515,1.6921,1.6707,1.662,1.6032,1.5784,1.5784,1.5784,1.6669,1.7638,1.7304,1.6797,1.6501,1.7385,1.9144,2.0802,2.0889,2.1084,2.1244,2.0894,2.0276,1.9516,1.8894,1.947,1.9987,1.9567,1.9447,1.9263,1.8694,1.8348,1.8102,1.7965,1.7948,1.7948,1.7948,1.6968,1.6314,1.6314,1.5711,1.5311,1.5311,1.4943,1.5099,1.6019,1.6043,1.6254,1.6727,1.6942,1.7147,1.7385,1.7074,1.7162,1.773,1.8221,1.8101,1.7479,1.7216,1.6474,0.0,1.5439,0.0,0.0,0.0,0.0,0.0,0.0,0.0,1.1846,1.1241,1.0804,1.0777,1.0477,1.009,0.9713,0.9654,0.0,0.0,0.0,0.0,0.0,0.0,0.0,0.0,0.0,0.0,0.0,0.0,0.0,0.0,1.8925,1.8784,1.847,1.8724,1.8731,1.8464,1.8183,1.7982,1.7955,1.7722,1.7582,1.7582,1.7582,0.0,0.0,0.0,0.0,0.0,1.7582,1.7582,1.7582,1.7582,1.7582,1.7515,1.6947,1.674,1.6653,1.6066,1.5865,1.5858,1.5927,1.6763,1.7956,1.919,1.86,1.7663,1.8406,1.9774,2.1065,2.1065,2.2066,2.2886,2.2129,2.2227,2.2285,2.1424,2.1602,2.1894,2.1924,2.1057,2.0221,1.9852,1.9743,1.9598,1.9261,1.9152,1.9125,1.9161,1.8126,1.7415,1.7415,1.7342,1.7334,1.7423,1.6437,1.6273,1.7334,1.7415,1.7464,1.7536,1.7536,1.802,1.9076,1.7826,1.8062,1.9961,1.9541,1.8877,1.8053,1.8017,1.731,1.165,0.0,1.3148,1.2674,1.3043,1.3309,0.0,0.0,0.0,0.0,0.0,0.0,0.0,1.0041,1.0041,1.1798,1.1648,0.0,0.0,0.0,0.0,0.0,0.0,0.0,0.0,0.0,0.0,0.0,0.0,0.0,0.0,1.8925,1.8684,1.8115,1.8162,1.8162,1.8095,1.8029,1.7876,1.7689,1.7615,1.7582,1.7582,1.7582,0.0,0.0,0.0,0.0,1.7582,1.7582,1.7582,1.7582,1.7582,1.7582,1.7542,1.7226,1.7099,1.7012,1.6373,1.6166,1.6319,1.7022,1.7458,1.8049,1.9881,2.0368,2.0365,2.0554,2.1588,2.2577,2.2577,2.2838,2.2964,2.249,2.2441,2.2373,2.1846,2.1816,2.1982,2.2305,2.1881,2.156,2.1771,2.1281,2.0886,2.1166,2.0668,2.0321,2.0627,1.9476,1.8598,1.8598,1.7827,1.7658,1.851,1.7577,1.7415,1.851,1.8598,1.8957,1.9795,1.9835,1.9962,2.0206,1.9896,1.9965,2.0449,1.998,1.9653,1.9409,1.9093,1.8772,1.0625,1.1553,1.2367,1.1747,1.2383,1.3006,1.2387,0.0,0.0,0.0,0.0,0.0,0.0,0.0,0.0,0.0,0.0,0.0,0.0,0.0,0.0,0.0,0.0,0.0,0.0,0.0,0.0,0.0,0.0,0.0,0.0,1.8468,1.8255,1.7849,1.7836,1.7836,1.7836,1.7836,1.7749,1.7582,1.7582,1.7582,1.7582,1.7582,1.7582,0.0,0.0,0.0,1.7582,1.7582,1.7582,1.7582,1.7582,1.7582,1.7549,1.7306,1.7199,1.7119,1.6529,1.6186,1.632,1.8009,1.8549,1.8915,2.1146,2.1951,2.2082,2.1895,2.2436,2.3091,2.3091,2.3091,2.2984,2.2617,2.2656,2.2685,2.2266,2.2324,2.2529,2.2711,2.2617,2.2471,2.251,2.2129,2.1836,2.1875,2.1515,2.13,2.1504,2.0652,2.0017,2.0017,1.9304,1.9067,1.9678,1.8709,1.855,1.9638,1.9717,2.0001,2.0566,2.0605,2.0605,2.0605,2.0605,2.0605,2.0605,2.037,2.0215,2.0215,1.998,1.9766,1.0459,1.177,1.2806,1.1634,1.2401,1.3195,1.2252,0.0,0.0,0.0,0.0,0.0,0.0,0.0,0.0,0.0,0.0,0.0,0.0,0.0,0.0,0.0,0.0,0.0,0.0,0.0,0.0,0.0,0.0,0.0,0.0,1.7995,1.7903,1.7595,1.7582,1.7582,1.7582,1.7582,1.7582,1.7582,1.7582,1.7582,1.7582,1.7582,1.7582,0.0,0.0,0.0,1.7582,1.7582,1.7582,1.7582,1.7582,1.7582,1.7555,1.7353,1.7266,1.7179,1.6589,1.6146,1.6259,1.8511,1.936,1.9906,2.2129,2.295,2.3023,2.2705,2.2818,2.3091,2.3091,2.3091,2.3003,2.2652,2.2838,2.3003,2.2685,2.2847,2.3091,2.3091,2.3091,2.2984,2.2676,2.2549,2.2412,2.2119,2.1963,2.1904,2.1973,2.1543,2.119,2.119,2.083,2.0605,2.0605,1.9599,1.9402,2.0284,2.0362,2.045,2.0605,2.0605,2.0605,2.0605,2.0605,2.0605,2.0605,2.0605,2.0605,2.0605,2.0605,2.041,1.1204,1.2627,1.3317,1.0795,1.1667,1.2761,1.1199,1.1128,0.0,0.0,0.0,0.0,0.0,0.0,0.0,0.0,0.0,0.0,0.0,0.0,0.0,0.0,0.0,0.0,0.0,0.0,0.0,0.0,0.0,0.0,0.0,0.0,1.7903,1.7595,1.7582,1.7582,1.7582,1.7582,1.7582,1.7582,1.7582,1.7582,1.7582,1.7582,1.7582,0.0,0.0,1.7582,1.7582,1.7582,1.7582,1.7582,1.7582,1.7582,1.7582,1.7528,1.7515,1.7435,1.684,1.6446,1.6401,1.7586,1.8688,1.9761,2.1168,2.2306,2.3081,2.3013,2.3042,2.3091,2.3091,2.3091,2.3081,2.3013,2.3052,2.3081,2.3013,2.3052,2.3091,2.3091,2.3091,2.3071,2.3013,2.2744,2.2607,2.2857,2.2344,2.2012,2.2373,2.1678,2.119,2.119,2.083,2.0605,2.0605,1.9599,1.9076,1.9244,1.9244,1.9638,2.0566,2.0605,2.0605,2.0605,2.0605,2.0605,2.0605,2.0605,2.0605,2.0605,2.0605,2.0566,1.0782,1.2162,1.3038,1.1349,1.2627,1.3731,1.1616,1.1592,0.0,0.0,0.0,0.0,0.0,0.0,0.0,0.0,0.0,0.0,0.0,0.0,0.0,0.0,0.0,0.0,0.0,0.0,0.0,0.0,0.0,0.0,0.0,0.0,1.7729,1.7589,1.7582,1.7582,1.7582,1.7582,1.7582,1.7582,1.7582,1.7582,1.7582,1.7582,1.7582,1.7582,0.0,1.7582,1.7582,1.7582,1.7582,1.7582,1.7582,1.7582,1.7582,1.7582,1.7382,1.7068,1.68,1.6413,1.6341,1.8087,1.9047,1.9852,2.1721,2.2677,2.3091,2.3091,2.3091,2.3091,2.3091,2.3091,2.3091,2.3091,2.3091,2.3091,2.3091,2.3091,2.3091,2.3091,2.3091,2.3091,2.3091,2.2935,2.2877,2.3062,2.2812,2.2637,2.2779,2.2262,2.1836,2.1611,2.1191,2.083,2.0625,1.9599,1.8997,1.8997,1.8997,1.9481,2.0566,2.0605,2.0605,2.0605,2.0605,2.0605,2.0605,2.0605,2.0605,2.0605,2.0605,2.0605,1.0547,1.1688,1.2672,1.207,1.3363,1.4328,1.2672,1.2321,1.2336,0.0,0.0,0.0,0.0,0.0,0.0,0.0,0.0,0.0,0.0,0.0,0.0,0.0,0.0,0.0,0.0,0.0,0.0,0.0,0.0,0.0,0.0,0.0,1.7582,1.7582,1.7582,1.7582,1.7582,1.7582,1.7582,1.7582,1.7582,1.7582,1.7582,1.7582,1.7582,1.7582,1.7508,1.7534,1.7475,1.7408,1.7422,1.7534,1.7534,1.7522,1.7575,1.7508,1.7441,1.7335,1.7191,1.7078,1.7421,1.9448,2.0087,2.0497,2.2609,2.3179,2.312,2.3218,2.3169,2.3091,2.3091,2.3091,2.3091,2.3091,2.3091,2.3091,2.3091,2.3091,2.3091,2.3091,2.3091,2.3091,2.3091,2.3091,2.3091,2.3091,2.3091,2.3091,2.3091,2.273,2.2383,2.207,2.1641,2.1081,2.0428,1.9536,1.8997,1.8997,1.8997,1.9481,2.0566,2.0605,2.0605,2.0605,2.0605,2.0605,2.0605,2.0605,2.0605,2.0605,2.0605,2.0605,1.1292,1.2006,1.2496,1.2305,1.2753,1.345,1.4117,1.2941,1.2059,1.3447,0.0,0.0,0.0,0.0,0.0,0.0,0.0,0.0,0.0,0.0,0.0,0.0,0.0,0.0,0.0,0.0,0.0,0.0,0.0,0.0,0.0,0.0,0.0,1.7582,1.7582,1.7582,1.7582,1.7582,1.7582,1.7582,1.7582,1.7582,1.7582,1.7582,1.7582,1.7569,1.7347,1.7233,1.7213,1.6881,1.6934,1.7233,1.7233,1.7393,1.7549,1.7333,1.8135,1.9265,1.8616,1.9439,2.0924,2.1593,2.1842,2.2071,2.3371,2.3457,2.3179,2.3633,2.3457,2.3091,2.3091,2.3091,2.3091,2.3091,2.3091,2.3091,2.3091,2.3091,2.3091,2.3091,2.3091,2.3091,2.3091,2.3091,2.3091,2.3091,2.3091,2.3091,2.3091,2.273,2.25,2.2471,2.209,2.1272,1.9779,1.9245,1.8997,1.8997,1.8997,1.9481,2.0566,2.0605,2.0605,2.0605,2.0605,2.0605,2.0605,2.0605,2.0605,2.0605,2.0605,2.0605,1.0694,1.1756,1.2799,1.2994,1.336,1.3756,1.415,1.378,1.3535,1.4321,1.4026,0.0,0.0,0.0,0.0,0.0,0.0,0.0,0.0,0.0,0.0,0.0,0.0,0.0,0.0,0.0,0.0,0.0,0.0,0.0,0.0,0.0,0.0,1.7041,1.7041,1.7041,1.7041,1.7041,1.7041,1.7041,1.7273,1.7215,1.7041,1.7041,1.7041,1.7079,1.7708,1.801,1.8046,1.8742,1.9052,1.9174,1.9174,1.9602,2.0089,1.9701,2.0,2.054,1.9971,2.0321,2.108,2.1771,2.1979,2.2254,2.3727,2.3877,2.3633,2.4062,2.4062,2.3867,2.3613,2.334,2.3091,2.3091,2.3091,2.3091,2.3091,2.3091,2.3091,2.3091,2.3091,2.3091,2.3091,2.3091,2.3091,2.3091,2.3091,2.3091,2.3091,2.2955,2.2481,2.1506,2.0755,2.032,2.0227,2.0087,2.0001,2.0001,1.9362,1.9481,2.0566,2.0605,2.0605,2.0605,2.0605,2.0605,2.0605,2.0605,2.0605,2.0605,2.0605,2.0605,1.0303,1.1219,1.2349,1.3114,1.3727,1.4332,1.5138,1.4748,1.4414,1.5192,1.4979,1.4569,0.0,0.0,0.0,0.0,0.0,0.0,0.0,0.0,0.0,0.0,0.0,0.0,0.0,0.0,0.0,0.0,0.0,0.0,0.0,0.0,0.0,0.0,1.6707,1.6707,1.6707,1.6707,1.666,1.6573,1.7168,1.7209,1.6707,1.6707,1.6707,1.675,1.7865,1.8353,1.8443,1.9614,2.0155,2.0253,2.0253,2.0744,2.142,2.0843,2.1152,2.1695,2.1329,2.1613,2.2247,2.2805,2.2964,2.3159,2.4299,2.4326,2.4072,2.4502,2.4521,2.4385,2.4238,2.3867,2.35,2.35,2.3393,2.3305,2.3305,2.3188,2.3091,2.3091,2.3091,2.3091,2.3091,2.3091,2.3091,2.3091,2.3091,2.3091,2.3091,2.2984,2.2462,2.12,2.0417,2.0183,2.0722,2.0683,2.0605,2.0605,1.9923,1.9835,2.0566,2.0605,2.0605,2.0605,2.0605,2.0605,2.0605,2.0605,2.0605,2.0605,2.0605,2.0605,1.0312,1.0473,1.0981,1.2532,0.0,0.0,1.745,1.5829,1.4375,1.6224,1.5739,1.4921,1.4583,0.0,0.0,0.0,0.0,0.0,0.0,0.0,0.0,0.0,0.0,0.0,0.0,0.0,0.0,0.0,0.0,0.0,0.0,0.0,0.0,0.0,1.67,1.67,1.67,1.67,1.6553,1.6315,1.7498,1.7615,1.67,1.6693,1.6744,1.678,1.7732,1.8115,1.8188,1.9138,1.9703,1.9931,1.9931,2.0366,2.0958,2.0194,2.1251,2.2976,2.2542,2.3588,2.5116,2.5106,2.5106,2.5116,2.5116,2.4775,2.4512,2.4951,2.4766,2.4531,2.5008,2.4756,2.4424,2.4414,2.4102,2.3799,2.3789,2.3447,2.3101,2.3091,2.3091,2.3091,2.3091,2.3091,2.3091,2.3091,2.3091,2.3091,2.3091,2.2721,2.2344,2.1924,2.1453,2.119,2.119,2.082,2.0605,2.0605,2.0605,2.0605,2.0605,2.0605,2.0605,2.0605,2.0605,2.0605,2.0605,2.0605,2.0605,2.0605,2.0605,2.0605,1.0723,1.1091,0.0,1.3758,0.0,0.0,0.0,1.7447,0.0,0.0,1.6035,1.5042,0.0,0.0,0.0,0.0,0.0,0.0,0.0,0.0,0.0,0.0,0.0,0.0,0.0,0.0,0.0,0.0,0.0,0.0,0.0,0.0,0.0,0.0,1.6086,1.6086,1.6086,1.6086,1.6046,1.5959,1.7221,1.765,1.7413,1.8284,1.8652,1.8738,1.9879,2.0332,2.046,2.1588,2.2283,2.2628,2.2285,2.2675,2.3326,2.2851,2.3231,2.3926,2.3507,2.4119,2.5067,2.4707,2.4814,2.5127,2.5439,2.5234,2.4971,2.541,2.5401,2.5333,2.5508,2.5439,2.5138,2.457,2.4316,2.415,2.3857,2.3691,2.3506,2.3149,2.3091,2.3091,2.3091,2.3091,2.3091,2.3091,2.3091,2.2984,2.2691,2.1523,2.0931,2.1353,2.0501,2.0173,2.0752,2.0683,2.0605,2.0605,2.0605,2.0605,2.0605,2.0605,2.0605,2.0605,2.0605,2.0605,2.0605,2.0605,2.0605,2.0605,2.0605,2.0605,1.0869,1.1554,0.0,1.4575,1.5595,1.6611,1.8434,0.0,0.0,0.0,0.0,0.0,0.0,0.0,0.0,0.0,0.0,0.0,0.0,0.0,0.0,0.0,0.0,0.0,0.0,0.0,0.0,0.0,0.0,0.0,0.0,0.0,0.0,0.0,1.5545,1.5538,1.5658,1.5658,1.5879,1.6371,1.7567,1.85,1.9131,1.9405,1.9497,1.9588,2.08,2.1569,2.2076,2.2818,2.3247,2.3506,2.3198,2.351,2.4111,2.3682,2.3799,2.4131,2.3877,2.4238,2.4795,2.4707,2.4971,2.5381,2.5606,2.5547,2.5391,2.5615,2.5693,2.5693,2.5693,2.5693,2.5508,2.4844,2.4678,2.4512,2.3916,2.3789,2.3662,2.3179,2.3091,2.3091,2.3091,2.3091,2.3091,2.3091,2.2955,2.2633,2.2038,2.1078,2.0592,2.0936,2.0301,2.0068,2.0547,2.0605,2.0605,2.0605,2.0605,2.0605,2.0605,2.0605,2.0605,2.0605,2.0605,2.0605,2.0605,2.0605,2.0605,2.0605,2.0605,2.0605,1.085,0.0,0.0,1.5059,1.6894,0.0,2.0302,0.0,0.0,0.0,0.0,0.0,0.0,0.0,0.0,0.0,0.0,0.0,0.0,0.0,0.0,0.0,0.0,0.0,0.0,0.0,0.0,0.0,0.0,0.0,0.0,0.0,0.0,1.5351,1.5149,1.5135,1.5351,1.5357,1.5972,0.0,1.8228,1.9601,2.114,2.0191,1.9782,1.9898,2.098,2.2076,2.3091,2.3091,2.3091,2.3091,2.3091,2.3379,2.3682,2.3247,2.3389,2.374,2.3779,2.4062,2.4492,2.4969,2.5342,2.5635,2.5674,2.5664,2.5635,2.5674,2.5664,2.5635,2.5674,2.5664,2.5566,2.5117,2.5086,2.4891,2.4023,2.3818,2.3662,2.3179,2.3091,2.3091,2.3091,2.3091,2.3081,2.3042,2.2682,2.2158,2.1298,2.1161,2.1016,2.0644,2.0605,2.0605,2.0605,2.0605,2.0605,2.0605,2.0605,2.0605,2.0605,2.0605,2.0605,2.0605,2.0605,2.0605,2.0605,2.0605,2.0605,2.0605,2.0605,2.0605,1.132,1.1732,0.0,0.0,1.8242,2.0205,0.0,0.0,0.0,0.0,0.0,0.0,0.0,0.0,0.0,0.0,0.0,0.0,0.0,0.0,0.0,0.0,0.0,0.0,0.0,0.0,0.0,0.0,0.0,0.0,0.0,0.0,0.0,1.5102,1.5042,1.5035,1.5102,1.5102,1.5621,0.0,1.7922,1.9126,2.0339,2.1373,2.2013,2.2315,2.2589,2.2862,2.3091,2.3091,2.3091,2.3091,2.3091,2.3149,2.3227,2.313,2.3149,2.3286,2.3672,2.4062,2.4492,2.4969,2.5184,2.5283,2.5586,2.5488,2.5283,2.5586,2.5488,2.5293,2.5596,2.5478,2.5098,2.4668,2.4814,2.4969,2.4394,2.4023,2.3662,2.3179,2.3091,2.3091,2.3091,2.3091,2.2984,2.2695,2.2295,2.1826,2.1268,2.0928,2.0713,2.0615,2.0605,2.0605,2.0605,2.0605,2.0605,2.0605,2.0605,2.0605,2.0605,2.0605,2.0605,2.0605,2.0605,2.0605,2.0605,2.0605,2.0605,2.0605,2.0605,2.0605,1.1213,0.0,0.0,1.6294,0.0,0.0,0.0,0.0,0.0,0.0,0.0,0.0,0.0,0.0,0.0,0.0,0.0,0.0,0.0,0.0,0.0,0.0,0.0,0.0,0.0,0.0,0.0,0.0,0.0,0.0,0.0,1.4586,1.4609,1.4743,1.466,1.4609,1.475,1.5258,1.6111,1.7263,1.8363,1.9466,2.0632,2.1913,2.2627,2.2808,2.3013,2.2984,2.2808,2.3013,2.2974,2.2818,2.3013,2.3091,2.3091,2.3091,2.3091,2.3159,2.3633,2.4062,2.4492,2.4969,2.5215,2.5391,2.541,2.54,2.5391,2.541,2.5244,2.5174,2.5361,2.5088,2.4697,2.4473,2.4746,2.4881,2.3984,2.3799,2.3662,2.3179,2.3091,2.3091,2.3091,2.2925,2.2695,2.2275,2.1846,2.1416,2.0967,2.0752,2.0605,2.0605,2.0605,2.0605,2.0605,2.0605,2.0605,2.0605,2.0605,2.0605,2.0605,2.0605,2.0605,2.0605,2.0605,2.0605,2.0605,2.0605,2.0605,2.0605,2.0605,2.0605,1.1113,0.0,1.4277,1.6613,1.833,0.0,0.0,0.0,0.0,0.0,0.0,0.0,0.0,0.0,0.0,0.0,0.0,0.0,0.0,0.0,0.0,0.0,0.0,0.0,0.0,0.0,0.0,0.0,0.0,0.0,1.4088,1.4088,1.4202,1.4436,1.4421,1.4408,1.4442,1.5689,1.686,1.7871,1.9067,2.0152,2.1103,2.1934,2.2373,2.2529,2.276,2.2769,2.2604,2.2877,2.2828,2.2656,2.2955,2.3091,2.3091,2.3091,2.3091,2.3159,2.3633,2.4014,2.4375,2.4814,2.5156,2.5342,2.5049,2.5166,2.5342,2.5039,2.4949,2.491,2.4941,2.4629,2.4307,2.4307,2.459,2.4551,2.3442,2.3477,2.3574,2.3169,2.3091,2.3091,2.3091,2.275,2.2373,2.1953,2.1514,2.1034,2.0664,2.0605,2.0605,2.0605,2.0605,2.0605,2.0605,2.0605,2.0605,2.0605,2.0605,2.0605,2.0605,2.0605,2.0605,2.0605,2.0605,2.0605,2.0605,2.0605,2.0605,2.0605,2.0605,2.0605,0.0,0.0,1.4873,0.0,1.7024,0.0,0.0,0.0,0.0,0.0,0.0,0.0,0.0,0.0,0.0,0.0,0.0,0.0,0.0,0.0,0.0,0.0,0.0,0.0,0.0,0.0,0.0,0.0,0.0,0.0,1.4088,1.4088,1.4108,1.4142,1.5041,1.5075,1.4142,1.6144,1.7245,1.7408,1.9476,2.0527,2.0713,2.1182,2.1765,2.249,2.2187,2.2432,2.2984,2.2682,2.274,2.3013,2.3071,2.3091,2.3091,2.3091,2.3091,2.3159,2.3633,2.3828,2.3945,2.4365,2.4297,2.4102,2.4414,2.4297,2.4111,2.4414,2.4238,2.4043,2.4404,2.4189,2.3877,2.3877,2.3916,2.3906,2.374,2.3457,2.3169,2.311,2.3091,2.3091,2.3091,2.275,2.2373,2.1953,2.1514,2.1034,2.0664,2.0605,2.0605,2.0605,2.0605,2.0605,2.0605,2.0605,2.0605,2.0605,2.0605,2.0605,2.0605,2.0605,2.0605,2.0605,2.0605,2.0605,2.0605,2.0605,2.0605,2.0605,2.0605,2.0605,1.2155,1.2959,1.3893,0.0,0.0,0.0,0.0,0.0,0.0,0.0,0.0,0.0,0.0,0.0,0.0,0.0,0.0,0.0,0.0,0.0,0.0,0.0,0.0,0.0,0.0,0.0,0.0,0.0,0.0,1.5019,1.5019,1.4412,1.4088,1.4088,1.5137,1.5455,1.5019,1.7172,1.855,1.9155,2.0118,2.0605,2.0615,2.0771,2.1201,2.1797,2.1855,2.21,2.2441,2.249,2.2617,2.2812,2.3003,2.3091,2.3091,2.3091,2.3091,2.3159,2.3633,2.3789,2.3857,2.4277,2.4287,2.4131,2.4082,2.4102,2.4131,2.4082,2.3935,2.3828,2.4014,2.375,2.3428,2.3428,2.3428,2.3428,2.3428,2.3227,2.3091,2.3091,2.3091,2.3091,2.3091,2.2598,2.2178,2.2227,2.1445,2.0879,2.0937,2.0723,2.0605,2.0605,2.0605,2.0605,2.0605,2.0605,2.0605,2.0605,2.0605,2.0605,2.0605,2.0605,2.0605,2.0605,2.0605,2.0605,2.0605,2.0605,2.0605,2.0605,2.0605,2.0605,0.0,0.0,1.293,0.0,0.0,0.0,0.0,0.0,0.0,0.0,0.0,0.0,0.0,0.0,0.0,0.0,0.0,0.0,0.0,0.0,0.0,0.0,0.0,0.0,0.0,0.0,0.0,0.0,0.0,1.5723,1.5569,1.5056,1.4691,1.4489,1.5827,1.6388,1.6108,1.802,1.952,2.0605,2.0605,2.0605,2.0605,2.0605,2.0752,2.1084,2.1406,2.168,2.1904,2.2109,2.2256,2.2393,2.2769,2.2935,2.2945,2.3052,2.3091,2.314,2.3516,2.3623,2.3672,2.3984,2.4092,2.3988,2.3721,2.3838,2.4033,2.3711,2.3623,2.3623,2.3623,2.3379,2.3091,2.3091,2.3091,2.3091,2.3091,2.3091,2.3091,2.3091,2.3091,2.3091,2.3091,2.2529,2.2148,2.2461,2.1494,2.0859,2.1151,2.084,2.0605,2.0605,2.0605,2.0605,2.0605,2.0605,2.0605,2.0605,2.0605,2.0605,2.0605,2.0605,2.0605,2.0605,2.0605,2.0605,2.0605,2.0605,2.0605,2.0605,2.0605,2.0605,0.0,1.2549,0.0,0.0,0.0,0.0,0.0,0.0,0.0,0.0,0.0,0.0,0.0,0.0,0.0,0.0,0.0,0.0,0.0,0.0,0.0,0.0,0.0,0.0,0.0,0.0,0.0,0.0,0.0,1.5747,1.5145,1.6023,1.6285,1.5647,1.7698,1.831,1.7212,1.839,1.952,2.0605,2.0605,2.0605,2.0605,2.0605,2.0615,2.0635,2.0664,2.1153,2.1855,2.1424,2.1543,2.1963,2.2383,2.2549,2.2598,2.2945,2.3091,2.3101,2.312,2.313,2.313,2.3149,2.3159,2.3159,2.314,2.314,2.3159,2.314,2.313,2.313,2.313,2.311,2.3091,2.3091,2.3091,2.3091,2.3091,2.3091,2.3091,2.3091,2.3091,2.3091,2.3091,2.273,2.249,2.251,2.1726,2.1171,2.119,2.084,2.0605,2.0605,2.0605,2.0605,2.0605,2.0605,2.0605,2.0605,2.0605,2.0605,2.0605,2.0605,2.0605,2.0605,2.0605,2.0605,2.0605,2.0605,2.0605,2.0605,2.0605,2.0605,0.0,0.0,0.0,0.0,0.0,0.0,0.0,0.0,0.0,0.0,0.0,0.0,0.0,0.0,0.0,0.0,0.0,0.0,0.0,0.0,0.0,0.0,0.0,0.0,0.0,0.0,0.0,0.0,0.0,0.0,1.6788,1.6735,1.6594,1.6333,1.8051,1.9116,1.9432,1.9835,2.0206,2.0605,2.0605,2.0605,2.0605,2.0605,2.0605,2.0605,2.0605,2.0908,2.1455,2.1259,2.1494,2.1904,2.2051,2.2275,2.2529,2.2643,2.2867,2.3091,2.3091,2.3091,2.3091,2.3091,2.3091,2.3091,2.3091,2.3091,2.3091,2.3091,2.3091,2.3091,2.3091,2.3091,2.3091,2.3091,2.3091,2.3091,2.3091,2.3091,2.3091,2.3091,2.3091,2.3091,2.3091,2.275,2.2607,2.2828,2.2197,2.1748,2.2021,2.168,2.1416,2.1416,2.1162,2.0996,2.0996,2.0732,2.0605,2.0605,2.0605,2.0605,2.0605,2.0605,2.0605,2.0605,2.0605,2.0742,2.0996,2.0742,2.0713,2.0996,2.0996,2.0996,1.2529,0.0,0.0,0.0,0.0,0.0,0.0,0.0,0.0,0.0,0.0,0.0,0.0,0.0,0.0,0.0,0.0,0.0,0.0,0.0,0.0,0.0,0.0,0.0,0.0,0.0,0.0,0.0,0.0,0.0,1.7466,1.7391,1.7485,1.7738,1.877,1.9742,2.0605,2.0458,2.042,2.0605,2.0458,2.0458,2.0605,2.0605,2.0605,2.0605,2.0605,2.0732,2.1016,2.1016,2.1182,2.1496,2.1611,2.1924,2.2314,2.2461,2.274,2.3091,2.3091,2.3091,2.3091,2.3091,2.3091,2.3091,2.3091,2.3091,2.3091,2.3091,2.3091,2.3091,2.3091,2.3091,2.3091,2.3091,2.3091,2.3091,2.3091,2.3091,2.3091,2.3091,2.3091,2.3091,2.3091,2.2867,2.2779,2.3052,2.2549,2.2197,2.248,2.2148,2.1885,2.1885,2.1621,2.1356,2.121,2.0967,2.0723,2.0615,2.0605,2.0605,2.0605,2.0605,2.0605,2.0605,2.0713,2.0937,2.119,2.0937,2.1016,2.1414,2.1414,2.1414,0.0,0.0,0.0,0.0,0.0,0.0,0.0,0.0,0.0,0.0,0.0,0.0,0.0,0.0,0.0,0.0,0.0,0.0,0.0,0.0,0.0,0.0,0.0,0.0,0.0,0.0,0.0,0.0,0.0,1.7716,1.7072,1.8012,1.8987,1.9873,1.9893,2.0098,2.0566,2.0107,2.0107,2.0566,2.0107,2.0137,2.0586,2.0595,2.0605,2.0605,2.0605,2.0605,2.0605,2.0605,2.0605,2.0644,2.1045,2.1484,2.1924,2.2344,2.2754,2.3081,2.3091,2.3091,2.3091,2.3091,2.3091,2.3091,2.3091,2.3091,2.3091,2.3091,2.3091,2.3091,2.3091,2.3091,2.3091,2.3091,2.3091,2.3091,2.3091,2.3091,2.3091,2.3091,2.3091,2.3091,2.3091,2.3091,2.3091,2.3091,2.275,2.2529,2.2529,2.2178,2.1924,2.1924,2.1914,2.1728,2.1268,2.121,2.1045,2.0644,2.0625,2.0625,2.0625,2.0635,2.0644,2.0644,2.1025,2.122,2.1229,2.122,2.1434,2.1885,2.1894,2.1904,1.3763,0.0,0.0,0.0,0.0,0.0,0.0,0.0,0.0,0.0,0.0,0.0,0.0,0.0,0.0,0.0,0.0,0.0,0.0,0.0,0.0,0.0,0.0,0.0,0.0,0.0,0.0,0.0,1.7559,1.76,1.7741,1.8292,1.8851,1.9443,1.9463,1.9521,1.9639,1.9521,1.9521,1.9639,1.9824,1.998,2.0107,2.0458,2.0605,2.0605,2.0605,2.0605,2.0605,2.0605,2.0605,2.0615,2.0703,2.1025,2.1465,2.1894,2.2324,2.2734,2.2984,2.3091,2.3091,2.3091,2.3091,2.3091,2.3091,2.3091,2.3091,2.3091,2.3091,2.3091,2.3091,2.3091,2.3091,2.3091,2.3091,2.3091,2.3091,2.3091,2.3091,2.3091,2.3091,2.3091,2.3091,2.3091,2.3091,2.3091,2.3003,2.2925,2.2925,2.2818,2.275,2.275,2.2519,2.2285,2.2168,2.1551,2.1142,2.1055,2.1045,2.1045,2.1045,2.1357,2.1564,2.1564,2.1641,2.1855,2.2158,2.1855,2.1768,2.1894,2.2197,2.25,0.0,0.0,0.0,0.0,0.0,0.0,0.0,1.2031,0.0,0.0,0.0,0.0,0.0,0.0,0.0,0.0,0.0,0.0,0.0,0.0,0.0,0.0,0.0,0.0,0.0,0.0,0.0,1.708,1.7109,1.7295,1.7725,1.7978,1.8389,1.8994,1.9014,1.9102,1.9287,1.9102,1.9199,1.9551,1.9619,1.9834,2.0195,2.0488,2.0605,2.0605,2.0605,2.0605,2.0605,2.0605,2.0605,2.0605,2.0605,2.0957,2.1543,2.1787,2.2266,2.2769,2.3013,2.3091,2.3091,2.3091,2.3091,2.3091,2.3091,2.3091,2.3091,2.3091,2.3091,2.3091,2.3091,2.3091,2.3091,2.3091,2.3091,2.3091,2.3091,2.3091,2.3091,2.3091,2.3091,2.3091,2.3091,2.3091,2.3091,2.3091,2.3091,2.3091,2.3091,2.3091,2.3091,2.3091,2.2877,2.2705,2.2529,2.2009,2.1658,2.1514,2.1504,2.1504,2.1504,2.1748,2.1885,2.1885,2.206,2.2353,2.273,2.2353,2.2236,2.2412,2.2656,2.2867,0.0,0.0,0.0,0.0,0.0,0.0,1.2535,1.235,1.233,0.0,0.0,0.0,0.0,0.0,0.0,0.0,0.0,0.0,0.0,0.0,0.0,0.0,0.0,0.0,0.0,1.5694,1.6103,1.6521,1.6648,1.6872,1.7285,1.7314,1.7676,1.8432,1.8461,1.8711,1.9141,1.8724,1.8909,1.9697,1.9365,1.9639,2.0468,2.0507,2.0556,2.0605,2.0605,2.0605,2.0605,2.0605,2.0605,2.0605,2.0605,2.1114,2.1816,2.1865,2.2383,2.3033,2.3081,2.3091,2.3091,2.3091,2.3091,2.3091,2.3091,2.3091,2.3091,2.3091,2.3091,2.3091,2.3091,2.3091,2.3091,2.3091,2.3091,2.3091,2.3091,2.3091,2.3091,2.3091,2.3091,2.3091,2.3091,2.3091,2.3091,2.3091,2.3091,2.3091,2.3091,2.3091,2.3091,2.3091,2.3091,2.2945,2.2617,2.2539,2.2353,2.1982,2.1953,2.1953,2.1953,2.2002,2.2021,2.2021,2.2393,2.2721,2.3091,2.2715,2.2734,2.3091,2.3091,2.3091,0.0,0.0,0.0,0.0,0.0,0.0,1.3344,1.3262,1.3164,0.0,0.0,0.0,0.0,0.0,0.0,0.0,0.0,0.0,0.0,0.0,0.0,0.0,0.0,0.0,0.0,1.4775,1.5215,1.5605,1.6297,1.6736,1.6824,1.6824,1.71,1.7607,1.7627,1.7832,1.8252,1.8174,1.8213,1.8389,1.8607,1.9033,1.9551,1.9883,2.0234,2.0605,2.0605,2.0605,2.0605,2.0605,2.0605,2.0605,2.0605,2.0889,2.1366,2.1758,2.2207,2.2643,2.2974,2.3091,2.3091,2.3091,2.3091,2.3091,2.3091,2.3091,2.3091,2.3091,2.3091,2.3091,2.3091,2.3091,2.3091,2.3091,2.3091,2.3091,2.3091,2.3091,2.3091,2.3091,2.3091,2.3091,2.3091,2.3091,2.3091,2.3091,2.3091,2.3091,2.3091,2.3091,2.3091,2.3091,2.3091,2.3062,2.2984,2.2705,2.248,2.2393,2.2393,2.2393,2.2393,2.2672,2.2847,2.2847,2.2925,2.3013,2.3091,2.2715,2.2734,2.3091,2.3091,2.3091,0.0,0.0,0.0,1.4834,0.0,0.0,0.0,1.3627,1.3506,0.0,0.0,0.0,0.0,0.0,0.0,0.0,0.0,0.0,0.0,0.0,0.0,0.0,0.0,0.0,0.0,1.4404,1.4961,1.5381,1.579,1.6132,1.6387,1.6396,1.6602,1.7051,1.7275,1.749,1.7695,1.791,1.8115,1.8295,1.8724,1.918,1.9609,2.0039,2.04,2.0605,2.0605,2.0605,2.0605,2.0605,2.0605,2.0605,2.0605,2.084,2.122,2.1444,2.1836,2.2266,2.2643,2.2779,2.2818,2.3023,2.3091,2.3091,2.3091,2.3091,2.3091,2.3091,2.3091,2.3091,2.3091,2.3091,2.3091,2.3091,2.3091,2.3091,2.3091,2.3091,2.3091,2.3091,2.3091,2.3091,2.3091,2.3091,2.3091,2.3091,2.3091,2.3091,2.3091,2.3091,2.3091,2.3091,2.3091,2.3091,2.3091,2.2906,2.2779,2.2779,2.2779,2.2779,2.2779,2.2984,2.3091,2.3091,2.3091,2.3091,2.3091,2.2886,2.2886,2.3091,2.3091,2.3091,0.0,0.0,0.0,0.0,0.0,1.4795,0.0,0.0,0.0,1.4055,0.0,0.0,0.0,0.0,0.0,0.0,0.0,0.0,0.0,0.0,0.0,0.0,0.0,0.0,0.0,1.4277,1.4961,1.5381,1.541,1.5566,1.5948,1.5968,1.6173,1.656,1.7031,1.7305,1.7383,1.7803,1.8188,1.8607,1.8994,1.9424,1.9922,2.0283,2.0527,2.0605,2.0605,2.0605,2.0605,2.0605,2.0605,2.0605,2.0605,2.084,2.119,2.119,2.1514,2.1953,2.2363,2.251,2.2578,2.2955,2.3091,2.3091,2.3091,2.3091,2.3091,2.3091,2.3091,2.3091,2.3091,2.3091,2.3091,2.3091,2.3091,2.3091,2.3091,2.3091,2.3091,2.3091,2.3091,2.3091,2.3091,2.3091,2.3091,2.3091,2.3091,2.3091,2.3091,2.3091,2.3091,2.3091,2.3091,2.3091,2.3091,2.3091,2.3091,2.3091,2.3091,2.3091,2.3091,2.3091,2.3091,2.3091,2.3091,2.3091,2.3091,2.3091,2.3091,2.3091,2.3091,2.3091,0.0,0.0,0.0,0.0,1.5625,0.0,0.0,0.0,1.4541,1.4182,0.0,0.0,0.0,0.0,0.0,0.0,0.0,0.0,0.0,0.0,0.0,0.0,0.0,0.0,0.0,0.0,1.4961,1.5381,1.541,1.543,1.5488,1.5488,1.5684,1.6153,1.6572,1.6992,1.7416,1.7803,1.8188,1.8598,1.8646,1.9095,1.9912,1.9971,2.0195,2.0605,2.0605,2.0605,2.0605,2.0605,2.0605,2.0605,2.0605,2.084,2.119,2.119,2.1514,2.1953,2.2363,2.251,2.2578,2.2955,2.3091,2.3091,2.3091,2.3091,2.3091,2.3091,2.3091,2.3091,2.3091,2.3091,2.3091,2.3091,2.3091,2.3091,2.3091,2.3091,2.3091,2.3091,2.3091,2.3091,2.3091,2.3091,2.3091,2.3091,2.3091,2.3091,2.3091,2.3091,2.3091,2.3091,2.3091,2.3091,2.3091,2.3091,2.3091,2.3091,2.3091,2.3091,2.3091,2.3091,2.3091,2.3091,2.3091,2.3091,2.3091,2.3091,2.3091,2.3091,2.3091,2.3091,0.0,0.0,0.0,0.0,0.0,0.0,0.0,0.0,1.4944,0.0,0.0,0.0,0.0,0.0,0.0,0.0,0.0,0.0,0.0,0.0,0.0,0.0,0.0,0.0,0.0,0.0,0.0,0.0,0.0,1.5156,1.54,1.541,1.5498,1.5684,1.6113,1.6562,1.7002,1.7432,1.7852,1.8247,1.8779,1.9199,1.957,2.0068,2.0391,2.0605,2.0605,2.0605,2.0605,2.0605,2.0605,2.0605,2.0605,2.0684,2.084,2.084,2.0967,2.1182,2.1621,2.1934,2.2256,2.2877,2.3091,2.3091,2.3091,2.3091,2.3091,2.3091,2.3091,2.3091,2.3091,2.3091,2.3091,2.3091,2.3091,2.3091,2.3091,2.3091,2.3091,2.3091,2.3091,2.3091,2.3091,2.3091,2.3091,2.3091,2.3091,2.3091,2.3091,2.3091,2.3091,2.3091,2.3091,2.3091,2.3091,2.3091,2.3091,2.3091,2.3091,2.3091,2.3091,2.3091,2.343,2.4082,2.343,2.343,2.4082,2.342,2.3091,2.3091,2.3091,2.3091,1.7471,0.0,0.0,0.0,0.0,0.0,0.0,0.0,0.0,0.0,0.0,0.0,0.0,0.0,0.0,0.0,0.0,0.0,0.0,0.0,0.0,0.0,0.0,0.0,0.0,0.0,0.0,1.4561,1.4717,1.4922,1.5225,1.5352,1.541,1.541,1.587,1.6279,1.6697,1.7168,1.7656,1.8184,1.8818,1.9228,1.9482,2.0107,2.0488,2.0605,2.0605,2.0605,2.0605,2.0605,2.0605,2.0605,2.0605,2.0605,2.0605,2.0605,2.0683,2.081,2.126,2.1777,2.2334,2.2896,2.3091,2.3091,2.3091,2.3091,2.3091,2.3091,2.3091,2.3091,2.3091,2.3091,2.3091,2.3091,2.3091,2.3091,2.3091,2.3091,2.3091,2.3091,2.3091,2.3091,2.3091,2.3091,2.3091,2.3091,2.3091,2.3091,2.3091,2.3091,2.3091,2.3091,2.3091,2.3091,2.3091,2.3091,2.3091,2.3091,2.3091,2.3091,2.3091,2.3091,2.3637,2.4787,2.4006,2.4135,2.5252,2.4135,2.3551,2.3551,2.3266,2.3256,0.0,0.0,0.0,1.7396,0.0,0.0,0.0,0.0,1.8007,0.0,0.0,0.0,0.0,0.0,0.0,1.551,0.0,0.0,0.0,0.0,0.0,0.0,0.0,0.0,0.0,0.0,0.0,1.4124,1.4551,1.4823,1.4833,1.5186,1.541,1.541,1.587,1.6279,1.6697,1.7168,1.7803,1.8588,1.8607,1.9056,1.9893,1.9922,2.0166,2.0605,2.0605,2.0605,2.0605,2.0605,2.0605,2.0605,2.0605,2.0605,2.0605,2.0605,2.084,2.1239,2.1719,2.2402,2.3062,2.3081,2.3091,2.3091,2.3091,2.3091,2.3091,2.3091,2.3091,2.3091,2.3091,2.3091,2.3091,2.3091,2.3091,2.3091,2.3091,2.3091,2.3091,2.3091,2.3091,2.3091,2.3091,2.3091,2.3091,2.3091,2.3091,2.3091,2.3091,2.3091,2.3091,2.3091,2.3091,2.3091,2.3091,2.3091,2.3091,2.3091,2.3091,2.3091,2.3091,2.3091,2.3637,2.4787,2.4745,2.5294,2.6431,2.5294,2.4745,2.4702,2.3594,2.3671,0.0,0.0,1.7803,1.7803,0.0,0.0,0.0,0.0,0.0,0.0,0.0,0.0,0.0,0.0,0.0,1.6031,0.0,0.0,0.0,0.0,0.0,0.0,0.0,0.0,0.0,0.0,0.0,1.3675,1.4094,1.4482,1.4766,1.5186,1.541,1.541,1.5557,1.5986,1.6697,1.6853,1.735,1.8223,1.8471,1.8909,1.9512,1.9785,2.0156,2.0605,2.0605,2.0605,2.0605,2.0605,2.0605,2.0605,2.0605,2.0605,2.0605,2.0605,2.0703,2.0859,2.1299,2.1836,2.2353,2.2637,2.2867,2.3091,2.3091,2.3091,2.3091,2.3091,2.3091,2.3091,2.3091,2.3091,2.3091,2.3091,2.3091,2.3091,2.3091,2.3091,2.3091,2.3091,2.3714,2.4006,2.3222,2.3714,2.3963,2.3222,2.3091,2.3091,2.3091,2.3091,2.3091,2.3091,2.3091,2.3091,2.3091,2.3091,2.3091,2.3091,2.3091,2.3091,2.3091,2.3844,2.4755,2.5891,2.5933,2.6461,2.7574,2.6461,2.5933,2.5891,2.4755,2.4414,1.8008,1.8008,0.0,1.8395,1.8028,0.0,2.0089,0.0,0.0,0.0,0.0,0.0,0.0,0.0,0.0,0.0,0.0,0.0,0.0,1.3576,0.0,0.0,0.0,0.0,0.0,0.0,1.3057,1.3477,1.387,1.4299,0.0,0.0,1.541,1.541,1.5557,1.5996,1.6697,1.6853,1.7314,1.8018,1.8247,1.8721,1.9297,1.957,2.001,2.0605,2.0605,2.0605,2.0605,2.0605,2.0605,2.0644,2.0972,2.0895,2.0605,2.0605,2.0703,2.0869,2.1309,2.1748,2.2158,2.2432,2.275,2.3091,2.3091,2.3091,2.3091,2.3091,2.3091,2.3091,2.3091,2.3091,2.3091,2.3091,2.3091,2.3091,2.3091,2.3091,2.3091,2.3091,2.4006,2.4585,2.3833,2.4286,2.4414,2.3256,2.3091,2.3091,2.3091,2.3091,2.3091,2.3091,2.3091,2.3091,2.3091,2.3091,2.3091,2.3091,2.3091,2.3091,2.3091,2.38,2.5083,2.7029,2.6693,2.7434,2.9274,2.7789,2.7087,2.7046,2.5493,2.4999]}]]